GFSWCAN_sfc_rhum_000.txt.gz
RH
97 95 95 98 98 98 96 96 95 94 93 93 94 94 96 93 94 72 81 80 59 74 55 54 50 54 51 47 72 67 66 77 94 100 100 95 100 73 66 51 63 65 94 97 96 100 96 43 45 83 65 76 83 80
96 98 98 97 98 98 97 97 96 96 96 94 94 94 96 93 93 84 63 76 77 64 62 73 68 55 52 37 50 69 58 60 68 90 99 100 100 100 98 83 50 67 59 59 65 67 43 42 52 53 68 79 71 74
94 96 98 99 99 98 98 97 97 97 97 97 95 94 96 92 92 83 68 79 69 97 73 66 63 61 58 50 48 66 76 57 64 64 87 100 100 83 100 90 94 50 48 71 73 56 49 54 50 59 70 78 76 73
93 94 95 97 99 99 98 97 97 98 98 98 97 96 98 92 91 87 78 75 74 86 100 76 59 60 57 60 56 54 60 68 68 74 100 100 100 64 99 72 70 54 53 62 76 64 58 51 64 77 74 78 79 54
93 93 94 94 96 99 98 98 97 97 98 98 99 99 99 93 92 85 85 82 77 73 97 86 68 64 61 62 60 58 61 70 89 100 100 100 90 88 92 93 86 50 54 86 97 70 71 71 72 69 81 68 49 43
92 93 94 95 95 97 99 99 97 97 97 98 99 99 98 94 93 78 81 79 80 76 97 100 72 70 64 62 67 66 64 77 80 91 99 88 67 79 100 100 72 52 51 67 73 65 64 68 69 59 55 44 39 36
93 94 95 96 95 96 97 99 98 98 98 99 99 99 99 96 87 82 78 82 86 78 100 100 96 75 71 70 73 69 78 78 85 93 100 92 84 79 100 99 60 60 61 65 69 70 72 60 59 50 47 38 42 37
94 93 93 94 95 95 97 98 99 99 99 99 99 99 98 95 95 94 89 92 86 89 96 100 100 98 72 95 99 83 96 90 93 91 99 98 88 98 100 65 62 57 63 63 63 61 59 53 49 44 39 39 43 37
94 94 94 93 94 95 95 97 99 99 98 99 99 98 97 99 100 98 95 91 90 83 99 100 100 100 78 94 96 96 90 100 90 100 100 96 100 98 80 68 67 72 74 63 54 52 48 48 44 41 40 35 36 40
89 91 94 93 92 94 94 97 99 99 99 98 98 99 100 100 98 97 96 100 100 100 97 100 87 100 78 100 100 100 100 100 100 99 84 100 98 74 62 72 66 65 59 55 65 64 56 50 36 37 38 40 42 43
93 94 93 92 93 93 94 98 99 99 97 99 100 100 100 98 95 97 100 100 100 100 99 99 99 100 95 100 100 100 100 100 100 91 98 99 83 72 61 69 60 57 54 51 43 39 37 38 40 45 51 53 61 65
93 92 92 93 95 92 97 98 97 98 100 99 98 98 98 97 100 100 100 100 100 99 100 100 100 97 100 94 98 100 100 100 99 75 99 89 62 58 58 57 56 53 43 36 36 35 40 44 49 58 59 60 69 80
85 94 91 93 93 92 98 95 96 97 96 97 97 100 98 100 100 100 100 100 100 100 97 100 100 100 98 97 100 100 100 98 80 98 80 64 59 55 54 55 57 46 47 56 38 41 48 53 60 71 81 82 95 85
85 93 92 94 91 94 95 95 96 96 95 99 100 100 100 100 100 97 96 100 100 100 100 100 100 99 100 98 99 100 92 84 94 93 90 64 50 40 46 55 45 42 84 67 54 55 79 92 89 95 94 94 94 92
84 94 93 94 88 90 94 91 89 84 87 89 97 100 99 98 100 100 100 100 100 97 98 100 98 84 99 99 95 97 98 91 79 77 69 61 49 48 54 51 46 66 94 79 54 76 100 95 92 88 91 94 92 97
89 97 96 90 87 86 87 87 88 83 88 83 94 100 99 100 100 100 100 100 96 100 99 92 98 100 99 93 97 94 81 72 74 84 73 54 57 60 59 66 57 56 62 58 59 66 75 93 95 79 88 96 97 99
94 99 92 88 88 87 86 83 83 81 87 99 99 98 99 100 100 100 100 100 96 99 100 88 97 92 87 92 92 75 80 78 80 67 56 60 60 60 56 61 84 74 64 62 63 69 72 85 97 95 95 70 82 94
95 96 92 87 79 86 93 76 88 90 90 89 91 100 98 99 100 100 100 99 99 87 78 80 69 82 81 79 75 78 74 73 63 61 51 52 55 61 61 58 56 55 58 62 86 80 80 96 87 68 65 66 78 84
85 93 91 86 72 83 88 92 77 81 86 88 93 93 95 99 96 94 97 98 87 75 80 82 91 76 74 71 83 89 86 75 55 47 48 52 58 63 62 59 63 62 62 66 68 64 62 69 73 66 67 68 80 80
94 95 89 83 76 78 97 92 75 71 77 84 92 90 90 93 96 100 100 98 87 94 96 94 83 77 75 64 61 65 58 58 61 70 59 52 57 60 61 60 57 55 59 62 69 83 74 72 66 68 72 74 88 93
92 97 92 90 90 81 82 87 88 82 82 83 89 82 96 96 95 97 99 92 99 94 84 77 93 76 68 63 59 59 61 61 59 69 68 62 54 59 60 58 59 63 72 77 92 83 92 91 79 78 100 100 99 100
97 94 99 90 93 95 86 85 79 80 78 88 87 80 97 100 98 94 87 91 83 72 65 68 59 58 61 65 59 62 60 60 60 64 77 72 72 68 67 67 74 90 88 98 86 100 97 83 88 96 100 98 91 99
93 88 94 96 89 92 97 84 87 78 86 92 86 89 92 95 90 83 90 74 72 61 59 59 58 61 59 56 61 60 60 63 61 62 70 70 68 78 84 78 85 98 99 84 76 90 99 89 93 100 100 99 98 94
77 93 93 88 87 97 94 97 85 89 91 91 85 79 81 89 88 92 92 87 71 66 67 64 62 58 57 69 61 51 52 60 61 64 71 74 73 67 65 72 80 90 85 78 89 98 99 100 99 98 100 100 95 97
86 92 86 96 92 93 92 90 89 82 84 89 93 93 93 90 95 97 94 75 81 86 75 62 60 58 60 63 60 57 65 60 62 64 69 72 85 87 82 72 75 80 90 100 100 100 100 100 100 100 98 98 92 97
94 90 80 90 94 82 90 94 92 87 85 91 93 87 93 92 90 79 66 79 94 84 99 98 92 63 54 51 55 53 55 64 70 75 67 67 75 95 97 95 94 90 92 99 100 100 95 92 91 90 89 87 82 90
92 89 84 74 76 79 91 92 86 89 97 99 89 97 92 88 81 66 62 72 71 83 78 76 76 69 69 67 67 71 76 78 88 77 77 83 87 87 95 97 95 95 96 100 100 100 97 92 91 92 90 88 84 88
89 86 94 93 92 83 89 89 92 96 85 74 83 93 87 79 65 77 79 79 84 82 80 80 80 79 81 84 85 90 90 87 86 90 94 94 92 96 97 95 94 94 97 100 100 99 98 97 95 89 89 92 89 87
92 89 89 97 96 97 90 82 81 72 66 76 83 76 78 71 92 86 81 81 80 82 84 85 86 86 82 81 83 84 89 90 92 91 89 89 96 95 91 93 93 93 94 93 89 95 97 96 93 93 93 92 91 91
92 90 93 98 99 92 88 85 92 92 76 79 75 72 78 89 88 79 82 83 88 94 93 90 90 91 92 91 90 87 90 91 91 93 93 92 93 93 93 92 93 93 93 93 92 88 81 85 87 88 88 89 90 90
91 90 93 92 93 94 95 96 95 94 93 91 93 91 84 93 89 85 85 86 85 87 88 89 88 87 88 88 90 90 91 91 92 91 91 92 91 92 92 92 93 93 93 93 92 90 91 90 90 90 89 90 89 89
94 92 94 98 92 92 92 98 97 95 93 92 86 94 96 93 93 87 88 86 86 89 90 90 90 90 89 89 90 90 90 90 88 89 90 91 92 92 92 91 93 93 92 91 90 90 89 89 90 90 90 89 89 89
92 94 93 94 97 96 92 88 78 84 85 86 91 93 93 90 94 89 79 84 89 91 92 91 91 91 88 87 90 89 85 87 88 89 90 90 91 93 93 92 92 92 91 90 90 89 88 87 89 89 90 90 90 90

GFSWCAN_sfc_rhum_003.txt.gz
RH
97 95 97 98 97 96 96 95 94 93 92 92 92 92 95 92 91 72 60 65 56 61 48 42 39 44 42 37 70 54 58 65 80 100 100 88 100 62 57 38 57 69 93 97 90 99 89 36 39 75 55 49 61 70
98 97 96 95 98 98 97 96 95 94 94 93 92 91 94 92 91 88 48 54 57 50 55 54 53 49 46 34 39 56 45 54 55 76 94 98 100 98 85 72 33 56 52 60 59 57 37 44 68 53 50 60 68 71
96 97 97 98 97 98 98 97 96 96 96 95 94 92 94 91 91 85 51 55 49 92 59 51 49 52 41 42 40 57 63 41 51 50 82 98 100 80 100 77 71 41 32 62 66 43 39 48 48 51 60 63 66 65
92 94 95 95 97 98 97 98 97 97 97 97 96 94 94 91 91 93 55 56 52 74 100 69 48 52 50 47 43 43 45 56 53 59 100 100 100 53 96 59 57 47 42 52 60 43 42 44 60 58 54 59 63 52
91 92 93 94 94 96 98 98 98 97 98 99 98 98 97 89 89 69 60 59 59 63 93 81 54 52 49 51 49 47 51 57 71 99 100 97 76 71 78 83 71 41 46 69 74 51 64 67 65 54 54 56 55 41
92 93 94 94 95 95 97 98 98 97 100 98 99 98 98 94 91 61 60 59 60 61 94 100 64 58 53 52 54 54 50 53 54 76 95 68 50 66 100 90 46 40 38 40 56 56 73 66 58 55 48 42 38 36
93 93 92 94 94 95 96 98 99 97 98 98 99 99 99 97 76 72 64 72 81 62 100 100 89 66 59 57 59 58 64 60 64 81 97 88 74 67 100 92 43 41 42 47 53 59 74 69 58 45 43 38 41 33
94 93 93 93 94 94 94 97 98 98 97 99 99 99 97 96 95 82 71 85 80 66 87 100 99 95 63 90 98 66 85 84 79 72 93 92 71 90 100 56 45 42 45 50 58 68 57 45 42 39 34 32 31 27
88 84 93 93 92 92 94 95 97 99 98 99 99 98 94 97 99 87 94 88 72 76 94 100 100 100 66 85 92 93 86 100 84 100 98 85 99 98 68 51 51 50 55 61 47 42 42 40 36 32 28 26 28 30
85 85 92 92 89 93 94 94 96 98 99 99 99 100 100 100 98 96 86 95 98 96 90 100 81 98 64 98 100 99 100 100 100 99 88 100 98 66 55 52 51 51 48 47 53 55 48 45 32 29 29 29 31 34
86 90 92 91 94 94 95 98 98 99 98 99 100 100 100 98 96 96 100 100 100 100 99 96 97 96 82 95 100 100 100 100 100 98 99 100 87 62 54 57 52 48 44 43 40 37 30 29 30 33 39 46 51 51
90 91 92 92 94 93 96 98 96 96 99 99 99 97 98 98 100 100 100 100 100 98 99 100 98 83 99 92 99 100 100 100 100 75 100 91 57 52 53 56 51 46 42 35 29 28 29 29 34 47 53 53 52 67
81 88 92 92 93 92 96 96 96 96 97 96 96 100 99 100 100 100 100 100 100 100 99 100 100 100 99 97 100 100 100 100 80 97 78 59 49 46 49 48 47 39 41 43 29 28 33 37 48 66 73 72 96 74
81 89 92 92 90 95 95 96 92 92 90 98 100 100 100 100 100 100 100 100 100 100 100 100 100 100 100 100 100 100 98 87 98 95 92 57 52 45 46 50 48 44 83 59 44 44 56 85 84 98 100 99 99 89
81 90 91 88 88 97 92 93 91 84 86 97 99 100 100 100 100 100 100 100 100 98 100 100 100 89 100 100 100 96 99 95 83 78 67 55 49 46 54 49 44 52 96 78 43 57 100 100 95 83 86 90 85 100
85 91 76 85 88 90 90 92 89 85 82 81 97 100 100 100 100 100 100 100 93 98 99 95 100 100 100 99 99 100 96 81 77 80 68 51 52 51 50 51 52 48 51 47 45 48 62 94 100 75 80 92 100 100
89 74 90 91 92 90 84 88 88 77 98 99 99 100 100 100 100 100 100 100 91 100 100 99 100 100 92 96 92 70 86 82 82 70 51 52 51 49 52 56 84 68 58 53 53 55 60 72 92 96 94 67 67 78
71 72 91 87 76 82 94 84 93 81 91 79 93 100 99 99 100 100 100 99 99 90 80 84 69 91 91 86 78 78 66 66 55 52 46 48 47 47 47 52 52 51 50 52 70 68 70 92 83 69 55 50 60 68
70 75 91 84 79 91 98 96 77 92 85 81 86 85 89 98 93 90 99 98 90 86 84 83 97 77 76 67 81 90 82 66 54 46 45 47 50 53 54 52 55 55 55 56 58 57 52 54 59 56 58 60 68 74
90 92 90 84 77 76 96 90 71 66 75 75 84 83 85 88 96 100 100 100 92 91 95 92 77 71 68 56 53 59 51 54 55 62 54 43 41 49 54 57 55 53 52 52 54 70 60 63 58 56 62 67 87 90
92 96 94 93 81 68 71 74 80 71 71 73 79 72 90 89 96 99 100 89 99 87 69 62 84 70 60 57 53 54 56 54 49 56 59 55 47 49 50 51 53 55 60 64 88 78 86 84 72 69 100 100 100 100
97 91 100 97 100 98 80 75 72 70 72 81 81 71 92 98 97 94 85 93 79 65 56 59 53 52 54 61 56 53 54 54 55 57 71 65 62 60 56 54 58 78 79 96 82 99 97 80 85 97 100 100 100 100
92 96 100 100 100 100 98 76 93 71 89 88 81 87 91 91 84 70 90 67 66 53 51 49 50 56 59 52 50 52 52 54 52 48 54 57 55 64 71 68 76 97 98 81 70 82 94 91 95 100 100 100 99 100
90 100 99 99 96 97 96 95 75 76 83 84 83 88 80 85 78 87 85 76 58 50 55 54 54 50 49 56 46 38 40 41 50 52 56 62 64 59 56 60 68 83 78 76 86 96 100 100 100 99 100 100 100 100
98 97 98 96 90 91 89 89 86 80 84 86 90 86 90 84 90 85 86 63 76 86 78 59 53 48 49 53 48 46 49 49 55 54 58 60 74 80 76 67 68 70 85 100 100 100 100 100 100 100 100 100 96 94
91 94 88 89 90 83 82 87 87 83 82 88 90 82 93 89 86 79 55 83 98 90 99 98 91 65 55 50 56 57 60 64 69 73 64 63 73 93 96 90 87 89 87 98 100 100 100 100 99 98 97 98 97 95
84 89 82 66 68 73 87 87 76 84 86 83 84 90 89 82 75 59 67 77 74 82 75 75 78 73 73 70 69 73 77 80 88 90 85 83 83 81 93 98 95 96 92 99 100 100 100 100 99 96 97 99 98 98
85 81 87 92 85 75 83 81 86 83 83 62 74 87 79 72 67 82 77 73 79 73 71 72 72 72 74 75 76 82 82 79 77 80 76 74 89 94 92 93 93 94 95 99 100 99 99 98 98 99 96 96 97 99
90 85 85 92 89 91 87 80 79 62 54 71 87 76 80 80 85 81 77 76 76 80 81 82 82 82 78 75 76 85 84 85 87 85 84 84 84 84 84 88 90 90 92 92 91 95 97 96 94 94 95 96 92 91
94 87 90 88 89 85 98 88 99 100 70 79 76 69 73 85 85 77 79 80 84 89 87 85 84 85 87 87 84 86 88 86 88 91 91 90 91 87 88 87 88 89 91 92 91 89 92 93 92 95 90 87 86 84
87 90 90 88 90 98 98 100 100 99 99 94 98 97 93 90 89 83 80 82 81 83 84 84 83 83 84 85 87 87 86 82 83 82 84 87 87 88 88 88 89 90 91 91 92 93 92 92 93 90 84 85 84 85
92 93 94 88 89 96 100 99 98 99 95 96 93 89 90 90 86 85 84 84 82 85 84 84 86 86 85 85 86 87 86 86 84 84 84 88 89 87 87 85 87 89 90 91 92 92 92 92 90 86 85 85 85 85
87 88 86 88 88 86 95 93 79 80 87 86 87 86 87 89 88 86 75 79 85 86 87 86 85 86 86 87 82 83 81 81 82 82 84 83 85 87 87 88 89 90 90 92 91 91 91 88 85 84 85 85 85 85

GFSWCAN_sfc_rhum_006.txt.gz
RH
98 96 96 95 95 95 94 94 93 92 90 89 92 93 94 91 90 77 67 64 69 71 49 41 37 38 36 44 78 54 62 71 95 100 100 94 100 77 66 41 74 84 94 96 88 94 84 36 37 69 64 61 58 57
99 98 98 98 97 97 96 95 93 92 93 91 90 93 94 92 90 90 55 56 61 63 60 55 54 51 49 44 46 57 49 59 68 85 92 98 99 99 91 80 29 62 66 73 68 73 48 41 51 51 68 64 71 66
98 98 98 95 96 98 98 98 96 95 95 95 93 93 94 93 90 89 59 62 59 92 61 55 51 48 42 50 51 67 76 43 53 54 88 98 100 88 99 83 69 36 30 76 70 45 38 42 44 59 57 59 56 56
96 96 96 96 96 96 97 98 98 97 97 96 95 95 93 93 90 94 59 62 59 82 100 73 47 49 48 43 41 47 53 60 63 72 100 100 100 59 96 70 72 54 42 51 60 43 42 44 59 59 63 58 59 53
93 95 95 96 96 95 97 97 98 98 98 99 98 99 99 92 92 80 60 60 59 73 96 84 51 49 45 47 45 49 59 64 79 99 100 99 85 86 94 91 86 47 47 70 77 50 60 63 60 58 62 59 51 47
93 93 94 94 95 96 96 98 98 98 100 99 99 98 98 99 95 68 63 60 58 62 96 100 61 57 51 51 50 51 56 60 64 84 97 78 59 82 100 96 54 39 33 38 49 53 60 63 54 51 51 42 38 38
94 93 93 94 94 95 96 97 99 99 99 99 98 97 98 98 78 77 75 81 87 72 100 100 94 63 57 53 58 59 59 64 66 81 97 92 83 68 100 99 49 37 35 37 49 56 62 60 60 51 42 38 41 32
90 92 93 93 93 93 94 96 97 98 98 99 100 99 98 97 91 82 78 85 86 69 90 100 100 95 61 95 99 70 95 86 84 77 90 95 78 93 99 63 49 41 39 49 52 55 55 47 49 39 35 31 29 26
85 83 92 89 92 93 94 94 96 98 98 99 99 98 90 91 90 82 94 94 75 78 96 100 100 100 66 95 95 96 86 100 82 100 96 88 100 98 72 54 44 42 49 51 51 48 43 42 37 33 29 27 29 32
88 90 91 93 94 94 95 95 96 97 99 99 97 100 100 100 96 93 81 88 97 94 92 100 78 99 70 100 100 100 100 100 100 100 93 100 94 62 48 46 47 52 49 50 60 60 46 46 36 30 30 31 35 43
90 91 92 94 94 95 95 98 97 99 97 99 100 100 99 97 91 96 100 100 100 100 100 96 94 96 82 96 100 100 100 100 100 95 99 99 95 69 58 54 52 50 48 45 43 43 35 31 31 35 48 62 67 66
88 92 91 93 93 96 96 96 96 94 99 99 99 97 97 97 99 100 100 100 100 94 99 100 99 89 99 83 98 99 100 100 100 88 100 96 66 52 56 58 53 47 45 40 33 30 31 30 36 60 66 69 69 81
85 91 91 92 93 95 94 94 96 96 94 95 96 100 98 100 100 100 100 100 100 100 100 100 100 100 99 96 100 100 100 100 100 100 90 75 60 52 56 55 49 43 51 49 30 31 38 41 52 74 80 79 90 84
81 89 90 92 96 95 95 90 89 84 88 98 100 100 100 100 100 100 100 100 100 100 100 100 100 100 100 100 100 100 100 100 98 97 90 82 56 51 53 57 47 48 71 63 62 62 64 87 89 92 100 98 95 92
81 88 88 93 92 92 91 86 84 76 84 99 100 100 100 100 100 100 100 100 100 99 100 100 100 100 100 100 100 100 99 96 95 97 94 83 74 66 70 59 58 71 88 84 63 66 86 89 92 88 89 92 89 97
82 89 82 91 91 89 90 88 84 82 79 84 98 100 100 100 100 100 100 100 98 100 100 100 100 100 100 100 99 99 96 95 100 97 84 69 72 72 66 62 65 62 64 66 66 64 68 85 91 81 83 95 95 96
86 82 90 92 89 87 82 85 90 84 94 99 98 100 100 100 100 100 100 100 95 100 100 100 100 98 95 96 96 95 98 100 97 87 76 72 69 68 63 66 90 80 75 70 67 67 69 75 91 94 91 79 81 84
74 87 92 91 82 83 90 84 93 83 88 77 94 100 99 100 100 100 100 99 99 91 91 95 86 93 94 92 89 93 85 89 84 81 71 67 62 64 58 67 60 69 69 67 78 74 75 88 84 81 79 74 74 78
90 88 91 88 77 84 96 98 90 90 87 78 88 84 90 98 96 96 100 99 93 92 93 93 97 83 88 82 96 100 97 92 78 68 65 63 65 66 66 68 71 70 70 68 69 68 67 70 70 68 70 70 75 79
91 92 92 87 75 91 98 89 75 86 85 76 83 85 91 94 98 100 100 100 99 100 99 94 89 88 84 77 78 86 81 78 72 75 69 63 63 66 71 73 69 70 68 68 70 78 70 69 67 68 70 72 88 97
90 96 93 96 94 76 71 71 80 74 69 77 79 74 88 89 95 100 100 100 100 100 88 73 96 82 74 77 77 77 74 71 67 74 72 66 67 72 69 66 68 69 72 75 91 83 88 86 77 77 99 100 100 96
98 89 100 98 100 98 79 74 75 70 81 84 85 83 89 92 92 94 91 93 84 70 62 68 64 64 71 75 72 70 70 68 70 71 75 73 72 72 71 69 73 83 82 90 77 88 88 82 89 95 100 100 98 100
93 96 100 100 100 100 98 80 96 74 85 84 82 87 86 87 81 73 84 68 68 57 57 54 54 67 68 67 60 63 64 65 60 60 70 67 67 75 78 72 76 90 85 79 75 80 87 95 98 100 100 100 100 100
96 100 100 100 100 98 93 88 69 72 78 80 77 78 75 79 75 82 78 71 57 56 56 56 57 56 62 61 54 53 61 57 58 61 66 67 68 67 67 68 72 77 74 73 80 94 100 100 98 99 100 100 99 98
99 98 99 96 99 93 85 86 84 79 80 80 82 81 87 81 84 77 79 71 95 97 95 82 62 54 55 64 60 64 68 77 81 82 73 72 81 85 84 80 79 79 82 94 99 100 100 100 98 99 100 100 96 95
96 97 97 95 93 90 85 85 81 79 75 79 80 83 85 82 81 74 60 94 96 89 91 92 90 78 67 68 71 80 82 79 80 82 75 82 85 91 92 93 91 88 94 96 98 95 95 94 97 97 97 92 93 98
94 94 80 68 72 76 87 84 75 78 80 79 80 86 84 82 73 72 77 84 88 85 75 80 79 76 76 74 75 76 83 83 82 81 74 74 86 94 94 96 94 93 91 93 95 96 97 97 97 96 95 95 96 96
81 80 87 89 80 71 80 78 81 79 76 59 72 80 77 69 81 89 84 77 77 75 72 78 76 74 77 77 78 85 81 82 79 74 72 88 94 83 83 84 84 84 88 90 95 95 95 96 96 95 96 96 96 97
82 83 80 89 82 84 79 76 74 58 53 69 80 73 84 84 90 88 83 80 80 82 82 82 84 84 81 77 86 86 82 85 88 89 86 88 88 86 84 86 86 86 88 89 85 86 91 96 96 94 95 97 97 96
88 91 82 83 88 80 90 94 96 97 75 87 81 71 77 85 88 80 82 82 84 90 89 89 88 85 90 87 87 84 93 86 88 90 92 93 94 90 89 90 90 89 89 90 90 87 84 86 92 95 93 93 94 95
82 84 84 82 83 95 98 95 95 95 98 93 98 95 92 90 89 84 84 88 85 85 85 86 85 87 87 88 88 88 88 84 89 85 87 89 90 91 91 90 90 91 91 91 91 92 93 92 94 95 93 94 94 92
83 88 89 82 94 94 89 91 87 88 86 85 88 92 94 92 90 88 85 86 84 84 86 84 86 87 84 84 89 85 88 87 89 91 86 90 90 88 88 88 91 92 92 92 93 93 92 92 93 93 94 93 92 88
82 82 80 80 77 75 84 87 68 70 77 74 91 87 90 91 91 89 77 80 85 85 86 85 84 84 88 89 80 90 84 81 79 86 86 90 88 90 89 90 90 90 92 95 95 93 92 92 93 93 93 90 87 87

GFSWCAN_sfc_rhum_009.txt.gz
RH
94 94 94 93 93 94 93 94 94 93 90 91 93 94 94 92 90 92 90 84 90 90 74 68 69 62 63 81 88 76 78 85 100 97 99 98 100 89 80 70 85 88 96 96 90 90 93 51 50 63 71 78 77 74
94 95 95 94 94 94 94 94 93 93 93 93 94 94 94 92 91 93 90 77 82 89 84 77 72 68 62 64 76 76 66 84 93 98 100 100 98 100 96 86 62 79 83 92 82 84 62 55 58 63 74 78 82 77
98 97 97 97 96 96 96 96 95 94 94 95 95 95 95 94 92 94 92 89 93 99 86 79 77 68 59 63 65 80 89 70 80 90 96 98 98 96 96 96 75 59 59 84 78 63 56 61 71 70 74 76 70 68
98 98 98 97 97 95 98 99 98 96 96 96 98 98 99 96 94 93 93 90 94 99 100 91 59 70 61 60 58 65 68 80 88 96 99 100 98 84 99 80 87 67 61 63 76 63 61 75 76 76 70 67 69 62
97 97 97 97 96 96 96 98 99 98 99 98 99 98 99 98 96 94 92 88 86 92 98 98 68 64 57 63 64 70 77 85 97 100 100 99 98 90 99 96 98 66 65 83 85 68 75 86 76 68 71 68 68 66
97 97 96 96 96 96 96 96 98 99 99 99 98 97 98 99 98 96 96 95 88 95 99 100 85 77 69 66 69 70 77 85 94 99 100 98 82 86 99 98 74 59 53 52 67 73 81 77 64 62 66 56 50 47
93 93 94 95 94 96 96 96 98 99 98 98 97 96 98 96 97 96 94 94 98 95 100 100 99 85 74 76 93 89 85 91 90 98 100 99 96 88 98 99 72 58 47 59 72 73 80 69 72 64 51 49 49 40
90 91 92 94 93 94 96 96 97 98 99 98 98 99 96 96 97 95 95 96 98 97 99 99 98 98 79 100 100 96 100 98 96 98 99 99 96 99 100 84 69 59 56 70 71 67 64 68 61 47 44 39 37 42
89 92 94 94 95 95 96 96 96 98 98 99 98 96 95 97 99 99 97 98 96 94 100 100 100 99 90 100 100 98 99 100 97 100 100 96 100 99 90 82 70 61 62 71 66 62 61 60 45 40 38 41 47 55
92 93 94 94 95 94 92 93 96 99 99 99 95 99 100 100 96 98 92 98 100 100 99 100 98 100 93 100 100 100 100 100 100 99 98 100 98 82 69 63 65 65 63 62 74 72 61 53 46 45 47 54 58 61
93 93 93 95 96 96 97 97 98 98 95 98 100 100 99 94 98 99 100 100 99 99 100 99 99 99 95 99 100 100 100 100 99 96 99 98 97 89 73 73 66 62 58 55 48 49 45 43 48 58 64 71 70 72
93 92 92 94 94 95 96 95 94 97 100 99 98 96 96 96 99 100 100 100 100 99 100 100 100 99 100 95 99 100 100 100 98 97 100 94 89 77 74 71 64 51 45 42 42 43 46 53 62 66 67 70 76 81
90 92 92 94 94 93 91 92 93 95 93 96 95 98 96 100 99 100 99 99 100 100 100 100 100 100 99 99 100 100 100 98 99 100 97 97 71 70 66 53 51 50 59 57 49 55 55 54 60 65 75 76 92 88
87 91 94 96 95 94 89 86 86 86 92 99 100 99 99 99 99 99 99 99 100 100 100 100 100 100 100 100 100 99 99 99 99 99 98 98 93 85 66 59 52 59 69 62 61 59 62 77 87 90 97 98 98 96
86 90 90 90 91 88 87 86 84 89 95 98 99 99 99 100 100 100 100 100 99 99 100 100 100 100 100 99 100 99 99 98 99 99 100 99 90 80 75 69 65 67 81 80 67 67 79 86 90 84 89 92 91 95
84 85 91 91 88 86 86 88 90 93 97 95 95 97 100 100 100 100 100 100 99 100 100 100 100 100 99 99 99 99 98 98 99 100 96 88 81 72 70 72 73 74 73 70 71 70 74 86 87 79 84 95 96 97
83 97 92 87 84 84 82 92 96 92 93 90 97 100 99 99 98 100 100 100 99 100 100 100 99 98 100 99 98 100 99 99 99 97 96 78 76 74 72 72 83 78 74 78 78 74 74 80 89 95 90 82 88 90
92 92 92 90 90 88 93 94 92 92 92 93 94 98 99 100 100 100 100 100 100 99 99 98 96 99 99 98 99 99 97 98 96 90 86 72 70 70 63 69 69 72 75 75 79 76 78 91 88 88 89 89 90 91
94 95 91 86 86 94 93 91 91 88 97 97 98 97 97 98 99 100 100 100 98 98 97 97 97 97 97 96 98 100 98 96 92 79 76 70 69 70 70 69 72 74 76 78 79 88 89 82 88 90 88 90 92 91
93 94 94 94 90 99 97 88 88 92 93 96 96 98 98 98 100 100 100 100 99 99 97 97 97 98 96 95 97 98 97 94 93 93 92 80 76 72 76 81 92 84 87 82 85 89 92 93 94 92 92 96 99 99
88 94 91 92 98 95 96 96 95 96 94 97 97 95 97 98 97 97 100 100 100 100 98 97 97 96 87 91 93 94 86 78 85 94 94 93 91 91 91 88 85 93 94 95 95 93 96 94 90 93 100 99 98 97
99 88 99 98 99 99 98 94 96 95 96 93 97 96 96 96 98 95 98 98 96 96 93 92 86 90 91 84 84 81 78 71 72 87 85 91 91 94 94 95 94 93 94 93 93 91 91 93 97 99 100 98 97 98
91 95 100 100 99 99 98 98 95 89 90 93 96 97 97 96 97 94 86 82 90 86 84 83 81 78 81 74 68 69 70 72 91 92 89 92 93 92 91 91 94 95 93 92 94 94 95 98 97 100 97 93 93 94
94 100 98 99 99 99 99 99 96 95 91 94 95 92 94 96 95 88 88 94 95 95 94 88 83 91 89 72 92 96 95 92 93 92 90 92 95 95 94 93 92 92 95 95 94 93 92 96 99 99 98 91 92 96
100 97 99 98 99 98 98 98 98 96 94 93 91 92 97 96 94 96 91 98 98 97 95 94 91 88 91 94 96 93 88 89 95 96 91 95 92 92 90 92 93 98 90 94 94 94 94 92 92 91 91 95 96 98
98 96 98 96 98 99 96 97 96 93 91 91 95 96 94 95 96 94 96 98 98 98 98 98 97 96 90 91 93 94 94 88 86 95 92 90 96 96 95 95 94 93 91 94 95 94 93 92 93 94 94 95 97 98
97 97 98 94 99 99 99 99 97 94 92 93 97 96 96 99 94 98 95 95 95 96 93 91 85 86 88 87 84 93 88 91 92 83 87 96 92 89 93 96 95 95 87 93 93 94 95 94 94 93 94 96 95 96
99 98 97 98 99 98 96 95 94 92 91 92 92 95 93 89 97 97 94 94 94 96 96 88 85 95 93 97 97 95 96 94 90 84 89 93 85 90 86 90 92 86 87 90 90 91 92 94 95 95 95 96 97 97
98 97 93 95 93 94 91 90 90 93 95 93 92 94 98 90 98 96 96 97 94 92 94 96 97 96 94 95 97 97 97 96 92 96 99 99 92 91 88 89 90 88 89 90 88 87 86 92 91 94 96 97 96 95
92 97 94 92 95 96 100 99 99 95 97 100 95 92 89 97 98 97 97 96 97 98 98 97 97 97 99 99 98 95 98 98 99 99 100 100 96 95 92 91 91 90 91 92 91 89 87 90 90 96 95 95 96 95
96 90 82 83 93 99 99 93 95 92 92 93 96 96 97 98 98 97 96 97 97 95 96 97 98 98 99 99 99 100 99 98 98 97 98 99 99 99 96 92 90 92 94 92 92 93 94 94 95 96 96 95 96 96
96 96 97 98 98 98 86 89 87 87 83 83 94 96 98 98 100 99 98 98 98 98 99 99 100 99 98 98 98 98 96 98 97 97 98 98 99 99 97 92 91 92 97 94 92 95 95 96 96 96 96 96 96 96
85 89 86 91 92 90 89 95 90 89 92 95 98 98 98 98 99 99 96 96 97 98 99 99 99 99 98 94 98 95 94 96 95 95 90 98 93 95 96 95 94 97 99 94 95 96 95 96 96 96 97 97 98 98

GFSWCAN_sfc_rhum_012.txt.gz
RH
93 93 92 93 94 94 93 93 94 94 94 94 94 95 94 92 94 84 88 89 80 89 80 81 78 67 78 81 87 77 76 82 100 88 92 97 98 86 84 76 83 87 94 98 97 95 83 58 57 64 67 84 83 81
93 93 93 93 94 94 93 94 94 94 93 95 94 95 95 94 94 94 82 88 90 83 77 80 76 70 74 62 81 81 64 84 86 95 98 99 98 99 90 88 70 68 72 84 78 80 60 59 59 61 78 83 83 83
94 93 93 94 94 94 93 94 95 96 96 96 97 99 99 96 94 91 92 95 92 96 79 76 78 68 61 70 66 76 93 78 89 85 98 98 87 97 97 97 83 64 68 89 81 62 65 62 74 76 80 82 81 79
96 96 96 96 96 96 96 96 97 97 98 99 99 99 98 99 96 93 92 96 92 98 99 88 69 72 61 65 66 65 74 90 93 94 100 100 93 85 94 78 88 68 69 69 82 69 80 81 83 80 77 76 74 68
98 98 99 98 96 98 98 99 99 99 98 98 98 98 98 98 99 95 97 97 94 80 93 99 77 67 64 67 73 77 81 89 96 99 100 96 97 95 99 98 97 72 65 84 78 62 65 79 84 78 79 78 71 68
97 96 96 96 97 96 96 96 99 99 98 98 97 97 98 97 99 95 94 95 93 96 93 89 90 84 74 70 73 81 84 93 95 97 100 99 89 84 100 98 85 72 63 58 69 71 77 81 78 71 73 72 60 54
97 96 96 96 96 95 96 96 99 98 98 96 96 99 99 98 94 93 82 94 97 93 97 98 99 88 83 87 94 93 94 96 94 100 99 99 96 89 100 97 76 66 61 58 72 79 86 78 79 69 52 51 49 44
95 96 96 95 96 96 96 95 97 99 98 99 97 99 95 99 95 97 98 97 99 96 96 99 98 95 84 99 100 99 100 98 98 98 100 100 99 100 100 94 77 63 59 71 82 76 76 73 66 52 48 40 46 50
95 95 96 96 96 97 96 97 97 98 99 98 98 95 94 98 99 99 99 98 97 90 100 100 98 90 94 99 100 99 99 100 99 100 100 98 100 99 84 81 79 76 75 78 77 71 74 62 50 39 43 51 55 61
95 96 96 96 96 96 94 94 98 99 99 98 94 96 100 100 94 97 94 97 99 100 98 100 99 100 96 100 100 100 100 100 100 99 98 100 99 90 84 79 73 70 68 75 84 81 61 57 56 60 56 57 58 60
94 95 96 96 98 98 98 99 99 98 89 97 100 100 98 91 96 99 99 100 100 100 100 100 99 100 97 99 100 100 100 100 99 95 100 98 96 88 77 80 75 70 62 62 61 62 64 69 72 71 70 71 68 67
93 95 93 94 93 93 94 93 92 97 100 96 97 95 93 94 98 100 100 100 100 99 99 100 100 98 100 97 100 100 99 100 98 95 100 99 86 84 81 68 58 61 66 69 70 77 77 68 64 65 61 60 68 79
94 96 95 93 91 89 90 93 94 96 93 93 94 98 93 99 100 100 98 100 100 99 100 100 100 100 99 99 100 100 100 99 99 100 99 96 84 59 62 65 67 71 81 83 75 68 64 58 58 56 66 67 89 87
93 92 94 94 91 87 87 86 87 86 92 98 100 98 100 99 99 99 98 99 100 100 100 100 100 100 100 100 100 99 99 100 99 99 98 100 98 83 83 80 70 64 77 71 67 63 62 75 82 88 93 94 97 95
86 89 89 92 89 88 87 85 88 91 94 96 95 99 99 99 98 99 100 100 100 99 100 100 100 100 100 99 99 99 98 98 99 99 99 100 98 88 75 67 68 70 86 78 68 70 79 84 88 82 88 92 90 95
84 87 95 87 86 86 86 89 91 92 96 90 92 99 100 99 100 100 100 100 99 100 100 100 100 99 99 99 98 98 98 98 99 100 99 96 89 80 86 75 73 74 71 69 71 72 75 87 88 77 82 94 96 96
76 97 90 87 89 88 87 91 94 89 94 88 99 100 99 98 99 100 100 100 99 100 99 99 98 96 99 98 98 99 98 99 100 98 98 85 77 76 77 78 85 79 77 80 81 80 77 81 91 96 91 80 84 88
99 97 91 88 88 91 92 91 93 92 90 98 97 99 99 100 100 100 100 100 99 99 99 98 97 98 98 98 98 99 99 98 98 93 88 77 73 70 65 68 71 73 73 74 80 78 79 92 87 87 84 85 91 92
97 96 92 90 91 95 91 93 93 95 98 97 98 98 98 100 99 100 100 100 99 98 95 97 95 98 98 98 97 100 99 95 90 80 78 72 72 73 74 73 72 73 75 78 80 90 91 84 90 92 92 95 95 95
92 92 90 87 88 98 89 92 90 93 92 92 97 99 99 98 99 100 100 100 99 98 96 98 98 97 96 96 97 98 98 97 95 95 94 84 82 77 77 82 93 85 90 86 89 94 93 93 93 92 93 96 99 98
89 94 90 92 98 97 97 98 96 97 95 94 99 96 98 98 94 98 100 99 100 99 100 98 99 97 90 92 96 96 89 83 90 92 93 93 91 96 93 91 90 96 96 96 96 92 95 94 90 92 100 98 99 99
98 88 99 98 98 98 99 97 98 94 89 94 97 93 97 97 93 94 97 96 98 97 97 96 91 95 92 85 86 85 82 77 79 91 92 94 94 95 97 98 96 98 97 98 98 98 97 95 94 97 97 97 98 93
91 98 99 99 98 96 95 99 98 86 91 92 98 98 98 98 96 94 87 73 81 93 90 88 82 83 84 89 90 91 93 92 96 96 96 98 98 97 96 96 98 99 97 87 90 95 96 96 90 91 91 94 97 96
93 99 97 98 98 98 100 98 99 99 96 96 98 96 94 95 94 91 95 96 98 98 96 96 95 88 94 93 92 90 91 90 93 93 96 92 92 93 96 96 97 94 90 92 92 92 90 91 90 90 91 92 92 93
98 91 98 100 100 99 99 98 98 98 98 97 96 99 98 96 96 100 97 99 98 98 97 94 92 93 94 96 92 88 85 83 88 94 91 94 99 98 93 88 93 94 89 93 92 92 92 91 91 92 92 92 93 94
100 95 98 99 97 99 96 96 97 96 98 98 97 98 97 96 96 98 97 98 98 98 99 97 99 98 90 89 89 86 87 89 94 98 94 91 92 96 97 97 95 94 89 93 95 94 93 91 92 91 92 91 91 95
98 96 98 98 98 99 98 98 98 98 97 97 98 98 96 99 100 96 96 95 94 97 92 91 88 90 90 92 93 89 90 89 94 86 96 86 86 86 94 98 96 95 89 92 95 95 95 94 93 92 92 89 90 95
98 99 97 97 98 98 98 98 98 97 98 97 95 98 96 94 98 97 94 96 97 90 88 90 90 95 96 95 95 95 90 89 88 92 95 90 91 96 97 98 97 94 94 92 94 93 92 94 94 93 93 94 96 96
98 99 98 97 97 97 97 97 97 98 98 95 93 99 96 90 97 97 96 96 96 93 93 96 98 95 94 95 98 98 97 94 91 100 100 100 100 97 99 98 99 97 92 94 94 89 90 93 94 95 96 96 96 96
92 98 96 96 97 98 99 99 99 98 99 98 94 93 90 97 96 96 97 96 95 97 97 96 98 97 100 100 100 99 99 100 99 99 100 100 100 98 100 99 91 91 94 95 96 90 95 92 91 94 94 95 96 96
98 98 90 92 97 99 99 97 96 93 90 94 97 96 97 98 98 97 97 99 97 97 96 100 100 100 100 100 100 100 100 98 99 99 100 100 100 100 100 98 98 99 97 96 97 96 95 95 96 96 96 96 96 97
96 96 98 98 98 99 92 87 90 85 82 84 98 99 99 99 100 99 98 97 97 100 100 100 100 100 100 99 99 100 100 100 100 100 99 100 100 100 100 99 99 100 98 100 99 97 96 98 98 98 98 97 97 98
98 99 98 99 94 95 98 92 97 95 100 97 97 98 98 97 98 97 98 99 97 100 100 100 100 100 100 100 98 99 100 100 100 100 100 100 97 100 100 100 100 100 100 100 100 99 100 100 99 98 98 98 98 99

GFSWCAN_sfc_rhum_015.txt.gz
RH
92 91 93 95 94 93 93 93 94 94 95 95 95 96 95 95 94 81 93 93 76 90 86 86 78 77 80 80 84 77 76 82 92 83 86 93 98 88 85 75 88 94 97 98 97 95 68 56 60 66 65 77 78 84
92 92 94 94 93 93 93 94 95 95 96 97 98 98 97 96 96 86 86 93 90 83 82 84 80 81 79 62 83 84 68 79 83 93 98 99 98 99 88 86 73 76 68 81 74 74 58 60 64 63 72 80 86 85
92 93 94 94 94 94 94 94 95 96 99 98 98 98 98 99 96 86 95 96 86 94 84 80 81 73 65 72 67 76 92 78 84 84 97 99 84 97 97 96 85 72 69 86 76 58 64 62 61 69 80 80 84 81
93 93 94 94 94 94 95 96 97 99 99 99 98 99 99 98 97 90 97 98 85 92 96 86 77 75 66 70 73 67 81 90 92 93 99 99 88 85 95 81 89 73 74 72 84 71 77 74 73 76 82 84 81 75
95 95 96 96 96 97 97 99 98 99 98 98 98 98 99 96 95 92 97 98 95 73 90 98 80 73 72 75 81 80 79 87 95 99 100 95 96 95 99 97 98 75 67 84 72 63 71 66 77 82 85 82 74 72
98 98 97 97 97 97 99 98 99 98 99 97 98 99 99 95 94 82 78 94 97 94 91 91 92 86 81 85 84 83 90 94 94 97 100 98 86 88 99 98 80 71 66 57 56 62 68 73 83 80 78 79 78 55
96 97 97 97 96 95 95 99 98 98 96 96 99 99 98 92 94 84 70 95 99 91 95 97 99 88 90 91 96 95 97 98 94 100 100 98 96 92 99 98 67 69 68 69 71 82 88 87 87 79 69 61 52 44
96 96 96 97 97 96 95 97 99 98 98 96 98 97 100 96 96 97 99 98 98 91 94 99 98 94 87 99 100 98 100 98 98 98 100 99 98 99 100 88 78 67 64 69 75 78 77 80 73 59 45 42 49 54
97 96 96 97 97 97 96 97 98 99 97 98 94 91 92 97 100 98 97 99 97 88 98 100 92 90 95 99 100 100 98 100 98 100 100 99 100 99 89 83 79 77 79 75 86 82 81 76 59 45 51 64 73 77
98 98 97 97 96 95 97 97 98 99 98 93 92 93 99 100 92 93 92 95 99 99 99 97 98 99 97 100 100 100 100 100 100 99 99 100 99 93 84 81 84 84 77 83 87 91 68 57 64 78 82 82 76 62
95 96 96 96 97 97 98 99 99 94 89 97 98 100 98 90 95 96 98 99 99 100 99 100 99 99 96 99 100 99 100 100 98 96 100 98 98 88 82 75 72 73 74 73 70 69 72 83 92 96 98 82 68 70
94 92 91 91 94 96 96 94 91 96 99 95 97 94 94 94 99 98 99 100 99 99 99 100 100 99 100 97 99 100 100 100 98 95 100 93 92 73 79 86 85 84 87 89 86 89 91 93 94 90 72 68 72 78
96 94 92 92 91 91 94 96 95 93 89 90 93 98 92 99 100 100 99 100 99 99 100 100 100 100 98 98 100 100 100 99 99 100 99 99 80 79 80 83 90 89 93 97 93 92 86 73 68 65 76 69 88 83
92 91 90 89 88 89 88 88 86 86 91 98 100 99 100 99 99 99 99 99 100 100 100 100 100 100 100 100 100 99 99 99 99 99 98 99 99 99 94 90 84 87 89 85 81 71 75 88 87 89 91 94 96 92
91 90 87 89 89 88 89 87 89 87 92 97 93 99 99 98 99 100 100 100 100 100 100 100 100 99 99 99 99 99 98 98 98 98 99 100 100 99 97 98 91 80 89 79 68 74 85 85 87 79 85 89 90 95
85 88 96 92 91 87 89 88 91 90 95 87 92 98 98 98 100 100 100 100 99 100 100 100 99 99 99 99 98 98 98 98 99 100 100 98 93 93 99 97 79 75 75 78 78 79 80 89 89 78 86 92 94 96
88 100 92 88 89 86 86 90 94 91 95 84 99 100 99 99 100 100 100 100 99 100 99 99 97 95 99 98 98 99 98 99 100 100 99 93 98 98 91 82 88 84 82 82 78 74 76 81 94 94 88 78 84 89
98 98 92 88 90 86 91 94 94 90 86 99 98 100 99 100 100 100 100 100 98 99 99 99 96 98 98 98 98 99 100 99 98 97 96 83 77 76 72 71 71 71 71 73 81 79 81 93 88 89 85 85 91 92
94 95 89 88 88 92 94 95 92 95 95 99 99 99 99 99 99 100 100 100 99 98 96 97 94 98 98 98 98 99 100 97 94 86 82 78 76 76 77 75 75 78 80 83 86 94 94 90 94 95 94 94 96 95
88 90 90 88 86 94 88 94 90 91 92 94 98 99 98 99 98 99 100 100 99 98 96 96 96 96 96 95 96 98 98 97 95 95 95 88 88 84 88 92 95 93 94 93 94 97 94 92 90 93 94 98 98 98
90 95 92 92 98 96 96 97 93 98 96 94 99 96 99 98 97 99 100 99 100 98 98 98 99 98 93 95 98 97 90 84 88 94 94 94 97 96 97 96 96 94 98 96 94 90 91 95 95 90 91 89 86 86
96 90 96 91 93 93 96 98 100 97 93 97 98 94 98 98 97 96 97 96 98 97 98 98 94 97 92 92 94 94 89 90 92 95 96 97 98 95 95 98 97 99 95 89 88 90 91 91 93 90 93 93 89 90
89 95 94 90 93 93 93 98 98 88 94 96 99 98 98 98 98 94 96 85 92 97 97 95 90 90 92 86 82 85 88 88 94 95 95 98 96 98 98 91 90 93 92 88 89 92 94 95 90 94 93 91 89 88
89 97 94 94 95 98 97 100 98 99 99 98 98 98 95 97 96 98 95 96 96 91 90 95 94 92 88 86 88 86 84 82 90 93 95 98 97 92 89 88 94 94 89 89 93 97 94 94 95 93 92 93 91 92
93 90 95 100 97 96 100 100 98 99 100 100 97 98 99 97 97 93 99 97 98 97 95 92 91 90 92 94 91 84 80 84 91 92 89 90 93 92 90 86 93 92 89 94 95 95 94 92 92 92 92 92 94 93
94 96 97 99 99 96 98 100 100 98 98 98 97 98 98 97 97 96 95 97 98 97 98 97 96 94 90 87 88 85 80 84 91 93 87 86 89 97 99 99 96 94 90 98 98 98 95 93 93 94 93 91 91 94
99 96 97 98 99 98 98 98 96 98 97 97 97 98 98 97 96 97 95 94 95 97 95 93 89 89 90 87 80 82 88 91 95 93 87 86 86 85 92 100 97 93 90 94 99 100 98 97 96 94 94 92 91 96
97 97 97 96 98 98 98 98 98 97 98 98 97 97 97 96 94 95 94 96 96 94 92 93 94 92 91 90 94 95 88 92 96 95 94 94 95 100 98 99 99 99 97 98 100 99 98 97 97 95 95 96 96 95
98 98 98 97 97 98 98 98 97 98 97 98 97 98 97 90 97 96 95 96 96 95 95 95 97 96 96 96 97 97 97 95 91 100 100 100 100 97 99 100 100 99 99 100 100 97 94 95 96 96 96 98 98 99
92 97 98 98 99 98 98 99 98 98 98 97 93 89 89 97 97 96 97 95 95 96 97 97 99 98 100 100 100 99 99 100 100 100 100 100 99 98 100 100 100 100 100 100 100 94 100 99 100 99 97 97 96 97
99 98 97 94 98 99 98 98 97 98 98 96 97 95 95 98 98 97 97 98 97 97 97 100 100 100 100 100 100 100 100 99 100 100 100 100 100 100 100 100 100 100 100 100 100 100 100 100 100 100 100 100 100 99
96 98 99 99 97 96 96 93 90 87 95 95 98 98 100 98 100 98 98 98 99 100 100 100 100 100 100 100 100 100 100 100 100 100 100 100 100 100 100 100 100 100 100 100 100 100 100 100 100 100 100 100 100 100
99 100 100 100 98 98 98 92 96 100 98 98 99 98 99 97 99 97 98 100 98 100 100 100 100 100 100 99 97 100 100 100 100 100 100 100 100 100 100 100 100 100 100 100 100 100 100 100 100 100 100 100 100 100

GFSWCAN_sfc_rhum_018.txt.gz
RH
92 92 94 94 93 93 94 94 96 95 96 97 98 98 96 91 87 79 95 95 78 94 90 85 77 77 82 80 85 80 78 82 90 80 85 90 95 87 84 72 93 93 98 98 95 90 67 54 60 63 64 72 80 82
93 94 94 93 93 94 94 94 96 97 99 99 99 98 99 96 90 83 82 96 93 87 86 85 82 83 81 62 84 86 70 80 81 90 96 98 98 99 88 82 80 77 71 80 72 73 55 57 67 65 66 63 82 82
94 92 92 94 94 94 94 95 99 98 99 99 98 98 99 98 91 87 95 97 85 94 86 82 84 76 71 77 69 77 90 78 81 82 95 97 82 96 95 95 86 76 68 82 70 54 64 64 60 64 67 72 79 84
93 93 94 94 94 95 97 99 98 99 98 98 98 98 98 95 93 91 97 98 81 90 96 86 79 80 73 78 77 69 81 88 91 92 99 99 86 86 94 82 88 76 73 72 81 70 72 66 73 65 68 80 82 81
94 95 94 95 96 98 99 99 99 97 98 98 99 99 95 92 89 89 97 99 96 66 92 98 83 77 80 83 84 80 76 84 94 98 99 91 96 94 99 98 97 78 68 82 77 55 57 56 58 79 81 82 82 81
96 96 96 97 99 99 99 99 98 98 99 99 99 98 96 93 88 68 73 92 97 92 92 93 92 89 87 87 90 91 93 93 94 94 100 98 87 88 100 99 76 67 66 59 54 61 67 65 81 82 83 88 80 70
97 96 96 96 98 98 99 99 99 96 98 99 98 97 91 89 94 76 70 93 98 92 95 98 97 88 90 92 98 97 97 98 94 99 98 98 99 92 99 98 62 62 68 69 72 82 81 86 82 86 82 64 54 46
97 97 96 96 96 98 99 98 98 97 97 98 97 97 95 96 96 97 99 98 98 87 92 95 96 95 92 100 100 98 100 98 99 98 99 99 97 99 99 90 84 78 77 78 77 80 79 84 76 60 54 48 53 70
97 98 98 97 96 96 98 99 98 96 97 95 90 90 90 97 100 99 96 96 96 86 98 99 88 89 94 99 100 99 98 100 98 100 100 98 100 99 98 94 88 84 89 86 86 86 85 71 53 55 61 74 88 96
98 97 98 97 97 97 97 99 98 98 93 91 90 91 99 100 91 90 88 93 97 99 99 100 96 99 95 100 100 99 100 100 98 100 99 100 100 92 85 86 86 86 84 88 91 85 70 85 91 90 92 91 92 91
96 97 98 97 97 98 98 98 97 89 89 96 99 100 98 89 93 97 99 99 97 98 99 100 99 99 96 99 100 100 99 100 96 93 100 99 98 85 91 95 93 91 88 88 86 87 85 88 95 97 97 95 85 79
92 92 94 96 97 97 95 92 89 96 99 93 96 94 92 94 97 95 100 100 99 99 100 100 100 99 100 97 98 100 99 100 98 97 100 98 90 85 93 92 94 87 85 84 81 86 90 92 94 94 90 87 82 89
89 89 90 90 93 94 94 93 90 89 89 91 92 92 89 98 98 93 99 99 100 100 100 100 100 100 98 98 100 100 100 99 99 99 99 100 98 98 99 99 99 97 93 83 78 77 79 80 81 84 89 85 96 89
90 89 90 91 89 90 92 88 87 85 90 97 100 100 99 97 99 99 99 99 100 100 100 100 100 100 100 100 100 99 100 99 99 99 98 99 100 99 99 98 94 89 91 88 82 80 85 93 94 93 93 94 95 94
91 89 84 90 89 89 86 86 85 86 92 97 93 98 98 99 99 100 100 100 100 100 100 100 100 99 99 99 99 99 97 98 97 97 99 100 100 100 99 92 81 80 87 79 73 79 89 89 89 84 87 89 86 92
85 87 94 91 90 86 85 84 87 86 92 90 95 98 100 98 100 100 100 100 99 99 100 99 99 98 99 99 98 98 97 97 98 99 100 100 99 100 99 90 79 80 83 82 82 81 81 90 90 79 86 91 94 95
88 99 94 90 89 82 84 88 93 90 92 86 99 100 99 100 100 100 100 100 99 100 99 98 97 94 98 98 99 99 97 98 100 100 99 99 99 99 99 96 91 85 81 78 75 77 80 86 94 94 91 87 90 91
98 97 89 89 88 83 92 94 92 86 93 99 98 100 99 100 100 100 100 100 98 98 94 98 95 98 98 97 99 99 100 100 99 98 98 98 92 88 79 75 73 77 81 85 90 91 93 94 96 97 95 94 94 93
93 94 89 88 84 90 94 95 91 91 99 99 99 99 99 99 99 99 100 99 99 99 97 97 94 98 99 98 98 99 100 99 98 91 86 84 82 82 83 85 88 92 94 95 96 98 97 95 97 94 94 92 94 89
86 88 88 87 83 92 88 95 91 90 93 97 98 99 99 99 99 99 99 99 100 98 95 96 95 96 96 96 96 98 99 97 96 96 97 95 97 95 96 96 97 96 97 89 84 83 84 88 81 82 82 82 88 90
93 95 88 91 96 93 96 97 96 98 96 96 99 96 99 98 97 98 99 99 97 98 98 99 99 99 95 97 98 98 92 87 91 95 96 98 98 96 94 94 92 94 94 92 94 86 90 89 84 87 93 94 93 93
96 88 97 91 92 92 98 98 98 98 94 99 98 95 98 98 98 98 98 96 97 95 97 99 97 94 96 96 94 94 93 91 92 95 91 94 98 98 94 90 91 93 91 96 95 97 97 90 90 91 94 94 93 91
91 92 94 89 91 92 98 95 98 92 89 97 99 99 98 99 98 95 98 92 96 94 96 93 93 92 93 93 83 80 82 80 88 93 95 98 93 89 87 91 92 96 96 89 89 92 95 95 91 94 93 92 92 92
84 97 95 91 86 94 95 100 93 97 100 99 99 98 98 99 98 98 97 95 96 91 92 95 92 93 93 85 81 78 80 83 89 93 96 96 92 90 88 88 92 94 87 84 90 95 95 98 98 94 94 94 94 94
87 94 93 94 91 89 99 100 92 94 100 100 100 100 99 97 98 98 91 97 97 97 96 96 95 94 92 94 91 84 80 89 92 91 88 83 90 88 88 84 91 91 91 98 98 99 97 96 97 96 94 95 96 94
94 97 96 99 99 95 99 100 100 97 98 98 98 98 98 98 98 97 95 97 98 97 98 98 96 93 91 90 89 88 81 84 91 92 86 83 86 94 98 99 98 96 94 100 100 100 100 97 97 98 97 95 96 96
100 97 96 92 98 98 98 98 98 98 97 97 97 97 97 97 97 95 95 95 95 96 94 95 95 88 86 84 75 81 91 95 95 90 87 85 86 86 97 100 100 96 94 99 100 100 100 100 99 98 98 94 97 98
97 98 98 96 98 98 98 98 98 98 98 98 98 97 97 96 94 95 94 95 96 93 92 92 89 87 88 90 92 92 96 96 95 94 95 94 96 100 99 100 98 100 100 100 100 100 100 100 98 97 98 98 100 100
98 99 97 98 97 97 98 98 98 98 97 98 98 98 96 89 96 94 94 95 95 94 94 95 96 96 95 95 97 96 95 96 92 98 100 100 100 98 100 100 100 100 100 100 100 100 99 99 100 100 100 100 100 100
95 98 99 99 98 100 99 99 99 98 98 97 93 89 89 97 96 96 96 96 95 97 98 98 98 99 100 100 100 100 100 100 99 99 100 100 100 99 100 100 100 100 100 100 100 98 100 100 100 99 98 99 99 100
99 98 98 97 97 98 98 99 98 98 98 97 97 96 95 98 98 97 97 98 98 98 99 100 100 100 100 100 100 100 100 99 100 100 100 100 100 100 100 100 100 100 100 100 100 100 100 100 100 100 100 100 100 100
97 100 100 99 97 97 99 100 100 91 97 98 99 98 99 97 100 98 99 99 99 100 100 100 100 100 100 100 100 100 100 100 100 100 100 100 100 100 100 100 100 100 100 100 100 100 100 100 100 100 100 100 100 100
99 100 100 100 100 99 100 96 99 100 97 97 99 99 100 98 98 98 98 99 97 98 99 100 100 100 100 100 98 100 100 100 100 100 100 100 100 100 100 100 100 100 100 100 100 100 100 100 100 100 100 100 100 100

GFSWCAN_sfc_rhum_021.txt.gz
RH
94 95 94 94 93 93 94 95 96 96 97 98 97 95 92 88 88 86 95 94 73 92 89 83 71 75 76 76 83 80 76 80 85 88 90 80 91 75 68 58 81 74 91 91 85 78 69 45 51 61 56 55 54 65
94 94 92 92 94 94 95 96 98 99 98 98 99 96 89 84 86 88 87 97 88 85 85 85 80 80 78 62 79 85 69 76 76 86 90 94 100 98 82 75 72 70 68 72 63 65 51 48 58 52 56 53 54 66
93 92 93 94 95 96 98 99 98 97 97 99 99 98 86 82 88 82 93 96 83 94 83 81 82 76 75 79 70 77 84 74 73 74 88 93 93 88 94 86 76 68 61 72 67 52 55 53 49 52 49 55 55 61
93 93 94 95 96 98 99 98 99 98 98 99 99 99 98 91 92 80 87 98 79 89 100 87 76 81 77 80 74 72 78 84 84 81 97 99 97 79 90 75 80 67 67 69 72 62 57 52 57 54 54 59 62 62
94 95 96 98 99 99 98 98 99 99 99 99 94 95 93 92 90 90 96 98 94 67 96 96 82 78 81 81 79 75 73 79 87 93 100 95 89 91 95 92 87 69 65 77 71 50 52 50 44 54 63 63 65 70
96 98 98 99 99 99 99 98 99 99 99 99 99 95 90 90 87 86 73 90 94 90 91 99 89 88 86 85 87 91 88 88 84 85 96 87 84 84 100 89 63 60 59 54 52 55 54 56 54 58 64 68 74 72
97 98 98 98 98 98 98 99 99 99 96 96 93 92 93 93 93 74 69 88 92 90 94 98 98 85 90 90 96 95 94 94 89 98 99 97 97 84 99 91 80 79 73 70 65 69 71 68 71 76 65 53 56 57
97 97 98 98 99 98 98 99 98 97 94 95 95 94 94 94 95 95 98 95 93 80 87 95 97 97 89 99 99 96 99 97 98 97 98 99 97 98 99 88 80 74 74 74 76 77 76 66 55 51 52 64 80 88
97 97 97 97 99 98 99 99 98 95 93 90 91 93 90 96 99 97 94 93 92 82 95 94 91 93 90 99 99 99 96 100 94 100 100 94 100 100 95 91 92 91 91 86 77 60 62 69 70 74 84 91 95 97
97 98 98 97 99 99 99 99 98 92 92 88 88 88 100 100 91 86 86 91 95 100 98 100 92 100 92 100 100 100 100 100 100 98 98 100 100 87 95 95 94 89 85 78 82 89 91 95 95 96 96 96 96 97
98 98 97 97 99 99 98 94 93 89 87 95 99 100 98 89 88 94 99 99 96 98 99 99 98 98 95 99 100 100 100 100 97 92 100 100 98 87 90 94 89 87 87 90 92 95 96 96 96 97 98 95 92 88
93 96 97 98 96 94 94 94 90 95 99 93 96 92 90 91 93 95 100 100 99 98 100 100 100 98 100 95 98 100 100 100 97 95 100 98 96 98 97 96 86 78 79 81 81 85 86 82 79 82 84 84 82 85
93 93 94 94 94 91 90 88 87 88 87 89 90 91 89 98 98 88 99 100 100 100 100 100 100 100 98 98 100 100 100 99 98 100 99 99 99 99 99 98 93 76 78 76 73 76 78 79 81 84 86 84 92 88
87 89 92 92 94 93 92 91 86 84 89 96 96 99 96 100 99 99 100 100 100 100 100 100 100 100 100 100 100 100 100 99 100 98 97 100 100 100 99 99 88 86 90 83 74 72 78 87 86 88 92 92 93 88
88 86 86 93 89 91 89 90 88 87 94 98 96 99 98 100 99 100 100 100 100 100 100 100 100 98 100 99 98 96 96 96 93 93 95 98 99 100 98 89 75 75 88 81 74 80 92 90 86 80 84 85 84 92
86 85 90 93 88 85 81 82 87 86 94 99 99 99 100 99 100 100 100 100 99 100 100 100 99 98 98 98 97 95 95 94 93 98 99 98 99 100 98 84 78 83 81 80 80 77 80 89 91 84 86 90 93 94
84 96 90 90 86 82 81 85 89 84 91 93 99 100 100 100 100 100 100 100 99 100 100 98 97 96 97 96 96 95 96 94 98 99 99 99 98 98 98 96 92 81 78 80 83 87 88 88 93 91 92 84 86 86
99 98 87 86 82 81 92 90 88 86 98 99 98 99 99 100 100 100 100 99 97 98 93 96 91 97 97 98 98 97 98 99 99 95 99 99 99 94 89 76 79 83 88 90 93 88 88 92 88 86 80 75 76 76
94 91 86 85 82 90 93 94 88 94 99 99 99 99 99 99 98 99 100 100 98 95 94 92 93 96 97 93 95 98 97 98 96 92 88 84 84 85 87 88 88 92 92 86 81 81 81 79 78 74 71 73 80 79
84 85 84 84 78 90 88 95 90 84 96 98 98 98 98 98 98 98 99 99 98 95 94 94 92 90 90 90 89 94 95 90 85 89 94 94 87 84 86 84 86 83 76 76 78 78 74 73 70 72 75 78 86 87
87 94 86 89 95 93 93 97 96 97 95 96 98 95 98 96 96 98 98 97 95 97 97 97 99 96 94 94 91 89 88 82 83 86 93 94 87 83 82 84 81 77 81 85 86 84 85 83 77 76 87 91 89 89
97 85 94 87 91 93 94 95 97 98 94 99 97 95 98 97 97 98 98 96 96 95 95 96 95 92 89 90 89 87 88 86 84 84 86 87 91 87 84 80 79 87 83 86 83 90 86 79 81 83 89 91 87 86
87 86 92 88 89 92 97 92 96 92 88 97 96 98 97 97 97 92 97 94 95 92 93 94 94 94 92 92 82 81 75 76 85 89 91 87 84 85 85 82 81 87 85 77 75 79 85 90 84 91 88 89 88 91
80 88 90 94 90 98 96 98 87 90 98 99 99 100 99 99 96 96 89 96 94 90 92 94 93 92 92 90 88 88 83 76 83 86 86 84 86 86 82 82 83 83 78 77 81 88 88 92 95 89 92 94 93 94
85 96 92 95 95 99 99 99 90 82 89 97 100 100 97 95 98 98 94 95 95 95 95 95 95 93 91 92 89 87 89 87 86 86 80 78 84 80 75 69 81 79 82 91 94 96 95 94 93 94 92 94 95 95
98 96 94 95 96 94 99 100 99 95 99 100 99 96 97 96 96 96 91 95 96 95 97 97 96 93 90 90 90 90 86 84 77 83 80 72 74 82 85 86 86 81 84 97 100 100 97 95 96 96 95 92 94 95
98 100 94 90 95 97 97 98 95 98 98 97 97 97 97 96 98 93 92 92 93 94 93 93 92 91 90 89 87 89 89 88 87 82 79 77 77 77 85 91 92 84 88 94 99 100 100 100 100 97 96 93 94 95
94 96 100 96 98 98 100 98 98 99 98 96 97 97 96 94 93 94 91 92 94 90 89 90 90 88 87 88 90 92 92 91 92 90 89 88 89 93 94 92 92 100 99 98 100 100 99 100 99 97 97 98 97 95
98 99 96 99 98 97 98 98 98 97 97 97 97 97 96 89 94 92 90 92 93 92 92 92 94 94 93 90 94 94 93 92 84 92 96 96 96 91 92 96 96 96 99 100 100 99 99 97 97 98 94 96 95 94
96 97 96 100 100 100 98 98 100 98 96 96 92 90 88 94 95 94 93 93 94 97 97 97 97 98 99 98 100 97 99 100 98 96 98 100 97 94 99 100 100 99 100 100 96 95 100 98 96 92 94 94 95 95
99 97 98 100 97 98 99 100 99 98 97 96 97 96 95 96 97 96 95 96 96 97 96 100 99 100 99 100 100 99 97 96 100 100 100 100 100 100 100 100 100 100 100 99 97 99 100 98 98 98 96 96 96 97
98 100 100 99 97 98 97 99 100 98 98 97 98 97 97 97 100 97 97 96 93 94 100 100 100 100 100 100 100 100 100 100 100 100 100 100 100 100 100 100 100 100 100 100 98 98 100 100 99 98 98 98 98 98
99 100 98 100 100 99 98 97 99 100 96 98 99 99 99 97 98 97 96 97 95 93 95 98 98 100 100 100 97 97 99 99 100 100 100 100 100 100 100 100 100 100 100 100 100 100 98 100 97 98 99 100 98 96

GFSWCAN_sfc_rhum_024.txt.gz
RH
90 90 89 91 95 97 97 98 98 95 94 93 94 95 95 91 86 77 77 77 53 68 57 59 49 53 54 48 64 58 56 61 69 92 92 69 90 53 45 36 55 60 80 92 77 97 80 30 38 46 37 36 37 35
90 95 97 96 96 95 95 95 96 96 96 95 95 96 94 90 85 83 70 76 66 56 65 64 66 61 56 42 50 56 50 52 48 68 83 87 97 96 65 59 48 54 47 51 46 44 33 34 34 33 40 41 39 41
97 96 95 95 96 98 99 98 99 98 99 98 97 95 92 88 84 82 71 78 67 78 64 58 62 61 58 62 54 54 62 50 53 57 67 84 100 67 97 64 56 46 44 54 50 29 32 33 32 31 31 35 33 32
94 95 96 98 98 99 99 99 97 97 98 98 96 93 89 84 85 78 65 74 68 74 100 76 57 66 62 59 57 55 56 61 57 54 92 99 98 57 74 54 55 44 48 48 52 39 33 30 31 34 34 37 40 38
97 98 98 98 98 99 98 98 97 98 98 97 94 88 86 86 90 78 81 89 71 54 92 82 66 66 62 57 56 54 54 53 60 82 100 91 68 75 82 73 67 44 43 60 55 42 43 37 36 40 45 45 48 52
98 98 98 97 97 99 99 99 98 98 98 94 91 90 89 87 83 68 65 80 71 63 78 98 70 71 66 63 64 67 60 60 54 64 90 62 65 67 98 70 62 59 57 57 57 53 54 50 47 54 57 52 50 51
98 98 98 98 98 99 98 98 97 97 95 94 91 91 90 90 80 58 62 80 86 71 85 100 88 71 74 68 78 72 72 71 63 82 96 86 76 60 97 78 70 62 57 56 58 60 56 60 61 50 52 55 62 62
98 98 98 98 98 98 98 96 93 95 94 93 93 93 92 93 93 80 77 88 84 56 67 97 95 91 73 95 97 84 94 83 86 93 94 94 88 89 92 76 68 65 62 61 58 55 59 49 50 55 58 67 84 90
97 98 98 98 98 99 99 94 92 93 92 94 94 95 81 89 88 78 93 90 70 60 80 100 100 98 79 93 94 92 84 100 84 100 96 83 99 96 91 84 85 82 81 73 63 58 59 68 81 91 90 90 94 98
98 98 99 99 99 98 95 91 90 90 89 89 78 75 96 95 90 81 66 76 82 86 86 100 84 98 76 99 100 99 99 100 100 97 95 100 98 91 93 91 87 83 70 64 75 93 97 97 95 95 95 90 76 65
98 98 99 98 98 98 96 93 91 85 86 84 96 98 86 85 67 78 92 89 82 100 93 94 87 92 87 94 100 100 100 100 100 87 98 100 96 91 92 90 85 84 90 93 92 90 81 80 88 83 70 70 72 76
96 95 94 94 91 92 92 90 90 86 91 87 87 83 75 74 82 97 100 100 96 96 99 100 99 92 100 87 94 96 100 100 98 82 100 98 95 96 94 88 80 75 70 67 61 62 62 61 63 68 68 66 67 74
94 94 94 94 93 90 89 90 89 86 85 77 80 98 84 99 100 100 100 100 100 100 99 100 100 100 96 90 100 100 100 100 85 98 97 94 98 99 95 72 64 58 61 59 54 52 53 58 63 70 78 72 95 68
90 92 93 94 93 93 90 87 86 82 83 91 100 100 100 100 99 100 100 100 100 100 100 100 100 100 100 100 100 100 100 100 100 100 98 99 99 98 84 77 63 59 87 64 58 59 68 71 71 91 100 97 100 82
86 88 88 92 92 91 89 84 84 73 84 94 93 100 100 100 100 100 100 100 100 99 100 100 100 93 100 100 100 100 100 98 90 89 92 98 98 98 99 73 65 64 89 76 65 72 96 92 81 77 81 75 80 95
81 78 86 91 86 82 80 82 85 90 97 99 100 100 100 100 100 100 100 100 99 100 100 100 100 100 100 100 100 100 98 90 96 98 99 99 100 99 78 64 71 73 68 65 68 71 82 91 92 76 77 77 86 86
76 81 89 89 82 81 79 75 78 83 92 100 100 100 100 100 100 100 100 100 98 100 100 100 100 99 94 96 98 87 99 94 98 100 97 92 95 94 86 87 89 74 70 73 74 73 75 74 77 69 64 55 57 60
84 82 85 84 73 74 77 76 84 83 95 94 96 100 100 100 100 100 100 96 93 88 88 96 80 98 99 98 94 91 94 95 98 98 99 99 99 98 85 64 68 73 77 79 77 68 65 70 61 58 53 53 53 54
81 84 82 82 71 75 79 83 73 91 98 97 98 98 99 100 96 95 99 98 88 80 84 83 97 84 92 82 93 96 98 96 98 95 91 93 90 76 73 76 80 78 70 64 61 59 58 59 59 54 55 55 61 60
79 81 81 81 71 73 88 85 68 78 88 95 94 93 93 94 97 100 100 96 82 85 90 92 88 88 83 78 75 83 84 76 78 86 89 85 74 72 73 71 68 61 60 61 61 63 57 57 54 55 61 63 73 74
76 80 77 78 82 77 86 85 82 84 81 86 86 83 88 93 96 100 98 91 96 92 88 92 96 89 84 78 73 73 79 77 79 81 81 82 71 66 66 64 59 59 65 70 72 68 71 68 61 62 78 83 82 80
83 78 82 79 88 93 86 86 89 79 74 83 84 78 94 99 99 99 90 95 89 89 88 89 90 89 83 82 76 76 76 75 78 80 82 82 85 81 70 64 67 75 72 75 68 77 72 63 69 73 80 85 77 77
76 76 92 94 90 93 95 77 94 83 85 95 88 90 92 94 90 80 91 83 89 85 90 85 88 93 90 91 83 76 71 69 75 80 79 76 71 73 71 69 71 77 73 62 60 65 73 76 72 84 81 81 81 83
71 87 90 89 86 98 92 90 78 78 90 95 94 92 91 91 84 84 84 87 81 76 80 88 82 85 87 88 85 87 88 86 84 86 86 83 84 82 71 69 70 71 66 64 70 77 77 84 82 80 84 84 84 85
87 95 85 92 88 89 94 95 82 75 83 93 93 94 91 88 89 86 87 80 82 88 87 86 87 88 87 90 89 87 89 87 87 86 85 80 77 70 64 62 67 67 71 82 84 84 84 84 84 84 83 84 84 84
96 95 90 91 90 88 94 96 94 90 91 90 92 88 94 92 85 88 76 85 88 88 93 94 93 88 86 85 85 84 87 88 86 84 77 66 66 74 74 75 72 74 73 82 86 87 83 81 83 85 85 80 80 84
97 96 88 80 85 86 93 92 87 90 88 88 90 90 90 86 88 81 77 79 80 85 83 86 84 84 85 85 86 86 84 84 86 79 68 66 68 68 78 83 82 78 73 79 84 86 88 87 86 86 86 82 82 84
86 86 97 96 92 90 93 91 89 89 88 83 87 90 89 90 86 82 80 82 85 81 80 80 78 78 80 83 84 85 85 81 83 79 76 75 75 80 80 80 78 87 86 85 87 86 85 87 88 86 84 86 86 82
90 91 90 95 93 88 90 89 87 84 83 85 92 88 87 78 85 82 80 82 84 83 84 85 89 87 84 81 86 83 82 81 72 72 71 79 81 81 79 82 82 82 83 84 81 82 83 84 85 87 84 87 86 85
93 94 87 94 98 90 94 93 94 94 83 86 80 78 76 84 87 85 85 87 88 92 92 92 92 89 91 86 88 87 88 87 87 86 83 84 85 85 86 85 86 84 86 86 86 82 80 84 83 82 83 84 85 86
90 93 89 92 94 92 95 95 96 92 92 89 91 90 87 87 88 87 86 89 88 89 87 87 88 89 85 85 83 81 84 87 90 88 89 90 88 88 87 87 87 88 87 86 86 86 87 86 85 86 85 85 86 87
90 97 97 92 90 93 91 94 95 91 91 92 93 90 91 90 90 88 90 89 85 85 96 87 85 89 90 88 90 89 97 90 87 90 90 91 90 87 87 86 89 90 88 86 85 86 86 87 88 87 88 86 87 87
94 93 90 92 92 91 93 90 87 90 91 90 92 91 91 89 91 90 88 91 90 90 90 89 88 90 89 88 87 87 92 85 89 96 97 97 96 94 92 88 89 89 88 87 86 86 87 86 87 86 85 87 85 84

GFSWCAN_sfc_rhum_027.txt.gz
RH
79 80 81 81 84 88 89 90 92 92 95 95 94 93 90 87 90 88 63 61 37 44 41 39 25 30 27 34 58 50 51 54 58 78 86 64 82 50 43 29 51 58 74 90 71 98 79 22 26 37 37 27 25 28
80 80 84 89 90 90 93 94 91 95 97 96 93 91 90 90 93 89 62 55 45 41 57 51 56 50 38 27 32 50 35 46 44 51 76 79 96 94 56 52 32 48 40 50 41 44 29 24 24 23 27 32 31 31
88 87 89 92 93 96 97 98 98 97 95 94 93 92 92 95 91 92 57 55 45 62 57 51 53 54 47 50 50 46 50 36 41 46 58 76 100 63 95 58 45 34 33 45 43 22 22 22 22 24 26 29 28 29
91 96 98 98 98 99 99 98 97 96 94 93 94 94 95 94 90 94 56 54 44 63 99 69 50 58 52 47 45 49 45 51 49 48 88 96 97 46 68 48 46 38 36 35 39 29 25 24 26 32 35 36 36 36
98 98 98 98 98 98 99 99 98 98 97 97 96 96 94 91 87 76 57 62 51 41 86 78 58 56 48 46 45 45 49 49 52 76 96 86 57 66 70 61 58 34 34 56 55 40 49 41 39 46 46 48 46 46
98 98 98 98 98 99 99 98 98 98 98 97 96 94 91 87 84 58 69 58 62 46 74 94 62 62 53 47 47 47 46 44 41 59 85 50 52 58 98 64 49 47 47 48 48 49 50 49 46 44 50 50 48 50
98 98 98 98 98 99 99 99 99 98 98 96 94 91 87 83 59 72 47 68 80 52 81 96 86 65 59 53 60 54 52 54 47 63 87 67 59 54 95 70 57 53 50 49 50 51 54 49 51 50 54 58 66 68
98 98 98 96 92 94 98 97 95 93 91 89 89 86 85 91 90 67 70 87 73 50 55 95 95 90 62 84 93 65 83 64 74 80 80 86 71 80 80 63 58 54 52 56 50 46 47 48 53 62 62 64 71 79
98 98 98 94 91 92 92 94 93 92 93 91 89 92 72 71 72 69 94 85 70 66 72 100 100 99 64 79 84 86 69 100 73 100 86 74 93 90 80 70 65 65 64 60 54 56 64 72 76 70 66 70 74 77
98 99 97 95 93 94 91 92 93 94 96 96 63 53 84 88 93 86 67 72 72 72 73 100 74 94 66 94 97 94 96 98 97 94 75 98 95 87 82 75 69 68 60 62 90 96 90 82 75 67 61 54 49 52
94 94 95 96 93 89 89 91 91 90 92 68 85 95 85 85 65 74 87 84 70 94 83 86 76 87 77 93 99 98 100 98 100 86 92 100 93 88 86 80 73 76 72 72 73 74 63 63 62 60 59 63 65 62
93 93 92 93 92 91 87 85 82 74 82 84 81 74 70 66 78 96 100 100 90 93 96 98 97 80 96 75 87 93 99 94 98 71 98 95 94 94 85 81 73 62 61 63 59 58 55 54 54 52 51 58 66 65
93 93 92 91 90 89 92 88 88 86 84 67 71 97 76 98 100 100 100 99 99 100 98 99 100 96 92 84 100 94 100 99 74 99 84 94 95 92 84 71 60 52 53 53 49 46 46 53 61 66 68 71 88 66
91 90 91 92 90 88 87 90 84 74 66 86 100 100 100 100 100 100 100 100 100 100 100 100 100 99 100 100 100 100 100 97 100 100 98 99 98 96 78 62 56 53 84 53 51 56 65 64 74 89 99 98 98 77
86 89 88 91 89 86 85 84 81 79 85 88 88 100 100 100 100 100 100 100 99 98 100 100 98 88 100 100 100 100 100 98 91 96 100 98 98 93 78 64 54 64 88 69 57 75 100 94 73 72 72 65 74 86
74 72 81 90 84 83 80 75 68 71 89 91 98 100 100 100 100 100 100 100 99 100 100 94 100 100 100 100 100 100 99 93 99 96 99 97 98 96 78 61 60 65 64 62 66 73 82 87 91 69 63 61 90 81
69 71 88 86 80 75 76 72 82 84 97 100 100 100 100 100 100 100 100 100 98 100 100 100 100 100 94 99 99 96 100 96 99 97 97 97 96 87 66 78 91 73 66 67 68 69 69 64 64 56 53 49 48 50
73 66 84 81 68 64 65 65 80 77 98 96 97 100 100 100 100 100 99 95 96 97 98 99 86 100 100 100 95 91 96 100 95 95 89 93 90 91 87 68 61 62 69 69 66 59 58 62 52 50 47 45 43 44
74 76 83 82 66 66 74 74 67 88 98 98 99 98 98 99 92 89 98 93 79 75 78 78 97 96 99 96 97 95 99 100 98 96 99 99 98 89 69 71 72 69 65 61 56 53 52 52 52 47 48 46 55 55
76 79 81 78 64 66 78 75 57 72 86 94 91 90 85 86 94 100 100 92 73 73 90 90 95 96 96 91 85 89 87 87 86 93 91 89 91 85 78 74 65 62 57 56 57 60 52 52 47 48 55 58 69 70
63 65 72 64 66 66 79 74 70 71 67 75 73 70 77 83 93 100 100 83 93 88 90 94 97 92 75 73 74 80 90 79 74 69 75 78 72 67 63 59 58 58 62 67 69 65 66 61 55 56 73 79 78 75
63 74 77 76 85 90 79 75 67 62 64 70 71 64 87 99 98 96 81 89 87 86 85 89 86 93 85 86 82 86 96 98 96 94 88 77 76 79 79 80 78 76 70 70 64 74 68 59 65 70 77 81 71 71
70 67 88 95 95 96 98 70 90 72 86 88 77 78 85 88 80 66 89 78 79 71 77 75 78 82 84 89 86 87 87 81 81 86 87 87 87 88 86 81 79 82 72 59 56 62 70 71 69 79 76 75 75 78
68 94 97 96 90 98 92 88 65 70 81 86 81 84 82 83 76 79 85 79 74 66 70 76 70 74 76 77 76 81 86 85 87 89 90 87 87 86 79 73 66 67 63 61 66 74 73 79 76 74 77 78 76 78
86 96 95 88 91 87 88 89 84 76 82 86 81 83 85 82 88 82 83 80 84 84 83 82 74 76 78 83 84 85 88 85 84 84 87 85 85 79 68 60 63 64 67 79 80 80 80 78 78 78 76 77 75 76
90 94 88 89 87 85 85 82 85 85 83 83 87 82 89 88 77 82 75 86 89 85 91 90 90 80 75 74 75 75 78 76 76 80 81 70 67 73 72 71 69 74 69 78 82 82 78 76 78 76 78 73 72 78
89 93 83 71 76 76 86 84 78 77 80 82 83 81 84 78 81 84 78 80 83 84 77 79 74 74 74 73 72 76 76 74 77 70 62 60 63 64 75 81 79 75 68 74 79 80 82 81 80 78 79 77 76 79
82 83 90 92 84 79 85 82 80 79 80 73 77 81 83 87 86 82 79 80 80 72 72 73 73 72 75 78 82 82 77 72 77 70 68 68 66 71 72 73 74 71 77 76 80 81 80 81 81 80 80 81 81 78
86 86 82 91 85 83 82 79 78 74 71 75 88 86 83 74 84 82 77 79 80 82 82 82 86 83 78 73 78 76 78 78 72 67 66 74 75 77 72 74 74 74 76 77 72 74 74 81 81 82 81 83 81 80
85 88 82 85 85 77 87 85 91 90 77 82 74 71 72 82 85 81 82 83 84 89 89 87 86 83 82 79 80 79 81 81 81 82 81 81 81 78 78 77 78 78 79 80 80 76 74 76 77 78 80 79 80 82
81 83 80 81 81 86 92 96 95 87 87 86 88 88 84 86 85 82 80 83 82 84 84 80 80 79 78 79 80 78 80 81 78 75 80 82 80 79 79 78 80 81 81 81 81 81 81 82 81 80 79 79 78 80
87 92 85 78 83 89 90 86 87 93 89 88 88 86 88 87 84 85 86 89 85 82 89 77 79 82 80 78 80 80 90 81 77 77 77 81 82 80 79 78 80 81 81 81 81 81 80 81 83 81 81 80 79 79
84 86 80 80 81 76 86 88 80 81 82 83 85 84 86 88 87 87 81 83 86 85 84 84 83 82 80 80 79 82 81 72 71 79 81 83 89 88 88 83 81 80 80 82 81 81 80 79 81 80 80 78 78 78

GFSWCAN_sfc_rhum_030.txt.gz
RH
76 76 76 78 81 81 82 83 84 86 86 89 90 90 91 90 85 89 90 90 99 94 41 34 27 31 35 44 70 55 54 54 71 87 92 80 94 62 48 33 63 73 87 96 86 100 90 22 25 40 45 38 33 33
77 77 76 77 80 83 83 85 87 88 86 89 91 92 90 87 86 92 95 88 89 98 61 57 54 48 43 36 51 57 47 49 51 60 80 88 98 98 75 68 26 56 48 66 60 66 36 25 29 25 31 35 36 38
80 81 82 83 83 85 86 90 89 87 89 92 95 93 93 92 91 88 93 92 96 71 59 50 56 54 50 53 56 61 55 39 46 46 72 84 99 78 98 77 57 33 32 55 50 26 24 24 22 24 30 39 36 37
80 81 81 81 88 89 89 89 90 89 94 95 94 92 94 93 89 89 95 91 82 62 99 76 48 56 48 45 46 50 46 53 57 63 94 99 100 51 87 56 61 42 38 38 40 31 30 29 41 45 44 46 46 44
86 86 88 89 88 92 91 92 93 94 94 95 96 94 92 91 94 96 93 81 70 45 88 82 57 51 45 46 46 47 54 57 65 83 100 94 68 81 82 73 77 35 37 69 71 49 52 52 48 46 50 49 48 48
91 93 92 93 92 93 95 97 97 96 96 96 94 94 93 94 97 97 92 58 62 48 82 98 64 57 47 45 46 50 51 53 52 71 91 62 53 74 99 86 45 45 44 46 51 49 50 50 48 52 64 62 59 59
99 99 99 99 98 98 98 98 98 97 96 95 96 95 95 95 93 94 73 82 87 66 84 100 94 65 51 53 61 54 49 52 52 68 89 75 64 65 100 88 53 49 46 47 47 50 58 49 60 58 62 64 66 64
97 98 98 98 98 98 98 98 98 98 97 96 96 95 94 93 93 88 81 83 83 53 70 98 100 91 61 85 91 69 80 67 72 78 80 90 78 94 92 59 53 51 51 51 48 46 56 59 59 61 59 60 65 69
93 92 94 95 98 98 98 98 98 96 96 94 92 92 84 79 88 69 92 90 75 71 88 100 100 100 64 84 92 88 72 99 76 98 86 78 94 92 69 62 60 59 59 60 61 60 62 66 65 62 60 62 68 69
94 90 90 92 92 92 96 95 94 94 90 88 77 63 98 91 94 83 66 73 83 81 77 100 82 99 75 99 100 98 99 99 98 96 76 100 97 77 69 64 62 62 58 67 81 83 74 70 66 60 54 59 65 65
94 92 91 91 86 91 92 93 92 88 87 73 86 96 81 91 76 74 96 90 81 96 79 85 78 92 81 97 100 98 98 99 99 90 94 98 90 87 74 71 69 67 63 67 68 64 63 60 60 69 66 62 64 71
92 92 90 91 91 86 86 89 92 70 73 81 80 82 82 87 92 97 100 100 99 98 96 97 93 81 94 72 87 93 97 96 99 79 100 95 92 84 79 75 68 62 61 61 58 60 59 56 56 55 59 69 79 88
89 90 91 89 89 89 87 88 87 84 86 74 83 97 91 99 100 100 100 100 99 99 99 98 100 100 93 80 100 94 100 100 79 100 83 94 92 85 78 68 62 55 58 57 55 53 54 66 71 77 86 90 87 82
90 86 88 89 87 86 86 86 84 68 67 91 100 100 100 100 100 100 100 100 100 100 100 100 100 100 100 100 100 100 100 94 100 98 93 99 96 89 76 66 60 59 81 57 55 63 78 84 90 95 98 94 89 76
83 84 80 85 84 83 81 83 79 68 80 90 93 100 100 100 100 100 100 100 99 98 100 98 99 92 100 100 100 99 100 98 94 96 99 99 97 92 74 64 67 80 92 73 67 88 97 91 81 78 73 72 78 90
72 74 82 88 83 82 76 72 84 88 96 97 99 100 100 100 100 100 100 100 99 100 100 98 100 100 100 100 100 100 96 95 100 98 98 97 98 93 79 70 70 68 73 74 80 84 86 86 83 71 66 67 91 87
67 68 89 86 81 73 76 70 81 88 99 100 100 100 100 100 100 100 100 100 100 100 100 100 100 100 91 99 97 100 100 100 97 99 98 97 96 97 82 85 87 78 72 76 78 78 76 69 71 62 60 53 52 58
67 62 86 85 69 61 62 72 91 92 99 99 99 100 100 100 100 100 100 99 99 100 100 100 100 100 100 100 100 100 100 99 98 98 98 96 92 84 76 78 68 67 76 76 72 67 63 71 59 57 51 47 48 52
71 72 83 80 65 64 76 77 71 95 100 100 100 99 99 98 92 94 100 96 84 85 96 100 98 95 98 98 100 100 100 99 99 99 98 99 98 98 88 81 78 76 74 69 66 63 58 55 54 51 54 52 62 63
71 74 80 72 60 71 76 77 65 81 93 97 93 88 84 86 94 100 100 94 80 81 86 93 95 96 97 97 98 99 99 91 94 97 99 99 97 88 92 89 74 68 64 62 63 67 57 59 52 53 63 65 74 76
57 61 71 62 67 67 78 74 72 74 73 80 75 76 81 90 97 100 99 82 88 93 92 94 97 95 91 86 95 97 98 98 100 98 87 96 94 87 80 72 76 81 86 87 78 71 75 67 62 62 80 85 85 82
57 71 79 81 87 88 78 78 74 68 74 76 75 70 88 98 98 97 82 84 82 89 91 88 88 84 82 85 87 94 98 96 95 95 97 94 94 94 93 92 88 91 89 87 76 80 74 65 72 74 81 85 79 78
67 68 92 96 93 94 93 67 86 68 78 78 73 72 81 84 79 67 87 78 86 83 90 90 82 79 87 85 81 85 87 89 89 91 92 92 91 92 92 91 93 94 89 68 61 69 77 74 76 82 80 80 80 84
70 97 98 95 91 94 98 82 60 66 74 77 78 79 83 83 74 74 85 86 83 72 77 79 78 92 72 72 77 81 89 88 87 88 90 88 89 91 90 89 85 77 69 67 72 78 76 82 80 76 84 83 83 85
88 92 96 86 92 83 80 78 78 70 79 79 85 85 85 78 80 79 85 89 85 87 84 85 74 78 85 85 83 83 84 82 87 87 90 89 88 88 79 68 68 69 71 82 83 81 82 83 83 82 78 82 79 81
90 90 81 80 81 79 74 76 77 81 74 81 81 80 88 84 80 90 82 90 92 90 94 92 90 80 77 76 77 80 81 82 76 81 76 68 72 79 76 76 80 84 73 81 83 82 80 80 82 80 82 77 79 85
86 86 77 69 74 74 81 78 75 79 81 85 87 86 81 85 89 87 78 80 82 88 81 82 76 76 78 78 77 78 71 69 72 65 62 63 66 68 78 84 85 81 70 76 80 83 84 84 84 84 84 84 84 88
81 84 86 84 80 77 76 77 82 90 88 74 78 87 90 91 90 88 86 81 83 73 72 75 73 74 78 80 80 80 77 76 80 73 74 71 68 74 75 76 80 75 77 81 79 82 81 83 86 86 88 89 89 86
84 85 77 94 75 75 82 87 88 86 75 76 89 90 88 79 88 88 81 84 88 90 88 88 90 88 82 75 79 76 79 80 77 77 74 79 80 87 78 76 76 76 78 79 80 80 78 84 83 86 83 83 84 86
82 80 75 78 84 82 95 93 93 92 79 81 74 72 77 86 89 84 84 84 87 91 91 89 87 83 84 84 80 84 84 83 85 85 86 86 85 82 83 82 82 81 83 83 83 79 80 80 80 83 86 88 84 87
74 77 73 73 80 93 94 89 92 88 87 88 88 88 85 87 88 83 83 89 82 86 89 87 83 82 82 84 85 85 88 86 82 75 78 81 80 83 85 86 83 84 83 84 84 83 85 85 83 84 84 84 84 85
78 81 81 75 90 88 79 87 86 93 92 90 88 84 88 91 88 87 87 90 87 85 88 83 86 88 82 82 81 81 86 81 79 82 77 84 84 85 86 85 87 86 86 85 82 84 86 85 85 84 85 85 87 86
73 75 74 72 73 80 86 82 72 84 82 85 84 84 87 88 89 89 80 82 86 88 89 87 86 85 79 78 75 78 77 73 77 84 91 91 88 86 85 85 88 87 87 88 86 85 85 83 85 84 83 88 86 87

GFSWCAN_sfc_rhum_033.txt.gz
RH
74 75 77 79 80 81 78 84 82 83 87 84 84 88 88 85 84 85 91 91 99 99 83 71 45 48 54 71 82 77 90 81 89 91 92 91 92 73 70 66 77 80 94 97 97 98 84 38 36 44 63 52 44 45
78 78 78 80 83 82 83 83 87 88 89 88 90 90 88 87 87 86 94 85 89 99 96 87 74 76 58 57 76 75 70 74 80 88 97 98 99 98 76 81 57 79 81 87 78 84 62 40 38 44 44 52 58 60
77 78 78 83 85 85 85 87 88 89 89 90 90 89 86 88 88 86 89 90 96 98 94 96 86 69 59 63 66 82 77 62 67 84 97 99 98 92 92 87 71 55 48 68 58 48 45 42 56 57 59 64 60 57
80 80 80 80 82 85 87 88 90 91 90 91 91 90 88 88 88 87 92 89 99 98 100 94 64 71 56 60 57 64 62 76 81 93 99 100 99 78 93 72 75 64 52 52 56 51 67 64 64 60 60 60 59 58
83 83 84 85 86 86 89 91 90 90 88 91 91 92 91 90 88 93 93 92 96 99 100 97 71 62 58 66 64 64 71 79 93 90 99 96 92 89 90 85 77 56 57 74 85 70 70 72 66 64 68 67 64 65
87 88 88 88 86 88 89 90 90 92 92 91 91 92 91 94 95 96 96 94 96 98 99 100 82 74 63 68 66 68 73 74 87 93 99 90 75 87 96 94 65 62 63 67 73 64 67 72 70 68 72 70 68 70
86 85 86 88 85 86 87 88 90 93 93 96 93 91 93 96 95 94 94 97 97 99 98 100 98 82 73 78 92 84 77 90 90 94 97 89 84 95 100 94 68 61 61 59 59 62 74 72 80 71 72 72 74 75
93 92 89 89 90 90 91 92 94 96 96 96 96 95 96 97 95 95 95 95 97 92 92 100 100 96 75 95 99 96 97 93 94 96 96 96 95 98 94 76 64 61 59 66 70 67 70 68 68 70 68 72 77 76
99 99 98 97 95 92 92 95 96 96 96 96 96 96 95 98 98 94 91 89 95 87 99 100 100 100 85 97 98 95 95 100 92 100 98 91 99 98 84 76 74 70 72 75 70 69 70 74 72 70 75 76 76 79
95 98 98 98 98 98 98 98 97 96 96 94 93 98 100 99 93 87 87 88 92 95 95 100 96 100 86 100 100 100 100 100 99 98 92 100 100 82 81 80 78 78 68 71 85 89 82 80 77 68 72 72 72 74
91 92 95 97 98 98 98 97 95 94 93 94 98 100 99 96 93 90 98 94 96 99 96 96 96 99 92 99 100 100 100 99 98 97 97 99 99 93 83 83 78 80 71 73 71 70 68 69 74 76 77 84 89 96
89 91 92 92 94 96 96 95 92 92 96 91 92 97 96 96 97 98 99 99 97 100 99 100 99 95 99 92 99 99 98 96 96 90 98 94 98 87 83 82 77 73 68 68 65 65 67 66 67 75 82 91 96 98
87 87 91 91 87 86 88 91 93 87 91 85 88 97 95 99 98 97 99 97 99 100 100 100 100 100 96 93 100 98 100 99 95 92 89 99 95 87 82 73 70 65 66 67 70 76 80 83 86 90 95 92 89 87
83 80 84 88 88 85 83 83 85 79 82 97 100 98 100 99 99 99 99 100 100 100 100 100 100 100 100 100 100 92 100 98 100 99 96 99 96 90 80 74 69 71 76 76 79 85 92 92 95 91 90 90 89 87
79 80 79 84 84 86 83 84 79 81 92 98 94 99 99 100 99 100 100 100 99 100 100 100 100 96 100 98 100 98 99 91 95 98 100 99 95 88 82 75 79 82 84 84 85 91 93 88 82 84 85 82 83 90
72 73 80 88 79 80 82 83 89 90 98 98 98 98 99 99 99 99 99 100 99 100 100 100 100 99 99 99 99 99 97 99 100 100 99 97 96 88 78 78 80 81 85 91 93 93 90 86 81 78 84 81 90 85
75 85 87 86 80 69 76 87 92 98 99 98 99 100 100 99 100 100 100 100 99 100 100 100 97 99 99 99 99 99 99 100 97 100 99 98 98 96 82 86 90 85 90 90 90 85 79 76 79 77 68 70 76 70
86 78 84 83 76 74 82 87 96 98 98 99 99 99 99 100 100 100 100 100 100 100 100 99 99 99 98 98 98 99 99 99 99 99 99 98 98 95 92 96 94 83 86 83 80 79 77 81 72 72 66 66 72 71
80 81 78 76 74 85 88 88 87 98 99 100 100 100 100 100 100 98 99 96 95 96 98 98 95 97 98 98 98 99 100 100 99 99 99 99 98 98 98 97 90 84 79 78 78 72 68 68 72 71 73 80 88 88
70 75 81 70 74 89 84 90 86 96 98 100 100 99 99 99 99 100 90 86 87 91 94 96 97 98 98 97 97 98 99 99 99 98 99 99 98 98 98 98 87 75 73 75 78 77 70 71 69 76 85 90 95 96
78 77 82 85 90 86 94 96 92 95 98 99 97 96 98 97 92 91 92 81 84 97 95 96 98 97 97 97 96 98 96 96 98 99 99 99 99 98 97 98 96 97 95 95 95 94 88 87 81 82 97 99 96 97
80 79 98 92 94 90 92 88 94 91 93 95 94 94 96 96 97 96 92 90 95 97 97 96 94 88 87 91 92 94 97 96 96 94 96 96 95 95 96 95 92 95 94 96 94 95 91 84 88 94 97 96 96 97
81 91 97 90 87 87 94 93 88 82 90 88 91 88 94 95 96 93 96 90 94 96 96 97 86 82 84 81 80 86 89 88 92 94 94 94 94 95 94 94 95 95 95 94 91 88 90 89 92 96 97 96 96 98
85 95 98 98 90 92 95 88 90 74 74 86 89 87 86 95 95 92 96 96 93 82 88 90 94 85 80 81 88 91 93 86 90 93 95 94 93 94 93 92 93 94 94 86 87 94 94 97 94 96 96 97 99 97
83 93 90 91 90 87 88 83 86 85 94 91 92 93 87 96 94 95 96 96 96 96 94 94 84 86 93 94 91 90 91 90 92 92 93 95 95 94 93 90 86 84 87 94 96 96 98 98 98 96 95 100 96 97
90 90 83 80 82 80 85 88 90 92 90 93 86 90 94 94 95 98 93 96 99 97 97 96 97 92 91 88 90 91 92 93 84 90 85 82 88 94 94 96 96 94 92 98 99 100 98 98 99 99 100 94 98 98
84 84 91 86 91 90 94 92 90 93 96 99 98 95 95 97 99 96 95 96 97 98 92 93 92 92 94 94 92 93 90 86 87 80 80 80 83 86 93 98 99 96 96 96 98 99 100 100 100 100 100 98 99 99
90 87 90 85 86 83 83 89 93 98 98 92 94 97 98 97 98 97 96 97 98 87 87 88 86 88 92 92 89 90 91 92 94 94 93 93 93 94 94 97 95 95 96 97 96 98 100 100 100 100 100 100 100 100
91 88 92 96 91 80 97 98 98 95 89 91 98 98 98 93 96 96 96 95 92 92 95 96 97 97 96 95 94 93 91 92 90 93 98 100 99 98 96 97 97 97 98 97 98 92 92 95 98 99 100 99 97 99
86 87 90 90 94 98 98 98 98 98 93 95 91 84 90 98 96 94 93 94 96 98 98 96 94 92 96 96 98 98 98 98 97 99 100 100 100 97 98 98 98 99 100 100 100 98 98 99 100 99 99 99 99 100
77 87 88 91 97 100 98 98 97 96 93 94 94 96 96 98 99 95 94 96 95 94 95 95 96 96 98 99 100 100 100 99 98 95 97 100 100 100 97 98 97 97 100 98 99 100 100 100 100 100 100 100 100 100
91 88 95 96 99 92 81 94 95 98 97 98 99 97 100 98 99 99 95 94 93 94 97 97 99 99 99 98 98 100 98 99 99 97 98 100 100 100 100 100 100 98 95 95 96 98 99 100 100 99 100 100 100 100
90 90 89 90 92 97 96 94 95 97 96 98 99 98 98 97 99 99 98 97 98 100 100 99 98 98 97 96 93 96 95 95 95 98 93 98 100 100 100 100 100 100 100 100 100 100 100 99 97 98 100 100 100 100

GFSWCAN_sfc_rhum_036.txt.gz
RH
76 76 78 78 79 80 82 81 82 82 86 86 85 83 81 82 83 91 91 97 96 98 94 94 61 58 50 58 85 84 85 85 95 91 91 92 86 75 80 68 71 69 89 93 96 93 69 50 38 44 53 60 54 58
76 77 80 82 82 82 79 81 89 92 87 82 85 84 84 83 85 83 97 95 94 98 94 88 84 79 75 46 83 89 66 76 85 89 97 97 93 95 82 90 69 71 67 79 76 77 58 48 51 55 56 64 71 77
78 81 82 81 83 81 85 88 90 90 88 91 90 88 86 84 83 83 98 96 93 95 93 96 88 76 72 58 65 82 88 71 81 80 96 97 81 90 88 86 75 62 67 76 69 69 75 76 68 69 70 69 66 66
80 82 85 85 85 82 83 87 86 87 90 90 88 90 88 84 87 84 97 97 90 96 100 93 80 78 69 73 63 64 69 79 84 88 99 100 91 78 90 69 71 66 58 61 82 83 72 72 71 68 68 66 67 65
82 83 86 87 87 87 89 91 92 91 89 92 91 90 90 90 90 94 97 96 96 99 100 97 80 76 77 84 74 72 71 82 90 87 98 91 92 90 92 84 80 61 60 72 78 68 77 82 77 71 72 72 70 73
84 84 84 84 88 89 91 94 93 93 92 92 92 91 91 91 90 95 96 94 91 94 100 100 94 90 83 83 94 78 89 92 92 85 99 92 84 83 89 92 72 72 73 70 81 74 78 78 74 71 77 76 75 78
87 87 87 88 90 93 93 92 90 91 90 92 93 93 92 92 95 92 92 95 87 95 99 99 98 96 88 90 97 97 96 98 96 97 98 90 91 91 98 92 75 73 72 73 72 73 84 78 87 78 80 80 80 81
87 88 88 90 91 91 90 91 92 92 92 93 92 93 93 93 89 94 96 99 97 95 97 100 99 100 84 98 99 98 98 98 98 98 98 96 98 97 94 82 75 76 76 76 78 74 77 75 75 79 76 76 82 89
88 85 87 88 88 87 87 87 91 92 92 95 92 93 97 99 97 91 97 99 99 98 100 100 100 100 90 99 99 97 97 100 96 100 100 93 99 99 90 83 78 77 80 82 77 76 76 80 81 81 78 79 88 89
94 92 90 88 87 90 89 89 92 93 94 96 96 98 100 100 98 92 96 100 99 98 94 100 98 100 93 99 99 100 100 100 98 98 95 99 100 90 94 92 82 79 75 76 90 94 87 88 86 81 81 82 83 87
98 98 97 95 92 92 92 94 96 97 97 97 99 100 100 98 98 99 100 98 97 99 98 98 98 99 96 99 100 100 100 99 98 97 96 100 99 93 91 92 91 81 75 78 72 76 73 75 79 83 85 88 93 93
97 98 98 96 96 95 94 93 95 96 98 97 97 98 98 96 97 96 99 97 97 100 98 100 100 97 99 92 99 98 97 96 98 93 99 98 99 94 93 91 86 79 72 71 70 73 73 72 76 81 89 97 93 92
93 96 98 97 96 96 96 95 95 98 90 89 94 97 90 97 97 95 99 98 99 100 100 100 100 100 96 94 100 96 96 97 95 95 93 99 97 91 86 80 75 72 76 77 78 78 82 86 87 90 91 89 91 88
86 88 90 92 94 94 92 89 89 88 86 96 95 98 99 99 99 100 100 99 100 100 100 100 100 100 100 100 100 94 100 97 99 100 96 99 96 93 81 78 76 80 86 85 84 87 92 94 94 91 87 87 87 83
78 80 82 89 88 85 83 83 82 83 94 98 96 99 99 100 99 100 100 100 99 99 100 100 100 97 100 99 99 98 98 93 98 98 100 99 96 88 84 79 82 86 89 89 86 90 92 86 83 85 83 81 86 89
79 74 78 87 86 85 86 83 89 91 98 95 98 99 99 99 98 99 99 100 99 100 100 99 99 97 99 98 98 98 90 99 99 99 100 97 89 85 81 82 83 84 86 88 88 85 84 85 82 78 76 78 90 89
79 85 82 86 78 77 83 88 92 98 95 97 99 100 100 100 100 100 100 100 99 100 100 99 97 100 99 98 98 99 99 99 99 100 99 96 91 94 97 96 96 98 97 98 97 85 81 76 83 80 74 70 70 78
92 91 84 80 78 77 86 91 95 94 98 99 99 99 100 100 99 99 100 99 99 100 99 99 98 96 97 97 97 98 99 99 100 100 99 98 98 98 97 97 99 97 98 89 82 79 74 78 68 72 74 72 73 78
84 80 81 81 79 84 88 92 89 98 99 100 99 99 100 99 98 95 98 99 98 95 97 97 95 96 97 97 97 97 99 99 99 99 99 98 98 98 98 98 98 98 97 83 78 78 75 71 73 75 81 80 89 93
77 80 84 81 76 88 86 92 88 96 98 99 100 98 98 99 96 86 83 83 84 88 92 95 96 97 97 96 97 97 97 99 99 99 98 99 99 98 98 96 95 95 88 77 73 76 77 82 78 83 84 83 93 99
81 86 85 86 91 86 95 97 97 99 99 98 98 97 98 92 81 86 90 81 80 95 94 96 97 96 96 95 95 96 95 95 94 98 99 97 97 96 95 96 96 95 94 93 94 94 94 94 89 86 93 95 97 99
92 84 95 85 88 84 88 88 95 96 92 97 94 95 97 98 98 97 92 90 94 96 96 95 92 87 86 90 93 94 95 90 93 93 93 89 93 94 94 94 93 95 95 96 94 95 94 91 86 92 95 96 94 96
83 87 91 84 84 83 88 91 85 83 91 92 91 90 96 97 98 91 96 89 94 93 95 85 83 82 86 83 80 84 86 86 90 93 94 94 94 94 94 94 95 95 95 94 94 94 95 88 92 94 93 94 96 98
80 91 96 97 90 100 90 90 88 70 83 88 93 89 91 98 95 94 98 97 92 85 87 89 85 83 78 80 88 90 92 84 89 91 94 92 92 94 92 93 93 94 93 92 90 93 93 96 93 91 94 99 100 100
82 91 86 89 90 85 89 89 90 92 94 96 95 93 90 95 95 98 98 97 95 96 94 92 86 88 92 93 91 91 92 86 91 92 93 94 94 93 92 90 90 90 88 94 96 96 97 97 99 100 99 100 100 100
89 96 87 81 84 84 89 93 91 94 97 94 92 94 97 94 95 99 94 97 98 97 98 98 97 93 92 89 89 91 93 89 82 89 90 86 90 95 96 96 94 93 94 97 98 100 100 100 100 100 100 100 100 100
85 97 92 92 96 92 94 94 93 95 100 100 100 98 96 98 100 96 95 97 96 98 96 96 91 92 93 92 92 94 94 92 88 87 85 86 86 86 93 97 97 95 98 98 100 100 100 100 100 100 100 100 100 100
92 90 92 87 88 92 86 95 99 99 100 95 96 100 98 99 98 97 96 96 96 93 91 90 90 89 90 88 89 91 94 97 94 94 90 91 91 91 96 97 98 100 100 100 100 100 100 100 100 100 100 100 100 99
88 94 91 95 95 97 98 98 99 99 92 96 98 98 99 92 96 96 95 96 95 93 94 95 96 95 94 94 94 93 90 91 92 100 100 100 100 97 96 96 96 98 100 100 100 97 99 99 100 100 100 100 100 100
89 95 94 97 99 100 98 98 100 99 96 96 91 86 90 97 96 95 95 95 96 96 97 97 97 94 99 100 100 98 99 97 93 96 100 100 100 99 100 100 100 100 98 99 100 98 100 100 100 100 99 100 100 100
93 94 94 99 99 98 98 98 98 95 98 98 97 97 99 98 98 96 95 97 95 96 95 97 98 100 99 100 100 100 100 99 100 99 100 100 100 100 100 100 100 100 100 100 100 100 100 100 100 100 100 100 100 100
96 97 98 99 98 97 97 100 98 98 98 99 100 100 100 98 100 98 98 98 96 97 98 99 100 99 100 100 100 100 99 100 99 100 100 100 100 100 100 100 100 100 100 100 100 100 100 100 100 100 99 99 100 100
96 96 97 97 97 98 99 96 97 97 98 98 99 99 99 97 99 98 98 98 98 100 100 100 100 100 98 99 100 100 100 100 100 100 100 100 100 100 100 100 100 100 100 100 100 100 100 100 100 100 100 100 100 100

GFSWCAN_sfc_rhum_039.txt.gz
RH
89 90 90 90 87 83 80 79 80 79 77 77 80 81 82 80 79 96 94 92 97 97 91 88 89 73 69 59 68 82 80 90 94 88 93 90 89 78 77 67 68 74 89 91 93 82 68 51 45 40 49 64 58 58
78 78 80 80 80 79 79 79 79 80 80 81 81 82 82 83 83 86 96 89 95 96 93 84 83 82 85 58 54 90 71 82 82 88 97 98 94 95 83 88 72 63 70 80 72 72 57 64 47 59 61 60 67 68
81 81 81 81 81 80 80 79 80 81 82 82 82 83 83 81 82 86 94 95 95 98 93 91 95 79 80 80 76 76 88 77 84 87 96 97 86 90 88 89 81 68 68 73 69 74 80 80 79 76 74 76 75 77
83 83 84 84 84 85 86 86 87 86 84 86 85 84 82 82 84 86 94 96 91 95 100 90 79 89 83 82 82 69 67 91 93 96 99 99 90 78 90 71 77 71 68 79 91 88 79 78 78 74 73 73 75 74
83 83 83 82 90 88 89 88 91 89 87 85 84 85 84 83 82 86 98 97 94 94 100 97 90 75 91 94 83 66 79 87 94 94 97 91 92 89 93 85 79 68 70 80 84 77 72 82 80 74 74 78 77 79
85 85 81 83 85 87 88 87 89 91 92 92 90 84 84 84 91 92 95 89 95 96 98 100 92 87 93 95 84 74 80 95 93 90 100 95 87 84 94 92 67 74 74 62 62 68 82 82 79 75 79 80 77 78
87 87 88 87 89 94 94 95 89 91 92 92 93 92 93 90 92 91 91 93 86 92 96 99 96 86 94 97 99 97 96 99 96 97 97 92 95 84 95 90 73 82 82 80 76 77 88 84 92 82 83 83 81 83
87 86 89 92 94 93 92 92 93 93 90 92 91 90 89 86 85 92 97 86 84 92 93 100 98 98 92 99 100 99 99 98 98 99 98 96 98 97 89 86 89 82 79 80 83 79 80 84 83 85 82 83 90 94
89 90 91 93 92 92 91 91 91 90 90 92 92 93 95 95 97 94 99 97 99 94 99 100 99 99 96 99 100 98 98 100 98 100 100 95 100 98 87 88 88 84 83 88 81 81 82 87 86 83 84 86 90 94
89 90 91 92 92 91 91 91 91 91 94 94 91 97 100 94 91 87 93 96 100 100 99 100 98 100 95 100 100 99 100 100 100 99 96 99 99 93 96 90 87 84 81 80 94 97 92 90 88 85 86 80 82 90
87 88 90 90 88 89 88 91 92 92 95 96 99 100 99 93 93 96 99 100 99 100 98 98 98 99 98 100 100 99 100 99 99 98 97 100 99 95 94 95 88 83 80 90 82 83 81 79 82 88 88 89 89 88
86 87 86 85 88 90 89 89 92 92 96 91 96 97 96 95 98 98 100 100 100 99 98 100 100 98 99 97 99 99 98 96 99 93 99 100 98 97 96 94 90 84 80 80 76 78 78 78 80 84 87 90 90 90
92 90 87 87 88 88 90 89 91 95 98 98 94 96 96 100 99 99 99 99 99 99 100 100 100 100 96 95 99 96 98 98 96 97 97 98 99 96 92 84 82 76 78 78 78 79 80 83 85 90 94 89 90 87
97 95 92 90 90 91 92 94 95 98 95 97 100 98 99 99 99 99 100 99 100 100 100 100 100 100 100 99 100 95 100 96 98 97 93 99 99 95 86 84 84 87 90 89 90 89 88 86 88 90 92 86 81 74
89 91 93 97 96 95 95 96 97 94 94 99 95 98 99 100 99 99 100 100 99 99 100 100 100 97 100 99 99 98 96 98 99 99 99 100 96 89 87 88 90 93 92 90 88 92 93 86 82 84 82 74 74 87
84 80 92 94 93 93 90 85 89 90 96 96 98 98 99 98 98 98 99 100 99 100 100 98 99 97 99 99 98 99 93 99 99 99 100 96 94 90 90 88 90 91 91 93 93 91 86 88 83 81 83 79 88 86
80 85 84 86 82 81 81 87 89 94 97 93 99 99 100 99 99 99 99 99 98 100 99 99 98 99 98 97 97 98 98 99 99 99 99 93 96 98 98 98 98 97 90 87 86 90 88 76 76 74 79 77 69 76
92 87 85 82 75 80 89 89 92 91 98 99 99 99 97 98 98 97 99 98 99 100 98 98 94 95 97 96 97 97 97 99 99 99 99 99 98 99 97 97 98 95 96 97 92 79 78 77 72 72 72 76 78 76
88 82 81 82 76 84 90 91 89 97 99 100 99 99 99 98 97 94 92 96 94 92 96 96 94 96 96 96 97 96 97 98 99 99 99 99 99 98 98 99 98 98 97 95 80 76 72 72 79 79 79 81 92 91
80 80 82 80 75 89 89 94 89 96 99 99 97 82 89 86 89 88 83 79 80 88 92 94 96 96 96 96 96 97 96 96 99 98 97 96 97 97 97 97 95 95 93 92 92 91 84 85 82 81 82 86 94 96
81 86 76 82 88 85 94 97 99 99 99 99 98 98 99 84 79 83 86 78 80 95 94 95 96 95 96 95 94 95 94 93 94 96 97 94 95 93 93 94 93 93 93 94 94 94 94 94 93 92 96 97 97 98
92 76 91 79 83 82 87 88 95 97 92 96 93 93 98 98 97 97 80 86 93 95 94 93 92 91 87 89 92 93 94 92 94 92 93 91 92 93 93 94 93 95 94 95 94 95 95 93 94 95 96 97 94 91
80 84 91 83 83 83 89 90 86 83 90 95 91 91 97 99 99 87 96 85 91 92 94 90 82 79 82 80 77 82 82 79 87 91 93 94 93 94 94 94 94 95 94 94 93 94 95 94 94 95 93 94 94 96
73 87 93 93 88 99 89 92 89 90 92 92 93 96 95 100 93 93 98 96 92 87 86 84 82 80 77 79 88 90 90 82 87 90 93 90 91 93 91 92 92 93 92 90 91 94 93 96 94 93 96 98 99 100
82 91 85 89 90 85 91 93 93 93 99 99 93 96 97 94 98 99 98 98 96 96 94 89 86 88 92 93 91 91 90 86 90 92 93 92 94 91 89 86 89 86 83 90 94 97 98 97 99 99 98 100 99 100
94 97 87 87 89 90 95 91 100 99 99 99 98 97 96 94 95 100 93 98 99 97 98 98 99 94 93 92 93 94 98 92 80 90 89 81 84 92 92 94 97 98 95 98 98 100 100 100 100 100 100 100 100 100
97 95 89 90 96 90 93 97 95 97 100 99 99 98 95 99 100 97 96 96 96 97 95 95 90 92 92 91 90 93 96 92 92 92 89 89 93 95 98 100 100 98 98 99 100 100 100 100 100 100 100 100 100 100
97 92 93 92 94 95 97 100 100 98 100 97 92 99 99 100 98 97 96 96 97 93 91 88 83 83 87 88 92 96 97 97 94 95 96 92 92 95 97 96 96 100 98 99 100 100 100 100 100 100 100 100 100 100
94 96 91 98 96 98 98 99 99 90 94 100 98 99 99 91 97 97 95 95 95 94 95 97 98 98 95 95 96 96 93 94 89 94 100 100 100 98 100 100 100 100 100 100 100 98 99 99 100 100 100 100 100 100
94 96 96 100 98 97 100 99 100 100 96 97 90 86 89 97 96 96 95 94 94 97 100 100 100 98 100 100 100 99 100 100 97 98 100 100 100 99 100 100 100 100 100 100 100 100 100 100 100 100 100 100 100 100
97 96 98 98 99 98 99 100 93 95 98 98 99 98 99 98 98 97 96 98 98 98 97 99 100 100 100 100 100 100 100 99 100 100 100 100 100 100 100 100 100 100 100 100 100 100 100 100 100 100 100 100 99 100
98 100 99 100 99 97 98 98 99 100 99 100 99 100 99 99 100 99 98 98 98 100 100 100 100 100 100 100 100 100 100 100 100 100 100 100 100 100 100 100 100 100 100 100 100 100 100 100 100 100 100 100 100 100
98 100 98 99 98 97 99 96 97 98 98 99 99 99 100 98 100 98 98 99 97 98 100 100 100 100 99 98 98 100 100 100 100 100 100 100 100 100 100 100 100 100 100 100 100 100 100 100 100 100 100 100 99 99

GFSWCAN_sfc_rhum_042.txt.gz
RH
87 91 87 86 84 86 90 90 89 89 85 84 82 77 76 80 81 83 90 92 96 98 90 88 90 78 67 64 79 77 73 80 94 88 93 91 93 83 83 70 77 79 88 91 90 86 76 48 48 45 50 69 59 58
88 90 90 90 90 90 90 90 88 85 84 81 82 79 80 81 80 81 94 92 92 99 96 92 89 82 77 75 61 78 72 82 72 90 96 94 92 96 80 83 69 70 72 79 73 74 60 58 49 51 56 60 61 63
81 85 87 90 90 89 88 88 88 88 87 82 79 82 82 82 80 79 97 96 96 98 93 90 84 89 78 80 76 71 89 80 86 84 92 95 89 90 88 84 80 72 67 72 67 65 70 76 78 77 78 73 76 81
83 82 82 82 82 82 83 83 82 81 78 78 80 82 83 82 79 79 95 96 93 97 100 90 78 88 86 88 85 78 67 93 93 95 98 98 93 85 91 72 74 72 68 78 77 86 85 77 80 78 81 80 77 76
86 86 86 85 84 82 82 82 83 82 82 82 82 82 82 82 80 86 95 93 96 96 98 96 82 79 78 96 97 91 81 90 95 96 99 91 93 91 95 87 82 74 71 77 68 64 64 68 81 79 81 83 80 81
85 87 89 90 88 87 88 86 85 84 84 83 83 83 84 82 83 91 97 94 88 93 98 99 90 89 86 93 96 99 85 94 94 90 97 96 89 87 97 91 61 66 71 66 56 71 85 84 82 78 83 84 82 84
88 85 84 85 85 87 91 93 88 86 86 86 85 83 82 84 92 94 96 94 93 92 96 99 98 83 95 96 99 99 95 98 96 96 98 95 95 82 96 84 68 85 84 80 78 77 87 78 87 82 82 83 83 85
86 88 90 94 94 90 93 92 92 90 87 85 86 85 85 84 82 93 96 94 91 95 94 100 98 98 93 99 100 99 100 97 98 99 98 97 98 98 90 82 92 84 81 83 84 81 79 85 85 88 85 85 92 96
90 92 93 94 94 91 90 89 90 92 89 86 83 84 94 91 96 91 93 93 93 91 98 100 100 98 93 99 99 98 98 100 98 100 100 96 100 91 88 92 92 87 84 91 86 85 85 90 92 90 90 92 94 95
92 94 93 93 92 91 91 91 89 91 91 91 91 94 99 97 93 92 100 99 96 98 100 100 98 100 96 100 100 100 100 100 100 99 97 100 98 94 92 90 91 87 83 82 95 98 94 95 95 92 88 85 86 91
93 93 92 92 91 91 91 92 92 88 85 97 98 100 96 93 94 97 99 100 99 99 99 98 98 99 96 98 100 100 100 100 100 99 96 100 99 97 97 94 87 85 80 86 82 81 81 84 88 91 94 95 97 94
91 92 91 90 89 89 90 92 90 93 96 94 95 92 94 93 98 98 99 99 99 99 99 100 100 97 100 97 98 100 100 100 100 97 100 100 99 99 98 97 93 89 86 85 82 83 82 84 83 88 94 96 95 91
89 90 89 89 88 88 89 91 91 94 94 98 95 97 92 99 99 98 98 100 99 100 100 100 100 99 98 95 100 100 100 99 98 99 99 100 99 99 95 89 88 82 83 84 86 87 91 95 96 96 97 96 89 83
86 87 86 88 91 92 91 94 95 97 97 98 99 98 98 98 99 99 100 100 100 100 100 100 100 100 100 99 99 98 100 97 98 97 99 99 100 97 91 88 86 92 94 93 95 95 97 96 95 96 94 88 86 83
88 89 88 90 93 92 94 96 96 97 98 99 96 99 98 100 100 100 100 100 99 100 100 100 99 98 99 98 99 99 97 98 98 98 99 100 99 96 97 96 95 97 98 97 92 93 96 95 89 82 75 74 82 88
93 92 98 95 96 97 95 95 96 97 95 97 98 98 99 99 98 98 98 99 99 99 100 96 98 99 99 99 95 98 94 97 98 99 99 99 99 99 98 98 97 97 96 96 96 95 94 88 85 77 76 79 89 89
84 98 97 97 96 94 93 94 92 93 98 94 98 98 98 98 98 98 98 98 98 100 99 98 95 98 93 96 95 95 97 97 97 99 99 99 99 99 98 98 98 98 96 96 96 91 87 85 81 73 73 69 66 79
96 97 94 94 88 89 95 94 93 90 98 99 97 98 97 97 95 95 97 97 99 98 96 98 90 94 96 96 96 96 96 96 99 99 99 99 99 99 98 98 98 97 97 97 95 94 94 95 89 79 70 72 77 78
95 95 89 85 87 91 91 93 90 96 98 98 96 93 96 93 84 88 92 95 89 88 92 93 92 95 96 96 96 96 96 96 98 98 96 97 98 99 99 98 98 97 96 96 94 93 93 85 79 80 82 84 92 87
78 79 79 86 88 92 87 94 89 93 98 96 88 77 82 84 84 82 78 75 75 81 88 93 95 96 96 96 96 96 96 95 96 95 94 94 95 94 96 95 94 95 93 93 93 94 92 91 90 90 92 93 95 95
76 80 70 78 86 84 93 97 98 99 98 98 99 97 95 80 79 82 83 73 76 92 92 95 96 95 95 94 94 95 93 92 93 94 94 93 94 93 92 93 93 93 93 94 94 94 94 94 93 92 96 97 97 96
91 71 89 77 83 84 87 88 95 97 91 97 93 94 99 98 98 98 83 87 92 94 93 92 91 90 86 89 92 93 94 92 93 91 92 90 92 92 92 94 91 94 94 95 93 95 94 93 94 94 96 97 96 95
76 82 89 82 82 82 89 89 85 85 91 96 92 94 98 99 98 84 97 83 91 91 93 91 86 79 82 80 77 80 78 77 86 89 90 92 91 92 92 92 93 94 94 94 93 93 95 94 94 96 95 94 94 96
69 86 92 91 84 94 91 93 90 92 94 94 96 99 96 100 92 93 98 97 91 86 84 82 79 79 76 79 88 90 90 81 86 89 87 86 90 93 87 86 84 87 88 85 89 94 94 96 93 94 97 99 99 100
83 92 84 88 92 86 92 95 97 93 100 99 96 97 98 93 97 99 97 96 95 96 94 90 86 88 92 93 91 91 88 84 90 92 90 90 94 89 89 88 91 88 85 92 97 99 100 100 100 100 100 100 100 100
96 97 92 98 96 92 98 99 99 100 99 98 98 96 93 94 95 100 93 98 98 97 98 98 97 94 93 92 95 95 98 92 81 92 95 90 90 96 98 99 100 98 96 100 100 100 100 100 100 100 100 100 100 100
97 97 90 83 97 90 96 98 95 96 97 95 99 98 94 100 100 97 95 95 95 96 92 90 87 92 93 91 90 95 95 92 92 92 90 90 92 93 98 100 100 98 96 98 100 100 100 100 100 100 100 100 100 100
99 91 94 95 98 95 100 100 98 99 98 96 88 100 100 100 99 97 96 95 95 86 87 88 88 88 92 94 95 97 98 98 96 95 94 89 94 98 99 100 100 100 100 100 100 100 100 100 100 100 100 100 100 100
100 98 93 100 96 98 98 100 96 89 90 96 100 100 100 91 98 97 95 96 96 93 95 96 98 99 97 96 97 97 95 97 90 99 100 100 100 99 100 100 100 100 100 100 100 100 100 100 100 100 100 100 100 100
96 96 99 100 95 94 100 99 100 100 95 98 91 86 91 97 97 96 96 95 96 100 100 100 100 100 100 100 100 99 100 100 100 99 100 100 100 100 100 100 100 100 100 100 100 100 100 100 100 100 99 99 100 100
98 97 98 98 100 99 100 100 99 97 99 99 100 100 99 100 99 98 98 100 100 100 100 100 100 100 100 100 100 100 100 100 100 100 100 100 100 100 100 100 100 100 100 100 100 100 100 100 100 100 100 100 99 100
100 100 99 100 98 98 98 98 100 100 100 100 100 100 99 99 100 99 99 99 98 100 100 100 100 100 100 100 100 100 100 100 100 100 100 100 100 100 100 100 100 100 100 100 100 100 100 100 100 100 100 100 100 100
98 100 99 100 98 98 98 96 98 99 100 100 100 100 100 97 99 98 99 99 96 97 99 100 100 100 100 100 100 100 100 100 100 100 100 100 100 100 100 100 100 100 100 100 100 100 100 100 100 100 100 100 100 100

GFSWCAN_sfc_rhum_045.txt.gz
RH
90 83 85 86 86 86 86 84 82 85 92 90 87 85 81 79 77 74 98 94 96 98 91 88 88 76 65 59 72 77 74 78 95 88 92 88 92 78 75 65 75 72 79 85 78 90 68 45 38 45 47 45 48 51
92 90 84 84 85 85 84 84 89 91 90 90 87 83 80 81 78 81 95 94 94 98 96 91 88 83 76 49 61 68 66 70 71 88 93 92 98 96 77 71 62 76 66 70 60 63 54 47 44 42 44 44 52 53
89 93 92 90 87 87 89 93 92 89 89 91 90 86 85 86 86 82 97 96 96 99 90 88 90 84 84 82 63 78 84 74 80 82 91 90 92 84 93 83 76 66 63 70 65 55 53 55 54 58 51 50 50 50
83 87 91 93 93 91 91 90 90 91 91 89 89 89 89 86 78 85 96 94 90 94 97 85 79 77 81 85 78 72 70 88 88 88 93 97 96 77 87 68 75 67 67 70 65 59 70 62 64 58 63 68 65 61
86 85 85 86 90 92 93 93 90 91 92 89 89 86 86 83 80 92 97 92 88 90 99 95 80 81 77 91 91 83 82 88 93 96 100 93 86 86 92 85 85 65 64 73 68 52 56 46 54 68 71 69 65 67
88 87 86 85 85 85 88 90 90 89 90 90 87 85 81 80 84 93 95 91 92 88 98 99 87 82 87 95 98 96 91 90 91 90 96 87 83 87 96 86 58 60 69 70 53 66 74 78 72 67 71 72 71 69
85 85 86 87 87 86 85 84 84 83 83 84 84 83 83 83 90 93 94 92 88 95 99 99 95 84 83 92 96 99 92 94 90 91 97 90 91 83 97 84 56 72 72 75 73 70 72 72 72 74 74 77 77 75
92 93 88 87 91 90 87 86 85 85 84 83 83 83 82 82 83 93 95 88 88 94 96 100 97 98 92 100 100 98 99 95 95 94 96 97 94 93 91 69 77 77 76 78 78 75 74 78 77 80 78 77 82 85
94 95 91 93 92 91 89 87 86 86 84 83 83 85 90 93 96 92 92 91 96 95 100 100 100 99 94 100 99 99 98 100 97 100 98 93 100 94 80 78 84 82 79 86 84 79 77 80 83 83 81 82 89 89
93 94 94 95 92 93 91 87 86 85 84 86 88 90 99 93 88 92 99 99 99 96 99 100 96 98 92 100 100 99 100 100 100 99 98 100 99 89 87 85 82 82 80 80 94 96 94 92 88 87 86 83 85 85
93 93 93 94 94 90 91 87 85 86 82 91 98 100 95 91 94 95 97 99 99 100 99 97 96 99 95 97 100 100 100 100 100 99 98 100 98 93 92 90 84 81 77 81 78 82 81 84 87 90 92 91 92 91
91 92 92 93 96 94 89 87 81 88 96 95 93 96 95 94 97 97 99 99 100 98 100 100 99 95 100 94 97 100 100 100 100 98 100 100 99 97 96 96 92 90 90 91 86 89 88 85 84 88 92 94 94 95
92 90 89 88 92 94 86 91 92 93 94 95 93 95 91 99 99 98 98 99 100 100 100 100 100 100 98 95 100 100 100 100 99 99 97 99 99 97 96 90 92 88 88 88 90 88 87 90 90 92 97 97 97 95
90 90 91 91 91 91 91 94 93 95 92 99 98 98 98 97 98 98 99 100 100 100 100 100 100 100 100 99 100 100 100 100 97 96 98 98 100 100 96 93 92 96 96 95 96 95 97 97 97 98 97 97 96 92
90 90 92 92 92 94 96 93 91 96 99 99 92 97 98 100 99 100 100 100 99 100 100 100 100 99 100 100 100 98 95 96 94 96 98 98 100 100 100 99 98 98 98 97 97 96 97 96 95 94 91 81 80 90
91 91 92 91 91 94 91 91 95 96 98 92 92 96 97 97 97 98 98 98 99 99 100 97 99 98 99 96 89 95 92 94 95 97 96 98 99 99 98 98 98 97 97 96 96 95 94 94 90 80 79 81 91 90
91 99 94 94 92 90 88 94 94 98 98 95 97 97 98 98 98 98 98 97 98 100 99 90 92 96 89 91 91 91 95 94 96 95 98 100 99 98 98 98 98 96 95 94 92 91 89 70 70 70 77 77 74 81
99 97 90 86 83 91 97 94 92 89 96 97 96 97 97 97 96 96 97 95 98 94 85 95 80 89 94 92 92 94 93 94 96 96 96 98 99 99 98 97 97 96 95 95 94 94 91 88 88 91 87 81 78 76
96 92 92 94 92 91 92 93 85 93 95 96 87 85 85 85 78 80 82 82 83 82 85 83 89 90 94 93 94 95 95 95 94 94 94 95 95 96 96 95 95 95 94 93 91 91 91 91 91 90 90 80 79 76
95 94 97 93 88 94 91 97 88 88 90 86 84 76 77 80 80 82 78 72 71 76 88 91 92 94 94 93 94 95 94 94 94 91 91 92 93 93 95 93 92 93 90 90 91 92 90 90 90 90 91 91 91 92
86 93 95 86 86 84 92 96 94 97 97 96 94 92 89 79 78 82 83 70 77 88 89 92 94 92 93 92 92 92 92 91 92 92 92 91 92 90 90 91 91 90 90 92 92 93 92 93 90 90 94 95 94 93
85 66 87 78 84 83 85 86 94 93 90 93 92 91 94 100 99 95 78 86 90 92 91 89 88 87 83 87 89 91 93 89 91 89 90 88 90 90 91 93 90 93 93 94 92 93 92 89 90 90 92 94 90 90
73 77 88 82 81 80 86 86 87 86 92 94 90 92 96 99 94 70 95 80 89 89 90 87 86 82 84 85 77 78 74 74 82 86 87 90 88 88 88 88 90 92 91 88 84 86 89 85 85 90 89 89 88 91
67 86 90 90 84 94 91 94 87 89 92 94 96 99 94 97 82 90 94 92 89 85 83 84 78 78 74 77 85 86 84 76 82 87 83 77 84 85 80 80 80 83 78 76 81 88 88 93 93 89 94 93 94 93
83 92 83 88 92 85 96 100 98 92 100 99 95 97 99 87 96 98 96 92 91 94 92 85 81 82 86 88 86 85 81 73 76 82 85 78 83 80 82 82 86 88 84 91 95 94 95 95 95 94 92 96 92 95
96 99 98 100 99 95 98 100 100 100 99 97 98 94 92 93 94 99 89 96 97 93 98 98 95 88 88 86 87 88 89 78 73 86 88 83 83 89 91 92 90 90 89 96 97 98 96 96 99 99 96 92 99 100
99 98 96 82 92 91 99 98 91 95 94 94 97 97 92 100 100 94 90 91 90 91 85 89 85 87 88 88 86 88 84 84 86 84 82 81 83 84 90 96 99 94 89 94 96 98 99 99 100 97 98 97 97 100
100 92 94 98 97 94 100 99 93 96 93 92 87 100 100 99 96 94 92 91 88 81 83 85 85 86 89 91 92 93 93 92 91 87 82 83 89 93 95 96 97 100 96 97 99 99 99 97 98 98 98 98 98 95
100 98 92 100 97 98 98 100 94 89 88 90 98 100 98 89 96 94 92 93 92 89 93 95 97 96 94 92 96 95 93 89 83 94 98 99 99 94 95 98 100 100 100 99 100 98 94 96 100 94 95 96 96 96
99 96 99 99 96 100 100 98 100 100 90 96 87 85 87 95 95 93 94 94 94 100 100 100 100 97 99 97 100 98 99 100 97 96 100 100 99 97 100 100 100 100 100 100 100 98 100 98 96 92 94 93 94 95
96 96 98 98 98 99 98 100 100 98 99 98 100 99 99 98 97 96 95 98 99 100 99 100 100 100 99 100 100 100 98 98 100 100 100 100 100 100 100 100 100 100 100 100 100 100 100 100 100 99 96 96 96 96
98 100 98 100 98 99 100 98 100 100 100 100 100 100 99 99 100 99 99 98 98 100 100 100 100 100 100 100 100 100 100 100 100 100 100 100 100 100 100 99 100 100 100 100 100 100 100 100 100 100 99 98 97 96
98 100 99 100 98 99 98 96 97 99 100 100 100 100 100 96 98 96 98 99 94 94 98 100 100 100 100 100 99 100 100 100 100 100 100 100 100 100 100 100 98 99 100 100 100 100 98 100 98 97 96 98 97 96

GFSWCAN_sfc_rhum_048.txt.gz
RH
89 85 88 85 86 87 84 87 86 87 85 84 81 85 87 88 84 75 89 78 79 76 78 62 50 54 48 55 58 46 61 68 73 78 74 68 80 51 46 39 59 60 68 83 61 88 76 30 28 31 27 34 26 30
90 89 88 88 87 87 86 86 83 83 82 82 86 88 88 88 78 77 98 78 72 73 97 81 74 68 71 36 40 52 40 47 49 60 69 58 96 91 47 60 41 56 47 50 46 45 33 33 26 25 28 25 32 30
91 92 87 89 89 88 88 87 85 80 82 85 90 87 87 88 78 81 97 82 77 79 65 86 87 61 67 67 46 52 42 38 49 41 60 68 89 65 94 59 45 45 48 58 54 30 33 35 27 30 28 28 27 28
91 93 93 91 91 90 90 90 90 90 89 90 89 88 90 87 86 80 81 68 58 73 86 65 76 69 60 65 58 52 40 54 51 58 68 88 90 49 64 44 56 38 50 46 45 36 44 39 35 29 34 39 38 31
87 93 94 92 93 93 91 91 91 92 91 90 89 92 93 91 82 78 73 62 52 52 91 84 65 75 78 78 64 54 58 54 69 79 90 76 54 66 73 69 61 42 45 58 53 34 44 29 29 34 39 42 39 38
87 88 91 94 91 93 92 93 94 89 92 92 91 90 88 82 74 78 97 79 63 58 80 99 69 60 67 88 73 57 59 57 62 64 77 57 58 62 92 66 37 37 38 38 38 48 51 54 48 40 41 42 42 42
88 87 88 92 94 91 90 92 90 91 91 92 90 86 80 75 62 64 65 66 71 63 79 98 89 72 65 74 81 78 67 71 63 69 72 65 72 67 95 79 41 38 38 45 56 58 52 54 51 58 53 52 57 45
88 89 87 87 90 90 89 92 90 89 89 89 83 81 78 74 70 74 88 83 77 68 75 99 93 90 64 78 98 94 97 88 76 72 74 69 69 82 80 46 41 47 54 60 58 59 59 58 58 61 62 57 59 58
94 91 89 88 87 87 87 86 84 82 82 83 84 81 74 73 79 93 91 82 77 73 98 100 100 97 81 90 95 99 93 100 84 94 79 68 76 86 57 52 51 57 61 57 64 60 60 62 61 67 65 64 64 70
95 94 92 88 87 87 86 85 85 85 82 82 79 93 97 81 90 90 93 94 87 94 95 100 94 97 93 100 98 95 100 100 100 96 84 98 75 71 73 70 67 65 62 63 71 74 72 71 68 70 70 68 72 72
95 95 94 90 88 87 87 85 85 84 77 74 89 94 76 87 89 92 98 100 99 100 98 84 78 83 94 99 100 94 99 100 100 99 96 100 97 96 88 79 71 75 68 62 59 60 61 63 70 75 82 81 81 85
93 93 93 92 87 87 86 86 81 70 76 81 88 73 75 70 80 95 100 99 100 96 98 98 96 87 98 91 97 99 100 100 100 99 100 98 99 99 96 94 87 77 72 72 67 67 70 69 72 79 86 91 93 94
89 93 88 85 86 86 87 86 90 87 86 95 92 96 94 98 100 100 98 99 99 100 99 100 100 98 97 93 100 100 100 100 99 100 96 96 96 98 99 98 97 94 92 89 86 85 88 92 90 93 96 96 96 96
89 90 91 86 92 94 94 94 92 93 92 99 99 99 100 97 95 95 95 100 100 100 100 100 100 100 100 100 100 100 100 100 100 96 96 92 97 99 99 100 100 99 100 98 98 97 97 96 97 97 97 97 96 95
91 91 91 93 94 93 93 90 87 81 83 93 83 95 92 97 94 96 97 100 100 100 100 99 100 99 100 100 98 99 100 93 86 90 93 94 97 100 99 98 97 97 98 97 97 96 98 98 95 95 95 94 93 96
86 78 88 94 91 89 89 86 86 86 90 75 82 91 88 90 92 92 94 97 99 99 100 99 97 100 96 88 84 92 79 87 90 90 90 96 99 97 98 98 98 98 97 96 95 94 94 94 94 91 91 90 96 94
87 92 92 90 89 88 85 88 89 92 88 93 95 95 97 96 96 97 98 96 96 100 98 76 87 95 73 77 82 80 90 90 91 90 91 97 97 97 97 98 99 97 93 93 92 91 89 77 70 68 77 78 80 85
99 93 89 86 77 79 81 86 88 87 93 94 93 96 95 96 96 96 94 90 91 75 70 85 63 78 86 84 86 90 88 91 92 92 92 93 94 95 95 94 95 93 92 93 92 92 91 90 84 85 84 84 78 71
94 94 93 92 88 84 93 88 65 86 91 88 82 83 85 83 73 71 75 71 67 62 64 66 78 82 89 86 90 91 92 92 90 90 90 93 93 94 93 93 93 92 90 90 88 85 86 87 86 82 84 83 84 85
96 95 90 81 81 81 84 88 66 69 76 69 64 66 66 69 70 82 78 67 58 60 74 79 86 89 88 87 88 90 89 90 87 87 87 87 88 90 92 89 87 89 85 86 87 87 81 80 81 83 84 85 87 88
92 93 80 73 78 74 79 82 94 83 79 76 74 61 64 64 78 83 79 58 76 74 82 86 90 86 86 84 83 85 87 83 84 83 86 84 87 83 84 85 85 82 82 85 86 87 86 86 84 84 90 92 91 89
85 64 75 67 73 75 71 69 72 71 68 73 74 65 79 84 83 81 58 75 77 84 82 79 77 74 73 80 79 80 85 79 82 79 83 78 82 81 83 86 81 87 84 87 82 88 84 76 77 79 84 86 77 80
65 64 75 77 82 83 80 64 79 67 79 82 74 76 79 79 69 50 78 65 76 76 78 76 76 71 74 76 69 68 63 63 67 70 72 72 68 70 70 70 71 76 75 69 64 70 78 71 74 80 78 77 77 81
61 81 84 83 76 86 83 86 67 71 76 80 79 86 83 77 62 70 79 77 79 72 70 73 66 68 64 67 69 71 63 54 61 64 61 61 67 68 64 65 67 70 66 64 70 77 78 83 79 76 80 80 80 81
81 91 82 88 80 82 92 92 89 79 90 84 83 88 86 68 81 80 80 78 81 85 82 74 68 65 70 73 66 66 62 54 60 64 64 62 67 64 64 63 68 69 71 81 83 82 83 82 81 80 76 80 80 79
96 95 91 93 88 86 88 95 95 94 88 89 92 81 78 79 81 86 72 80 86 84 90 87 82 75 71 64 65 67 67 58 55 65 66 61 64 74 75 76 74 76 73 82 85 83 79 80 81 80 80 77 80 83
92 92 81 67 72 76 89 84 76 82 88 92 89 85 80 88 88 79 75 76 75 78 74 76 68 68 70 69 68 68 64 64 68 65 63 63 65 67 76 81 83 80 71 79 81 83 84 82 82 81 81 79 80 83
82 77 88 92 85 76 90 83 84 86 85 78 71 92 87 83 82 78 76 77 76 68 72 75 72 70 72 75 77 78 79 77 81 74 72 72 71 77 81 81 83 88 82 85 84 80 80 80 81 80 81 82 83 81
91 84 77 95 87 87 90 90 86 81 76 72 86 85 84 74 82 80 81 80 79 78 80 81 86 82 80 79 82 80 79 78 63 62 65 79 80 83 80 82 81 83 84 83 80 82 78 80 82 83 81 84 84 83
92 84 84 88 92 91 94 87 90 88 76 78 70 70 71 82 86 82 82 84 84 91 91 90 90 84 85 83 86 86 87 86 86 84 82 84 87 86 86 84 84 84 86 85 85 80 81 82 80 79 80 82 83 85
85 83 86 84 89 86 87 88 84 82 84 84 85 85 85 86 86 86 85 87 87 89 86 87 90 89 87 86 84 82 84 88 90 88 88 87 87 86 85 86 86 86 85 85 86 85 86 84 83 84 83 84 84 86
91 92 87 88 91 89 91 91 92 90 91 86 90 89 92 88 89 88 89 90 90 89 97 92 89 89 89 89 89 88 99 88 86 88 84 88 86 85 86 84 87 86 84 85 85 85 84 85 86 85 86 84 86 87
92 90 88 89 91 92 89 89 84 90 89 88 91 91 90 84 86 88 89 90 88 84 84 87 90 90 88 86 84 90 93 88 90 100 98 94 99 96 92 87 87 86 84 85 84 85 85 84 84 84 84 86 87 87

GFSWCAN_sfc_rhum_051.txt.gz
RH
88 92 88 89 84 84 84 87 88 87 87 90 90 87 84 84 88 89 86 71 81 76 58 53 52 57 44 41 53 48 48 63 68 77 65 49 62 39 33 26 60 68 66 85 67 72 75 27 22 30 27 24 20 20
92 92 88 88 86 86 87 89 91 88 90 89 90 85 80 82 87 80 93 78 73 82 93 72 64 55 57 36 37 41 60 49 44 46 50 46 77 81 41 52 23 57 53 58 45 43 33 32 28 22 19 20 24 23
94 92 88 86 87 86 87 89 91 90 88 87 88 81 81 88 90 91 91 83 82 92 76 69 64 57 57 52 42 54 44 37 39 35 35 52 71 44 81 55 38 32 30 46 45 34 28 29 27 22 22 23 21 21
94 94 93 88 87 88 87 86 88 90 87 87 84 81 84 86 88 78 72 69 68 76 92 70 48 49 50 57 57 56 56 40 38 36 57 75 74 29 58 40 38 30 28 37 38 29 25 24 30 32 24 24 24 24
94 93 95 94 94 88 88 85 84 85 86 84 86 90 90 90 77 73 78 75 62 47 72 57 54 43 44 62 63 58 58 62 43 55 84 70 38 34 44 50 44 26 36 53 51 25 40 36 28 31 27 27 31 28
92 93 94 93 94 94 94 90 86 88 88 91 91 92 86 76 76 80 97 83 52 47 54 74 69 48 43 56 73 65 62 56 44 51 66 41 29 40 80 58 26 21 24 28 32 28 40 42 40 38 32 29 29 31
93 92 92 93 92 91 91 92 94 93 91 91 92 88 80 72 66 83 69 54 56 39 52 76 82 55 48 54 72 68 64 55 60 60 65 53 43 50 81 71 26 23 30 30 28 44 46 41 38 44 38 32 43 32
91 93 91 93 92 92 92 89 90 89 88 86 83 84 84 86 77 75 64 68 51 43 51 86 98 89 64 90 94 68 78 69 64 64 56 60 54 70 72 37 34 30 32 39 44 49 49 49 46 46 44 46 43 40
88 90 90 91 92 92 90 87 86 88 88 83 76 71 66 62 70 87 85 79 54 54 78 98 100 99 91 94 94 94 78 86 60 80 68 57 66 73 61 55 57 61 56 56 51 51 50 54 48 50 51 51 51 52
89 88 89 90 90 89 90 90 87 83 78 72 61 61 73 78 92 75 80 83 84 74 87 100 82 96 92 90 98 97 100 98 98 84 64 87 69 83 90 84 65 65 59 56 63 62 58 58 54 55 54 53 55 57
88 89 89 88 86 86 84 85 85 76 75 55 68 92 80 87 82 97 100 98 92 99 89 74 73 80 76 93 100 93 100 99 100 97 83 85 85 91 94 94 81 70 63 59 60 57 54 55 55 60 64 68 69 71
88 88 88 86 86 86 84 82 78 66 73 76 68 60 68 88 96 98 100 93 90 79 93 88 73 59 82 90 99 96 100 100 100 99 100 95 92 81 96 97 95 88 78 76 70 68 68 62 63 69 77 86 92 95
88 87 88 87 85 82 87 87 82 80 78 70 64 72 82 93 98 100 99 96 97 100 100 99 95 88 90 94 100 100 100 100 100 100 95 94 92 84 98 98 98 97 95 91 91 90 90 93 92 93 96 96 95 97
86 88 88 88 87 88 87 84 85 78 89 99 100 100 100 97 93 96 97 100 100 100 100 100 100 100 100 100 100 100 100 99 100 96 95 91 97 100 99 100 97 99 99 98 98 98 98 97 98 98 98 98 97 96
87 91 87 86 88 90 91 89 90 82 79 89 77 95 96 98 91 96 98 99 100 100 100 100 100 98 100 100 100 100 100 93 86 91 91 93 98 100 96 97 96 97 100 99 99 98 97 97 96 97 97 97 95 96
83 78 79 92 93 90 88 83 73 68 66 68 81 95 88 92 90 90 90 96 90 99 100 100 100 99 97 95 92 97 81 88 90 90 91 92 97 96 96 97 98 99 97 95 95 94 94 94 94 93 93 93 96 96
80 73 93 89 84 81 80 76 68 70 74 81 91 91 93 90 94 96 95 92 94 99 100 95 94 98 87 88 85 78 89 90 90 89 89 94 95 96 97 97 98 96 92 92 91 90 91 90 89 85 88 90 88 89
81 84 88 86 74 70 59 64 72 73 86 89 92 95 93 94 95 94 96 95 98 95 92 91 76 88 93 91 89 89 88 92 89 90 91 93 94 94 94 93 93 92 92 93 92 92 91 89 85 88 86 87 84 85
85 86 91 87 79 70 77 78 61 84 92 90 89 90 91 93 89 86 85 77 66 61 69 67 83 84 89 86 90 90 90 91 88 89 89 93 93 94 93 92 91 91 90 89 86 83 83 85 84 79 81 78 83 85
92 90 82 76 75 68 84 85 58 65 75 71 65 69 70 73 76 82 79 64 54 58 73 79 86 90 89 88 86 88 89 92 85 85 86 86 87 88 91 86 84 85 78 79 81 78 72 74 74 76 78 79 83 85
87 86 72 64 66 65 74 73 70 64 66 71 61 57 67 66 75 79 76 55 75 73 81 85 89 86 84 81 76 75 80 72 78 78 80 81 82 76 76 76 76 75 77 81 82 83 82 83 79 77 86 88 85 82
72 64 70 71 72 67 67 61 62 59 57 62 62 57 74 82 79 76 56 72 81 83 81 78 77 71 71 77 77 76 82 78 80 76 78 72 76 75 76 76 72 77 73 76 72 78 72 69 68 71 78 79 70 74
62 60 71 72 93 96 88 55 82 57 79 74 63 68 73 75 62 47 74 63 77 74 72 69 70 65 69 64 57 56 53 53 57 60 63 63 61 65 66 65 66 73 72 64 59 66 73 67 70 76 73 73 72 75
61 90 93 90 80 93 88 84 57 61 70 71 71 78 74 72 57 65 77 77 74 64 64 68 63 64 59 57 56 55 51 49 55 58 56 57 61 61 58 59 62 65 60 58 64 71 71 76 71 69 74 74 74 75
75 90 89 84 81 80 84 87 83 71 80 74 76 77 78 64 74 73 74 76 80 85 81 67 61 60 64 65 59 57 53 49 55 58 58 58 62 58 56 56 59 58 63 76 77 76 77 76 75 73 71 76 75 73
88 88 84 84 81 80 78 83 82 82 78 80 84 75 81 76 74 79 69 81 86 81 88 87 78 68 62 56 57 59 57 50 50 58 57 53 57 70 70 71 69 71 66 76 79 77 74 72 74 72 73 69 70 74
83 85 73 56 61 65 79 76 67 76 79 83 82 82 79 80 81 77 74 70 73 75 68 69 61 60 60 59 58 59 58 60 63 57 55 54 58 60 73 79 80 76 65 73 76 77 77 76 75 74 75 74 75 77
74 70 83 83 75 66 78 74 75 78 78 67 65 84 82 79 77 79 72 72 72 64 65 66 63 59 60 64 66 68 70 71 74 65 63 63 63 69 71 72 76 71 74 78 79 76 75 76 76 75 76 78 78 75
80 75 69 87 76 78 82 79 77 71 67 66 80 77 78 67 80 78 75 73 71 71 74 76 80 77 74 71 75 73 74 74 66 56 54 74 75 79 71 74 74 75 76 76 69 72 75 77 77 80 77 78 77 75
84 75 76 80 81 84 89 80 87 83 67 70 64 64 70 79 78 75 78 77 78 85 84 83 81 79 81 81 82 79 79 79 81 81 79 79 81 78 77 78 78 78 78 78 78 72 64 74 72 74 74 75 77 80
75 76 75 74 83 87 88 86 84 79 79 82 80 80 81 83 83 78 75 79 80 82 82 82 82 80 80 79 79 76 81 83 81 78 78 78 78 78 79 78 79 80 78 77 78 78 78 79 76 75 74 75 75 77
82 77 79 83 88 86 85 83 82 82 81 81 86 81 85 83 82 84 83 82 82 82 94 82 81 84 81 81 80 84 85 78 76 78 63 78 78 77 76 75 77 78 78 79 78 78 76 77 79 77 78 76 76 79
79 80 79 81 86 83 84 78 73 81 80 80 83 81 82 80 80 88 81 83 88 82 81 80 81 82 81 75 74 82 81 78 83 88 82 84 93 87 85 78 78 78 78 80 79 78 77 76 78 77 78 78 79 79

GFSWCAN_sfc_rhum_057.txt.gz
RH
81 83 83 88 92 93 91 90 88 88 86 87 86 87 89 87 85 90 92 85 92 98 90 66 68 88 60 60 67 63 67 68 82 77 78 84 86 63 60 51 73 82 92 98 96 100 92 52 41 40 44 36 36 33
86 88 92 93 93 91 89 88 88 88 88 88 86 87 88 90 84 89 98 88 85 95 98 93 89 78 83 76 78 66 59 60 78 84 86 79 84 82 62 65 47 84 70 85 76 84 64 57 65 61 61 62 42 43
89 92 94 91 87 88 90 90 90 91 91 88 87 86 86 87 86 90 95 94 93 95 98 96 89 80 76 74 74 94 84 60 83 86 93 86 77 72 78 58 48 53 53 67 68 58 45 43 54 54 61 61 59 40
94 94 94 93 86 89 92 90 92 94 90 88 88 88 86 85 87 89 96 91 87 96 99 94 69 88 73 70 72 82 78 66 75 88 92 97 97 64 63 62 63 58 51 55 61 55 54 42 44 52 52 59 50 51
95 96 97 93 90 92 94 94 95 90 90 90 89 86 87 86 86 90 93 88 86 84 97 93 76 66 70 74 76 77 84 84 92 98 99 92 76 72 78 72 65 46 44 72 83 61 59 52 53 53 58 48 52 47
94 95 94 89 91 92 92 93 92 90 87 87 92 89 85 91 90 94 99 96 90 93 95 96 79 66 70 77 78 75 84 86 92 95 98 91 69 68 92 82 49 40 36 35 37 42 43 48 52 54 51 56 51 54
92 95 92 92 92 92 89 90 94 91 91 91 91 92 90 88 93 95 94 94 89 93 93 91 87 66 59 70 82 83 82 93 91 91 99 97 90 83 93 86 92 82 73 64 65 60 63 65 66 58 57 56 58 52
94 96 92 92 92 91 91 90 91 89 88 87 92 91 87 86 83 90 86 82 88 80 73 96 96 88 68 87 94 83 93 92 92 93 95 95 91 91 97 86 88 84 80 76 72 67 66 63 58 58 58 60 63 66
94 94 93 93 91 92 90 91 87 87 85 83 83 81 88 94 98 90 76 76 85 88 96 98 97 94 93 94 90 89 92 97 92 98 95 94 93 98 95 94 93 93 93 86 74 72 70 73 68 62 62 66 75 86
93 93 93 94 92 91 90 86 82 83 84 80 86 91 99 96 81 73 83 90 90 92 88 97 91 100 95 99 99 98 99 98 99 97 93 99 98 98 92 89 89 89 87 81 86 90 86 83 80 92 89 86 84 85
91 92 92 90 91 91 91 91 89 84 81 87 95 99 93 86 93 94 97 96 94 98 93 91 92 94 96 99 100 98 98 99 99 94 94 99 96 94 96 93 85 86 84 83 80 82 83 87 91 92 94 94 92 92
88 88 87 85 84 83 85 86 84 91 91 86 84 84 87 95 99 92 96 98 93 93 98 99 99 91 100 97 100 99 91 97 92 98 96 97 96 93 96 92 90 90 88 88 87 92 92 92 92 94 94 95 95 93
86 85 87 90 89 88 86 85 82 81 78 84 89 99 98 99 97 95 98 98 99 99 99 100 100 99 99 99 100 99 96 95 99 96 97 97 95 94 92 91 92 92 94 95 95 93 90 91 90 90 94 95 93 94
84 82 89 90 88 85 84 84 83 76 86 95 94 94 94 94 98 98 98 98 100 99 99 99 99 98 100 100 100 99 100 97 96 96 96 97 98 97 96 97 95 97 97 96 96 95 96 95 96 96 96 96 95 95
85 83 81 88 88 87 85 76 73 75 84 91 86 97 97 98 96 97 98 99 99 98 98 100 100 99 99 99 99 98 97 96 94 96 97 97 97 97 97 97 97 96 96 96 96 95 96 95 94 95 96 95 94 95
84 82 91 86 84 83 82 72 69 76 83 82 89 95 92 95 93 95 96 97 94 97 99 100 99 93 97 93 89 97 90 96 97 97 97 96 96 97 97 97 97 96 96 96 96 95 94 94 94 95 94 94 95 93
82 88 89 84 80 67 69 76 77 74 87 88 98 95 96 97 98 98 98 97 98 99 99 96 95 98 87 90 94 94 97 97 97 96 96 96 96 97 96 96 96 96 96 95 95 93 94 93 83 80 90 94 90 92
84 90 86 84 85 78 72 78 83 80 92 97 96 97 97 98 97 97 98 97 98 98 94 96 85 91 99 96 96 97 96 96 96 96 96 96 96 96 96 96 95 95 94 94 93 93 94 93 91 94 94 92 88 87
91 89 80 77 82 82 88 88 78 92 98 98 95 91 93 94 89 93 95 95 83 81 88 89 90 96 97 96 96 97 97 96 96 96 95 96 96 96 95 94 94 94 93 94 91 91 90 90 90 90 88 82 91 92
84 76 78 75 76 85 89 93 81 87 94 94 82 79 76 79 79 80 78 73 74 78 87 93 96 96 96 96 96 96 96 95 91 92 93 94 94 92 94 93 93 92 88 86 88 85 81 84 80 80 85 89 90 93
87 83 74 76 79 81 88 93 92 92 95 97 91 81 83 73 76 80 78 64 78 89 93 95 95 95 92 94 93 90 91 87 93 91 92 93 94 89 88 86 83 82 84 86 88 89 91 93 91 91 90 94 92 93
81 72 90 92 92 85 89 83 88 84 84 85 87 87 94 94 94 86 70 82 93 95 92 90 90 86 89 92 92 87 88 87 88 86 83 81 89 89 89 87 84 89 89 91 90 94 91 86 88 89 93 96 93 92
75 82 95 93 88 85 89 85 84 77 89 89 88 84 91 94 87 72 94 84 95 86 82 80 75 67 68 65 63 64 62 65 73 79 81 83 82 85 86 87 89 93 93 90 88 91 94 92 92 92 91 89 93 96
78 97 96 97 90 99 92 90 88 87 89 89 87 89 85 93 83 91 95 96 92 84 92 83 68 71 68 67 73 73 71 70 75 82 87 82 85 84 80 82 84 88 89 87 88 95 95 96 97 95 96 94 96 100
79 87 91 92 92 88 90 89 89 88 92 88 89 94 89 89 92 94 91 97 97 98 95 88 83 76 83 88 83 81 75 69 77 80 78 81 91 82 82 81 84 86 89 96 96 98 100 98 94 97 97 98 93 99
95 90 88 90 92 88 90 92 89 89 90 94 94 86 93 92 93 99 92 97 99 98 97 98 92 83 79 75 83 86 82 76 72 82 79 78 85 96 96 97 97 97 93 98 100 98 98 98 98 97 99 98 99 99
94 94 88 76 88 86 92 91 85 91 92 95 93 91 90 96 100 98 96 95 98 97 88 88 78 79 82 84 81 88 90 85 85 78 78 79 84 84 92 99 100 97 96 95 99 100 100 100 100 100 98 98 99 99
86 85 97 94 90 85 90 92 93 95 96 91 90 96 99 99 99 98 98 96 93 85 83 83 83 87 93 94 95 96 98 96 93 90 89 91 95 97 97 97 96 96 98 94 96 98 97 100 100 100 100 100 100 98
93 88 86 92 88 92 94 95 97 88 79 89 96 98 97 96 97 97 95 95 93 92 95 97 98 97 96 95 95 94 96 97 90 89 95 100 100 99 99 98 99 98 99 99 97 96 94 96 99 97 94 98 99 100
93 91 90 91 94 98 98 97 97 96 89 92 88 80 87 97 97 96 95 96 96 98 98 98 97 98 98 98 100 100 99 100 100 100 100 100 100 100 99 99 100 100 100 100 99 97 96 98 99 96 99 99 98 97
92 92 88 92 98 97 97 96 86 85 91 91 90 93 97 99 97 95 97 97 97 97 96 97 98 98 98 99 100 99 100 100 97 96 98 100 100 99 100 99 99 98 100 99 98 100 100 99 99 100 99 98 98 99
94 92 92 97 98 98 98 97 96 97 97 96 98 97 99 98 100 99 96 97 98 99 98 97 97 100 100 100 100 99 98 100 100 100 100 100 100 100 100 100 98 98 99 99 100 100 100 100 100 100 100 100 99 99
88 87 91 96 99 98 97 95 92 94 95 96 99 96 98 98 100 99 95 97 98 97 97 99 98 98 98 98 97 97 100 100 100 100 100 100 100 100 100 100 99 99 99 100 100 100 100 100 100 100 100 100 100 100

GFSWCAN_sfc_rhum_063.txt.gz
RH
84 85 86 84 84 84 84 84 84 84 84 84 85 84 83 84 85 96 99 93 96 100 93 86 79 79 65 65 81 76 77 84 91 91 91 91 96 80 71 69 88 95 98 99 98 99 91 70 68 91 80 71 71 65
88 88 87 89 89 85 88 91 90 89 91 89 86 87 86 84 82 85 99 95 90 97 96 81 69 74 82 61 62 71 66 78 82 87 93 87 94 96 84 84 65 80 67 86 83 77 62 65 69 72 75 81 61 74
89 91 92 92 92 94 94 94 93 92 92 91 90 89 88 87 85 83 94 96 97 98 98 94 88 82 80 82 69 84 82 66 83 83 92 89 82 82 87 86 65 57 63 76 76 59 53 48 57 58 70 68 66 64
94 94 93 93 95 94 94 92 90 90 90 90 90 91 90 89 87 84 95 93 90 97 100 90 69 71 71 85 86 83 78 84 83 95 93 97 98 78 86 63 65 55 56 52 50 54 50 54 48 48 56 60 55 59
94 96 94 90 91 92 92 93 93 91 90 90 88 89 90 90 89 94 95 93 70 80 95 94 88 66 65 82 80 87 89 90 96 95 98 96 93 86 91 88 86 93 86 92 89 85 96 66 57 58 59 60 56 55
91 89 90 94 94 93 93 92 93 95 93 94 91 89 88 89 88 98 99 97 78 90 92 96 90 84 73 81 84 90 90 94 92 96 98 96 90 90 94 75 87 82 83 86 91 85 88 83 68 67 66 70 69 78
93 91 95 90 92 93 92 90 87 89 88 91 90 89 88 88 94 97 97 94 77 88 97 99 98 96 84 90 92 94 90 95 93 97 99 96 95 90 99 99 84 79 79 82 83 88 89 84 84 78 73 77 70 69
94 93 93 90 93 95 91 90 90 90 90 90 91 91 88 89 93 99 97 81 80 93 95 100 99 98 86 97 96 96 98 96 95 95 96 98 94 96 96 94 83 79 82 81 82 84 86 85 80 81 78 76 81 84
94 95 93 92 91 91 92 90 89 88 88 90 89 87 94 96 97 99 83 77 96 95 99 98 96 99 93 96 96 98 94 100 97 99 98 96 98 97 97 95 90 89 94 92 83 82 86 89 90 88 86 88 91 91
86 85 85 87 89 88 88 90 90 86 81 78 86 94 100 100 94 85 94 97 99 98 96 98 96 99 96 98 100 98 99 99 100 96 94 95 97 90 87 82 93 93 98 96 95 94 94 94 95 95 94 89 87 87
86 88 89 89 89 88 87 84 84 87 83 94 98 100 99 96 94 96 99 99 97 94 96 97 92 98 96 98 99 98 99 99 98 98 94 97 96 96 90 85 82 88 89 94 96 86 85 88 90 90 90 89 87 87
89 89 86 84 83 83 82 82 81 90 96 88 92 92 90 87 89 88 99 96 95 92 96 99 100 96 98 97 98 99 99 98 99 93 95 95 96 92 88 85 87 88 87 90 85 86 86 84 84 84 84 88 90 91
88 87 85 82 78 76 76 82 80 82 86 87 85 82 79 88 88 92 97 96 98 98 98 99 100 99 99 98 99 99 97 99 97 96 96 97 94 90 92 85 88 90 90 90 92 90 88 91 88 88 93 95 94 94
84 83 80 79 80 73 73 73 73 71 77 89 88 93 92 95 98 98 98 98 98 98 98 98 99 99 100 99 99 97 98 90 96 96 98 97 97 97 95 93 88 95 95 95 96 95 95 94 95 93 94 94 90 94
81 84 84 87 75 74 66 75 67 75 82 90 83 98 96 98 98 98 98 98 98 98 98 99 99 96 98 97 97 95 92 98 96 98 98 97 96 94 94 94 95 95 95 95 95 94 95 92 91 94 94 93 92 94
83 80 92 87 79 73 64 67 77 83 88 86 89 95 95 96 95 97 98 98 97 97 99 96 97 96 97 96 94 96 85 97 98 98 97 95 95 95 95 96 96 96 95 94 94 95 95 94 93 94 92 92 94 93
83 96 87 83 82 68 69 76 80 80 89 92 97 96 99 99 98 98 98 97 98 98 100 91 93 98 85 93 93 91 97 96 96 96 95 96 96 96 96 96 96 94 93 94 94 94 95 95 92 84 90 94 91 92
96 94 85 81 83 76 83 82 85 86 94 96 96 97 97 98 98 98 97 91 98 96 87 96 76 92 97 94 98 97 96 96 96 96 96 96 96 96 95 95 94 94 94 94 92 90 89 87 86 91 88 83 83 83
88 88 82 79 79 84 84 86 78 89 96 96 94 94 98 97 87 90 92 85 82 81 85 89 92 97 98 97 96 97 97 95 95 95 95 96 95 95 95 93 92 92 91 90 86 87 88 89 90 88 86 84 92 90
83 80 81 81 76 83 84 93 81 81 94 95 90 90 90 92 85 91 82 72 68 79 89 95 98 98 98 98 96 96 96 95 90 92 94 94 93 91 94 92 91 90 87 86 88 84 82 86 87 89 91 90 94 96
83 82 82 81 86 84 92 93 93 90 90 91 72 69 80 69 77 83 82 71 86 95 95 96 96 96 94 94 91 91 94 90 94 88 91 93 94 90 89 88 86 87 91 94 96 96 96 98 96 93 96 100 98 96
84 81 89 86 84 80 86 91 93 94 93 96 95 84 95 97 96 92 79 91 95 96 96 95 94 89 88 92 93 90 90 88 90 90 90 87 94 94 97 98 93 97 98 98 95 99 98 95 97 97 98 100 98 97
76 85 92 84 83 80 87 86 89 84 91 97 88 88 92 98 95 72 98 92 96 94 89 86 86 80 86 81 77 75 70 73 87 91 94 96 95 97 97 97 97 99 98 98 97 95 98 97 98 99 99 99 100 100
72 92 97 95 90 99 91 92 87 83 89 93 94 99 90 96 85 92 98 98 96 85 84 82 76 83 81 82 91 91 88 83 88 90 92 91 96 97 94 94 95 98 97 91 94 99 97 100 99 98 99 100 100 100
78 85 86 92 92 89 95 97 95 91 98 98 97 98 94 90 98 99 98 97 96 98 98 87 85 84 92 99 95 92 86 82 92 97 97 90 95 94 95 92 94 93 94 97 100 100 100 100 100 100 100 100 99 100
96 91 91 97 94 91 96 98 97 98 97 99 97 95 93 95 97 100 97 99 99 99 100 98 96 96 95 90 95 95 98 92 85 94 92 90 90 96 100 100 100 100 98 100 100 100 100 100 100 100 100 100 100 100
98 98 92 72 88 84 94 94 89 94 99 100 98 96 96 100 100 99 97 98 98 99 94 94 88 88 91 92 91 95 95 93 91 88 87 83 86 88 94 99 100 99 98 99 100 100 100 100 100 100 100 100 100 100
94 86 93 96 95 91 98 99 100 100 100 93 88 100 100 99 100 98 98 98 99 94 94 95 93 92 95 97 97 95 99 97 96 95 94 96 98 100 100 100 100 100 100 100 100 100 100 100 100 100 100 100 100 100
97 94 87 100 96 97 98 100 100 95 90 94 99 100 100 96 98 100 98 99 98 93 96 98 100 99 97 97 99 100 100 100 100 100 100 100 100 100 100 100 100 100 100 100 100 100 100 100 100 100 100 100 100 100
97 93 95 99 97 100 100 99 100 100 96 99 95 84 92 97 97 99 96 96 97 99 100 100 100 96 98 95 100 98 100 100 100 98 100 100 98 99 100 100 100 100 100 100 100 100 100 100 100 100 100 100 100 100
92 94 95 97 100 100 97 100 98 90 98 98 100 100 99 99 98 97 97 99 100 100 100 100 100 100 100 100 100 100 100 100 100 100 100 100 100 100 100 100 100 100 100 100 100 100 100 100 100 100 100 100 100 100
95 98 95 98 99 98 98 100 100 100 100 100 100 100 100 100 100 98 98 99 99 100 100 100 100 100 100 100 100 100 100 100 100 100 100 100 100 100 100 100 100 100 100 100 100 100 100 100 100 100 100 100 100 100
96 94 98 98 99 100 99 97 100 100 100 100 100 100 100 99 100 97 98 100 99 98 99 99 100 99 100 100 100 100 100 100 100 100 100 100 99 100 100 100 100 100 100 100 100 100 100 100 100 100 100 100 100 100

GFSWCAN_sfc_rhum_066.txt.gz
RH
88 88 87 87 86 85 84 83 83 81 79 78 82 85 88 91 91 95 95 93 97 99 96 85 78 89 84 74 86 79 83 90 94 98 88 87 98 82 74 79 90 90 97 94 99 98 94 65 65 66 71 69 59 62
86 88 87 88 90 90 87 92 85 86 86 82 82 83 82 83 89 95 99 95 92 98 97 87 83 77 75 61 65 67 70 81 83 93 94 87 95 96 83 90 74 84 80 86 85 84 64 70 57 58 63 59 57 70
88 89 91 93 93 92 93 92 92 89 91 92 87 85 82 85 87 89 97 96 97 100 99 98 93 77 74 84 84 86 79 68 87 82 93 90 83 85 90 89 68 66 69 76 80 60 59 55 55 57 63 61 55 63
94 94 93 92 93 89 90 93 93 94 91 94 93 92 85 85 86 89 97 96 96 97 100 96 80 89 77 76 86 90 72 77 86 94 93 97 96 80 89 74 79 65 63 67 65 50 68 45 67 82 72 61 63 66
94 92 93 94 94 94 93 91 91 91 89 88 92 92 90 87 85 91 95 94 78 81 96 92 86 68 82 85 81 91 82 79 93 92 97 97 94 91 96 96 95 90 92 85 60 96 91 89 84 80 76 80 78 71
94 92 92 94 95 94 94 93 92 92 90 88 88 90 91 92 91 96 100 96 78 92 94 98 89 86 72 69 84 91 91 90 90 90 97 94 89 88 98 96 90 82 81 80 90 85 93 88 89 85 85 78 73 73
94 94 94 92 93 93 90 86 88 95 92 89 85 87 90 90 96 98 94 96 77 88 94 97 99 91 78 83 94 95 91 94 95 97 99 97 97 95 99 100 92 83 75 76 78 83 92 94 95 82 80 74 74 73
92 93 93 90 91 92 93 90 85 88 93 91 87 88 91 89 91 93 98 84 79 93 94 99 94 99 87 99 99 96 98 97 94 96 96 98 96 96 98 90 81 80 82 81 81 79 86 80 82 80 77 75 82 85
91 94 91 91 91 93 90 95 93 93 93 94 88 89 91 95 98 99 84 79 95 95 99 99 99 99 94 98 97 98 96 100 97 100 94 94 97 97 96 94 93 88 91 90 94 91 83 90 90 90 84 84 88 90
88 89 90 90 89 82 89 84 87 90 88 82 85 95 100 99 86 87 94 98 98 97 98 98 98 99 96 100 100 99 100 99 98 98 97 95 98 96 89 82 84 92 96 96 94 96 92 92 92 89 91 87 86 86
87 84 84 85 84 87 84 83 82 79 82 95 98 100 99 93 95 99 99 99 99 99 99 95 95 98 96 98 98 98 99 99 99 100 98 96 94 96 86 81 80 85 84 89 94 94 90 93 93 91 86 83 82 82
82 82 80 77 77 82 86 86 82 89 94 92 95 95 95 88 93 97 98 98 97 93 96 100 100 97 99 96 99 98 98 99 98 97 95 97 96 95 82 83 86 86 84 84 89 90 90 89 92 89 86 87 89 88
84 83 80 78 75 75 80 85 84 84 84 82 81 76 75 88 89 92 95 96 97 97 97 99 99 100 97 97 100 100 99 98 96 96 96 97 94 87 91 85 87 85 87 88 90 87 88 92 92 91 94 95 95 94
84 85 86 80 70 76 72 66 70 69 75 87 86 92 92 96 98 98 98 98 98 98 97 98 99 99 99 97 98 96 98 87 95 95 98 97 98 96 93 92 86 96 95 95 95 95 95 94 95 94 94 95 93 94
80 83 81 82 77 68 67 70 62 74 82 87 81 99 97 98 98 98 98 98 97 98 98 99 98 94 97 97 97 94 94 95 95 98 99 97 97 95 95 94 95 96 96 95 95 95 95 95 94 95 95 95 94 95
79 80 88 84 73 66 62 66 77 81 86 80 87 93 95 96 95 97 97 98 97 97 98 93 96 96 96 96 93 96 89 96 98 97 97 96 96 96 96 96 96 96 96 96 95 95 95 95 94 95 94 94 94 94
82 94 86 83 62 66 67 77 82 78 87 89 99 97 99 98 98 98 98 97 97 96 98 89 94 96 93 94 94 93 97 96 96 96 95 96 96 96 96 95 96 95 95 95 95 94 95 95 93 87 90 94 92 93
94 92 84 83 79 73 81 83 85 78 92 96 96 98 98 98 99 98 96 91 96 90 82 89 68 90 96 95 96 98 96 96 96 96 96 96 96 95 95 95 95 94 94 94 94 93 92 91 88 91 86 81 82 82
91 88 83 77 76 82 83 87 76 89 97 98 98 97 99 98 94 90 92 86 81 80 84 89 92 96 99 98 97 98 97 97 95 95 95 95 95 95 95 94 94 94 93 93 91 89 88 89 90 88 86 84 93 92
83 77 84 79 74 84 88 95 80 81 94 95 86 90 92 89 85 96 86 78 72 80 90 93 96 98 99 98 97 96 96 95 90 92 94 94 93 93 95 92 91 92 88 84 87 86 84 87 88 89 90 91 95 98
77 83 80 79 86 85 90 90 92 91 91 91 71 73 78 73 80 86 87 72 87 94 96 96 96 96 95 95 94 92 94 90 94 91 93 94 94 90 90 90 87 87 92 96 96 98 97 100 97 91 96 100 100 100
84 79 84 82 84 82 88 92 92 94 89 88 92 82 94 97 97 94 84 90 96 97 96 94 94 90 89 92 93 90 91 89 91 91 92 88 92 93 97 99 93 98 98 100 98 100 100 99 97 97 99 100 98 98
76 82 89 82 81 82 95 88 94 86 93 96 89 86 91 97 93 73 98 92 96 94 93 90 87 79 86 83 79 77 73 76 88 93 95 97 97 98 98 98 98 99 100 99 97 97 100 97 99 100 100 99 98 100
70 89 96 95 89 99 92 93 85 84 91 94 95 100 92 96 83 93 99 98 96 92 89 87 79 84 82 82 93 93 88 84 91 94 96 94 98 99 96 97 98 99 97 94 93 99 99 100 100 100 100 100 100 100
79 89 87 93 93 89 97 98 96 93 100 98 97 99 96 89 97 99 99 99 98 100 100 91 85 85 95 99 97 98 92 89 92 97 98 94 98 96 96 94 96 96 97 100 100 100 100 100 100 100 100 100 100 100
98 95 94 98 96 92 96 99 98 98 98 99 100 93 94 94 97 100 98 100 100 100 100 98 98 97 96 93 96 96 98 95 90 97 95 96 90 97 100 100 100 99 98 100 100 100 100 100 100 100 100 100 100 100
98 99 91 70 89 86 96 95 90 95 100 100 98 96 95 100 100 98 98 100 99 100 97 97 92 92 94 97 95 97 97 93 92 90 90 88 90 91 95 99 100 99 99 99 100 100 100 100 100 100 100 100 100 100
94 86 90 97 96 90 100 100 100 100 100 92 89 100 100 99 94 98 98 97 98 95 95 95 94 93 94 96 98 96 99 99 96 95 95 96 98 100 100 100 100 100 100 100 100 100 100 100 100 100 100 100 100 100
96 92 87 100 95 98 98 100 100 94 91 92 99 100 100 96 98 99 97 98 98 92 96 98 100 100 99 99 100 100 100 100 99 100 100 100 100 100 100 100 100 100 100 100 100 100 100 100 100 100 100 100 100 100
98 94 97 99 99 100 100 98 100 100 95 99 97 89 95 97 97 98 98 98 98 100 100 100 100 97 100 100 100 100 100 100 100 100 100 100 98 99 100 100 100 100 100 100 100 100 100 100 100 100 100 100 100 100
94 96 98 98 100 98 98 100 100 91 98 99 100 100 100 100 98 98 99 100 100 100 99 100 100 100 98 100 100 100 99 100 100 100 100 100 100 100 100 100 100 100 100 100 100 100 100 100 100 100 100 100 100 100
97 100 95 99 100 99 99 100 100 100 100 100 100 100 100 99 100 99 99 99 100 100 100 100 100 100 100 100 100 100 100 100 100 100 100 100 100 100 100 100 100 100 100 100 100 100 100 100 100 100 100 100 100 100
96 97 98 99 100 100 100 97 100 100 100 100 100 100 100 99 99 98 98 100 99 99 100 100 100 100 100 100 100 100 100 100 100 100 100 100 100 100 100 100 100 100 100 100 100 100 100 100 100 100 100 100 100 100

GFSWCAN_sfc_rhum_069.txt.gz
RH
84 86 88 88 86 86 86 86 84 84 85 84 80 86 90 87 84 91 96 93 97 100 94 79 69 79 95 88 91 83 95 97 99 97 90 84 84 70 61 64 82 73 90 88 82 90 83 50 57 55 44 50 52 49
87 88 87 88 88 89 89 88 87 85 86 83 81 82 88 91 90 90 98 94 92 98 97 87 78 72 67 68 72 80 74 80 81 85 84 75 87 87 69 73 66 69 67 74 72 66 56 59 63 51 55 59 56 52
89 91 92 92 92 90 90 90 92 93 89 88 84 79 85 87 90 93 97 96 98 100 99 98 96 81 75 77 73 93 75 71 81 75 88 83 78 70 86 75 63 61 58 68 62 47 43 38 45 67 70 72 67 62
89 91 94 93 93 94 93 90 87 91 92 89 90 88 85 87 86 90 98 95 96 98 100 98 78 89 75 80 81 82 83 78 82 87 88 90 84 68 73 60 63 52 57 60 54 48 63 44 72 80 73 71 68 63
93 93 92 92 93 94 94 93 91 89 93 91 91 94 88 87 87 93 96 97 94 92 98 97 82 70 74 77 81 87 89 88 90 98 100 96 83 85 89 89 87 70 63 70 61 84 90 79 72 79 76 75 69 70
92 93 94 92 91 92 92 92 92 90 89 90 90 91 92 88 92 97 100 96 96 96 98 98 84 83 80 79 77 87 88 92 96 98 99 91 80 80 93 87 79 76 74 76 84 76 79 76 80 75 76 74 70 70
92 93 93 92 93 94 94 89 90 90 89 86 89 93 93 89 95 97 95 95 91 94 96 90 93 88 84 85 86 85 85 95 97 98 99 93 89 84 97 88 89 82 77 75 72 80 82 82 91 76 74 70 70 68
93 93 92 91 94 95 93 89 87 94 91 85 89 91 94 92 86 92 98 84 82 94 92 98 96 98 82 94 98 90 96 97 96 98 97 98 95 98 100 90 79 75 73 74 78 79 90 83 77 79 73 71 76 77
90 90 93 89 90 95 91 84 92 93 90 86 89 93 92 96 99 99 84 85 94 90 98 99 96 99 92 95 94 98 94 100 96 94 95 94 97 98 96 94 86 80 84 83 76 77 92 95 88 88 88 84 83 91
86 84 86 90 87 87 94 92 89 93 93 89 90 95 100 99 90 87 93 99 96 94 98 95 98 100 88 99 100 100 100 100 98 94 99 96 92 90 84 79 80 85 84 84 84 82 86 92 90 93 94 94 94 92
83 81 81 87 88 86 84 86 86 85 85 95 99 100 97 84 93 97 100 98 99 100 99 95 99 97 98 99 100 99 100 98 96 96 95 91 90 90 81 74 75 76 77 82 87 89 88 91 91 91 91 91 90 88
84 80 78 82 86 84 85 81 82 89 97 94 95 92 88 93 95 97 98 98 95 95 97 99 100 95 100 99 99 97 98 99 96 93 91 92 89 83 77 78 79 78 77 79 79 82 87 83 87 90 90 90 91 91
85 80 75 76 84 85 81 84 88 87 78 80 79 71 72 83 90 93 95 94 96 97 97 99 100 100 97 97 99 100 89 96 93 94 92 91 89 81 82 77 81 82 84 81 86 89 83 85 88 90 93 94 94 94
83 83 78 72 73 72 71 75 67 70 77 83 84 92 91 95 96 96 94 96 95 96 97 98 99 95 96 94 97 88 95 85 92 93 90 92 94 94 90 90 86 94 93 93 94 94 94 94 95 95 95 95 93 94
80 81 74 78 70 68 68 63 61 76 80 87 79 99 96 95 95 96 96 96 94 97 98 99 94 88 94 94 94 87 91 92 87 92 92 93 94 94 94 93 92 92 94 95 94 94 95 94 93 94 95 95 94 94
77 81 83 72 70 60 60 68 78 80 83 75 87 92 94 95 96 97 96 97 93 96 95 90 94 92 94 92 88 94 90 90 93 93 94 93 94 95 95 95 95 96 95 95 95 94 94 94 94 95 93 93 94 94
82 91 82 70 64 63 64 78 76 69 79 86 97 97 97 96 97 97 96 95 93 93 98 87 89 95 90 92 92 91 95 95 95 94 94 95 95 95 96 95 95 94 94 94 93 92 93 93 90 86 88 92 90 90
92 90 82 81 76 72 81 82 79 73 93 95 96 98 97 97 96 95 96 92 92 81 79 92 86 92 95 93 93 94 94 95 95 94 94 95 95 95 94 94 94 93 92 92 92 92 90 88 83 86 86 82 76 76
89 89 82 73 74 82 82 84 73 93 100 96 94 95 96 96 92 88 89 83 75 72 77 79 90 92 94 93 94 95 94 92 92 93 93 95 94 94 94 93 93 92 92 92 90 87 87 87 82 76 75 74 82 81
76 82 82 78 73 86 84 94 78 80 94 92 84 83 84 81 81 92 86 78 67 73 85 90 93 94 93 94 92 92 92 88 84 87 89 89 89 91 93 91 90 91 88 89 86 80 76 79 77 78 80 81 86 90
74 80 75 76 85 86 90 90 91 85 85 85 72 75 79 78 82 89 87 68 86 86 89 92 94 94 93 92 89 88 90 84 88 82 84 88 89 86 86 87 86 80 82 85 86 88 88 87 82 81 91 96 95 92
80 72 81 81 88 86 90 92 90 91 88 84 89 73 89 93 93 91 75 89 91 93 92 89 88 84 84 88 88 85 88 86 88 87 88 84 85 82 85 85 81 91 91 93 88 94 90 81 81 86 91 95 90 90
73 79 88 79 83 89 98 92 94 84 92 93 83 80 87 92 87 68 96 85 91 90 86 84 84 79 83 83 77 76 70 72 80 84 87 89 88 89 88 88 84 88 87 86 83 88 92 93 91 89 87 86 87 92
69 89 94 94 88 99 91 93 80 82 90 94 94 97 89 89 78 90 95 95 91 87 84 85 76 78 76 79 86 86 82 78 83 86 84 83 87 91 85 85 85 87 82 76 83 92 93 97 98 93 97 97 99 96
77 92 87 93 92 89 97 98 95 91 100 97 97 98 95 83 94 96 97 96 93 94 93 85 80 79 87 92 90 88 85 74 80 86 87 81 88 86 86 84 86 86 84 92 94 94 97 97 95 94 95 96 93 98
99 96 95 98 97 92 96 100 99 98 97 100 100 90 90 92 94 100 93 96 97 95 98 94 92 88 87 82 88 88 90 80 77 85 88 81 77 86 91 91 90 91 90 93 97 98 97 98 96 94 96 97 100 99
99 99 92 71 87 84 96 95 88 94 100 100 97 96 91 100 100 95 92 92 94 97 89 88 81 79 84 87 86 87 85 83 85 83 82 80 80 77 84 89 88 89 87 92 94 94 94 96 96 96 99 100 100 100
92 88 90 96 95 88 100 100 100 100 99 87 86 99 99 97 94 94 93 93 95 88 88 89 87 84 84 88 89 90 93 93 93 90 86 87 91 95 98 97 97 98 96 97 95 97 95 94 97 100 100 99 97 100
97 92 86 100 95 97 99 100 99 91 88 88 98 100 98 92 96 94 93 93 91 88 91 93 99 96 95 94 98 95 95 92 90 99 100 100 98 94 98 100 100 100 100 95 100 100 99 96 99 100 100 100 100 100
98 91 98 98 99 100 100 97 99 99 92 95 92 86 91 95 95 94 94 94 93 96 98 98 100 97 100 98 100 100 99 100 98 97 100 99 96 92 100 98 98 100 100 96 95 92 94 99 99 100 100 100 99 99
92 95 97 98 100 98 98 100 100 96 98 98 99 98 99 98 97 96 96 99 99 99 97 97 97 97 93 98 93 95 95 98 100 100 98 98 100 100 100 100 100 100 100 100 100 100 100 100 100 100 100 100 99 100
99 100 96 100 100 98 98 100 100 100 100 100 100 100 98 98 100 96 98 98 99 99 100 100 100 98 98 98 100 100 100 100 100 100 100 100 100 100 100 98 100 98 98 100 100 100 100 100 99 99 98 96 96 96
99 99 98 99 99 100 100 96 99 100 100 100 100 100 100 98 99 97 96 98 98 98 100 100 100 100 100 100 99 100 100 100 100 100 100 100 100 100 99 98 98 98 98 99 99 98 96 95 95 95 95 97 96 95

GFSWCAN_sfc_rhum_072.txt.gz
RH
82 86 85 86 87 87 87 87 87 86 86 86 86 86 89 90 89 96 96 90 90 90 72 54 59 55 53 64 68 87 95 98 100 97 77 61 66 49 44 42 71 78 75 83 73 75 77 34 40 49 50 40 37 38
86 85 85 87 88 90 90 92 88 88 88 85 86 87 85 81 86 92 98 93 85 90 93 62 52 49 53 51 67 88 70 83 70 77 62 58 68 64 45 52 36 66 48 53 47 47 40 43 42 35 49 53 49 52
87 87 88 88 90 91 92 89 90 89 90 87 86 85 84 81 89 92 97 94 97 98 91 79 80 60 62 61 67 97 84 74 74 54 72 64 75 44 68 49 40 36 31 49 44 34 31 28 34 49 51 55 52 49
87 89 91 92 91 90 91 92 92 89 88 89 89 87 82 84 87 90 98 94 92 98 100 94 54 57 52 60 68 72 66 68 68 71 85 83 72 44 52 40 42 31 33 40 39 33 31 29 41 55 58 54 54 51
90 91 93 91 90 90 90 93 94 92 88 88 91 88 86 86 88 94 96 93 87 78 90 73 70 57 64 71 78 75 82 81 86 95 99 92 56 62 60 62 49 32 35 47 43 53 60 54 50 60 62 60 58 58
93 91 89 92 93 92 93 93 93 93 89 89 91 89 90 90 88 97 100 98 86 91 96 89 65 70 69 80 88 88 84 90 95 97 99 94 67 68 78 59 36 56 58 61 62 64 69 67 59 66 66 61 58 57
90 90 92 90 90 94 94 90 90 90 88 92 89 90 92 93 94 96 91 86 94 87 93 86 77 73 65 71 82 86 87 96 97 98 98 97 73 70 100 71 72 66 60 59 62 69 67 74 88 71 68 60 59 56
90 92 92 90 92 92 94 89 89 90 89 87 90 93 93 86 87 97 91 90 84 84 76 92 88 90 70 97 98 83 97 97 97 97 95 90 78 96 100 81 66 63 58 58 67 63 70 81 76 76 72 69 69 70
85 86 93 91 95 88 87 85 89 91 86 92 94 94 94 95 98 98 83 85 87 81 84 97 92 96 73 75 73 82 90 100 91 100 99 93 100 99 94 89 78 75 76 73 62 58 70 84 83 84 86 83 81 83
84 85 92 87 93 91 94 92 94 93 92 86 87 95 100 97 90 88 95 99 98 97 89 88 88 100 74 80 100 99 96 100 100 95 97 97 90 82 72 69 72 81 82 78 82 73 75 79 76 81 88 89 85 85
82 83 86 87 89 90 94 92 92 84 81 85 97 100 98 90 93 96 100 90 96 99 86 79 84 92 94 87 92 99 99 93 91 96 98 90 86 88 68 66 66 66 65 69 72 75 73 76 77 80 86 86 86 87
79 81 84 83 85 90 87 82 80 70 73 80 93 92 92 86 88 94 98 100 87 88 94 100 99 96 98 96 94 99 100 98 99 84 93 87 84 69 66 69 72 71 67 68 67 71 72 73 75 80 82 82 86 87
80 78 83 84 87 87 87 83 80 80 64 53 58 61 64 82 88 86 93 92 92 94 97 99 100 100 99 100 100 98 93 95 88 95 87 84 77 69 70 67 71 68 70 71 77 76 74 82 82 81 88 91 92 92
80 79 75 76 78 80 76 68 67 56 51 68 74 85 87 86 84 86 85 89 92 96 97 98 94 91 97 100 100 95 96 79 90 88 85 83 86 84 86 86 78 89 91 91 91 91 92 91 92 92 92 93 91 92
75 76 75 70 72 67 66 64 57 49 55 72 65 90 86 87 86 89 90 89 89 94 97 92 86 74 89 91 88 86 83 85 78 85 84 86 91 90 90 89 91 91 92 91 92 92 92 92 89 91 92 92 90 92
79 69 66 74 65 60 60 54 52 51 58 65 77 85 87 91 92 92 92 93 89 93 90 79 88 85 90 82 80 88 75 81 86 87 90 89 92 93 92 91 91 92 91 92 92 92 91 91 91 92 91 90 92 91
76 70 74 65 62 60 60 54 52 57 66 75 90 87 89 88 92 92 92 90 85 92 96 77 84 91 74 80 81 81 91 92 92 92 91 93 93 93 93 93 94 93 92 92 91 90 91 91 90 86 88 91 88 87
77 73 81 83 72 56 52 52 57 62 84 81 85 91 88 89 90 89 89 79 81 75 74 88 69 82 87 82 89 90 89 91 90 91 91 91 93 93 93 92 93 92 91 92 91 91 90 90 85 84 83 73 66 65
80 77 78 72 62 56 56 57 51 77 85 81 80 76 77 79 72 75 77 67 59 56 66 75 82 87 89 86 87 88 86 82 84 86 87 91 92 92 92 91 91 91 90 90 88 83 83 83 72 62 60 59 65 65
79 83 80 76 67 59 62 65 51 62 76 77 66 68 64 66 70 82 77 63 59 68 79 85 87 88 86 85 78 82 83 80 75 78 81 81 81 86 88 84 82 86 81 82 77 69 64 64 61 64 65 65 72 75
72 73 69 58 67 61 62 62 65 61 65 67 59 52 61 65 76 84 83 67 75 75 81 83 88 86 81 78 71 70 75 68 72 71 75 78 78 73 74 76 76 70 69 71 72 73 72 70 62 64 78 84 82 80
63 66 66 65 71 67 65 60 62 61 60 65 62 55 73 82 81 80 56 74 78 83 79 78 76 71 71 79 77 75 81 78 79 76 77 72 72 68 68 67 65 76 73 76 69 78 72 63 67 70 78 82 71 74
68 66 70 68 86 82 94 82 80 66 78 76 63 65 72 77 68 51 78 66 80 80 74 70 73 68 72 71 66 64 60 59 62 67 68 68 66 69 68 66 67 74 73 67 62 68 77 76 79 80 78 75 75 80
62 83 86 85 78 95 81 82 61 68 70 75 74 78 74 72 60 71 82 78 78 71 70 74 66 70 65 63 63 64 62 56 60 64 63 62 66 67 61 62 64 67 60 58 66 75 77 86 85 76 83 81 82 80
73 90 83 87 78 80 84 84 82 74 88 83 84 84 84 66 81 81 83 81 78 82 79 68 62 59 66 72 65 65 64 53 57 62 64 60 67 65 64 60 64 64 67 78 81 81 86 84 82 81 78 80 73 74
94 92 86 87 87 78 81 85 86 87 84 88 89 78 78 79 82 89 75 82 85 82 88 84 80 72 66 60 65 66 65 59 57 63 66 59 61 72 74 74 73 75 72 79 82 80 81 82 81 75 80 78 92 80
91 94 76 60 68 71 86 82 74 83 90 90 83 80 74 83 90 81 78 77 73 78 68 67 60 59 65 66 67 69 66 67 69 65 66 62 63 62 71 77 68 74 70 77 80 79 78 81 81 80 80 81 82 83
79 75 82 88 84 75 89 87 87 91 88 73 70 89 82 80 84 80 78 80 81 73 73 72 66 62 62 67 69 74 76 77 81 75 72 72 71 77 81 80 80 89 82 85 83 83 80 80 80 81 81 83 83 85
85 76 71 93 84 85 89 90 87 79 74 70 84 84 85 76 84 82 82 81 78 75 78 80 87 83 81 79 83 75 78 80 73 76 66 80 84 86 81 82 83 84 85 81 85 83 79 84 82 84 77 84 84 86
89 73 83 87 89 91 92 86 90 90 76 80 69 72 73 84 89 83 83 81 80 87 87 86 89 85 87 84 88 86 88 89 90 89 83 82 84 86 86 85 84 87 88 84 82 73 74 81 80 87 86 85 84 84
76 79 83 82 89 88 89 93 87 83 85 85 83 85 86 87 89 88 86 90 89 91 90 89 85 85 85 88 86 86 88 92 91 85 86 88 88 88 89 90 90 89 88 87 85 83 83 84 83 84 82 82 80 86
86 85 85 88 90 88 90 91 90 89 89 85 89 87 90 86 88 89 91 90 90 88 95 85 86 87 87 91 92 92 99 90 89 89 87 88 88 88 85 84 88 85 84 84 85 85 82 81 83 80 80 77 77 79
83 83 84 88 92 92 94 87 82 89 88 89 92 94 92 87 90 90 88 90 91 90 90 90 91 91 89 84 84 92 87 90 94 94 96 94 91 89 85 86 87 88 85 86 86 86 84 83 83 80 78 80 79 79

GFSWCAN_sfc_rhum_075.txt.gz
RH
77 82 83 84 85 84 85 87 89 88 88 86 86 87 90 80 79 87 93 74 88 97 54 44 45 61 55 48 69 92 96 98 100 100 79 61 61 50 39 39 56 63 77 79 69 85 68 24 26 41 49 41 38 37
83 83 84 86 86 86 87 87 88 89 92 88 87 87 85 88 87 89 98 92 76 92 57 45 42 40 46 62 86 76 72 83 70 82 59 55 64 59 43 50 37 62 47 52 41 41 33 32 40 41 42 43 42 42
82 84 86 86 87 88 89 90 90 91 89 90 88 87 86 85 88 92 97 95 97 98 84 62 58 50 44 42 53 86 90 69 72 56 82 86 82 44 63 45 40 35 51 62 75 41 58 33 25 36 41 45 42 42
84 86 84 87 88 89 91 88 89 90 90 89 89 88 86 85 84 89 98 95 94 97 96 59 38 47 42 44 52 58 60 69 77 82 92 82 75 39 49 40 40 31 32 33 32 28 24 24 36 43 46 44 45 45
86 87 89 90 91 92 91 90 91 91 92 90 90 90 86 84 83 91 96 94 77 53 82 56 39 43 38 43 54 65 73 73 96 98 100 90 51 58 50 51 52 28 33 42 44 57 54 44 46 51 52 54 53 52
92 92 92 91 89 91 91 92 92 91 93 92 89 90 89 86 86 98 100 97 79 73 78 89 45 45 51 47 54 58 73 92 95 99 98 67 50 70 82 58 35 37 47 50 55 52 54 50 54 59 62 61 58 53
90 90 90 90 93 92 91 92 93 93 93 90 87 91 90 89 95 98 90 80 83 85 93 80 78 58 50 62 75 78 81 96 93 98 98 92 65 62 94 73 90 55 49 47 52 54 53 58 72 63 62 62 60 53
88 87 90 91 94 92 91 93 92 93 92 88 90 89 91 86 88 92 80 86 78 94 92 98 87 76 62 97 98 92 98 97 97 96 97 93 66 87 100 73 57 54 51 54 55 49 61 70 68 67 64 61 64 65
85 86 91 95 90 88 86 87 88 88 90 90 92 93 94 94 97 97 86 84 91 93 94 94 84 92 70 78 78 90 77 100 88 99 86 72 79 100 93 87 70 67 67 64 56 50 58 71 67 68 68 69 70 73
84 90 89 94 94 90 92 94 92 89 93 91 90 96 100 95 93 87 93 99 99 93 76 85 79 96 66 73 81 93 88 100 100 97 98 100 92 78 61 56 61 71 69 68 73 72 71 71 72 75 79 77 77 79
83 87 92 93 94 93 94 91 87 84 80 92 99 100 97 88 91 97 100 99 99 100 75 74 74 81 84 84 93 93 96 91 94 96 99 97 88 84 60 57 57 58 57 60 65 68 68 71 75 76 75 74 74 76
84 88 88 91 89 92 85 80 80 79 78 77 92 93 91 92 100 95 97 92 78 86 80 85 87 90 94 93 82 99 100 90 98 81 97 94 79 64 63 64 64 64 63 64 62 66 67 69 74 77 77 81 82 82
81 85 87 91 83 78 80 78 77 77 66 57 56 68 65 80 95 99 94 84 95 96 96 100 99 100 99 98 100 94 100 97 81 99 92 87 81 74 74 67 67 64 69 69 73 72 71 79 82 84 91 92 90 89
78 79 82 85 78 73 68 66 65 54 44 64 82 90 90 91 83 85 91 94 94 98 100 99 99 92 99 100 100 100 97 76 89 89 90 87 86 84 80 79 75 86 86 86 86 87 89 90 92 93 93 92 90 90
78 76 68 68 68 66 66 65 59 44 50 68 65 89 86 85 85 91 94 94 91 98 100 91 85 76 93 96 87 87 88 84 80 88 87 82 81 80 82 83 87 88 89 90 91 90 92 92 91 92 92 92 89 91
72 65 70 70 65 61 60 53 47 45 56 66 77 86 86 94 95 94 97 99 92 97 95 76 89 95 90 83 83 87 72 83 86 86 86 81 88 90 92 93 93 93 92 92 91 90 90 90 89 90 89 90 92 91
78 56 66 62 59 59 60 46 48 53 64 73 88 84 88 87 93 93 92 92 89 98 94 75 91 91 68 79 80 76 89 89 87 88 89 92 93 93 93 93 94 93 92 92 91 90 90 90 89 86 87 91 87 84
64 65 68 65 58 53 44 45 54 59 83 84 84 93 88 89 91 90 89 79 79 74 70 86 60 81 85 78 83 86 85 86 83 84 86 90 91 92 91 90 90 89 89 90 90 90 89 89 85 83 82 66 57 56
69 64 80 82 59 47 53 54 49 74 83 82 83 81 82 86 78 76 75 65 56 55 64 67 78 80 85 84 86 87 85 80 81 81 82 85 84 85 85 85 85 86 86 86 83 78 78 80 68 56 53 51 56 57
81 77 76 71 62 49 55 60 47 59 75 74 66 67 64 70 72 83 79 65 55 60 74 78 85 90 86 82 75 80 78 72 68 73 77 77 76 80 86 81 78 82 77 80 78 73 59 56 53 55 55 56 64 66
65 65 64 52 49 48 52 55 59 58 60 67 54 55 72 68 76 79 73 52 71 70 79 82 87 85 82 82 74 73 76 70 73 74 73 75 74 69 71 72 74 71 72 71 66 66 64 62 55 56 72 78 76 72
52 63 54 54 58 53 59 50 57 54 63 64 59 56 76 84 80 75 53 70 74 83 79 76 70 66 69 74 70 68 73 71 73 69 72 70 69 67 66 63 59 68 65 67 61 70 65 55 60 64 73 76 64 70
65 58 64 65 90 78 87 72 77 61 79 68 58 65 73 75 61 46 73 62 77 72 65 61 62 60 64 60 56 54 51 52 57 62 62 60 57 61 59 58 60 68 66 57 52 60 69 67 70 73 71 69 70 75
61 89 94 90 75 93 80 75 53 57 62 68 68 74 71 70 57 66 77 74 74 62 63 66 58 60 57 55 54 54 50 46 50 54 53 52 55 56 51 52 55 58 52 49 56 66 67 76 79 67 72 72 73 73
67 88 88 86 74 77 78 80 73 67 78 72 75 76 78 63 76 75 76 79 76 79 70 59 54 54 59 62 56 56 52 45 49 52 54 52 58 54 52 48 53 53 57 73 74 74 77 75 74 73 69 72 64 64
85 85 81 80 78 73 69 79 77 76 74 78 80 70 76 74 76 82 69 80 86 79 86 79 72 62 55 50 53 55 56 52 48 53 54 50 53 66 67 67 65 68 61 72 74 73 71 71 72 63 71 71 82 76
84 86 68 52 56 61 78 74 64 75 78 79 75 73 70 77 82 76 70 67 70 71 62 61 55 54 57 58 58 59 57 60 64 57 53 51 54 55 67 73 62 69 61 68 72 71 71 71 71 71 71 71 71 73
70 69 82 83 78 66 80 77 78 80 78 62 62 77 74 73 78 82 74 76 74 64 64 62 56 54 56 60 64 68 70 71 74 67 64 63 62 68 70 72 72 80 74 78 76 74 73 72 72 71 71 74 75 73
79 67 66 85 76 78 81 80 78 70 62 63 77 76 79 71 80 79 79 73 70 70 74 77 81 78 75 71 72 68 71 73 62 61 58 71 75 83 70 72 73 73 75 74 77 72 69 74 74 76 73 76 75 76
82 67 76 78 81 84 88 81 87 82 64 67 64 69 76 83 87 80 79 78 79 85 82 80 81 80 81 78 81 77 79 80 81 81 78 77 79 78 77 76 76 77 76 75 74 66 70 74 68 80 82 76 76 76
66 74 75 74 82 86 88 87 83 80 82 80 77 81 82 85 86 82 79 81 82 84 84 84 82 79 79 77 76 76 82 87 83 80 76 77 78 78 79 80 79 77 76 75 75 75 76 77 75 74 73 73 71 75
79 75 78 81 87 84 88 80 79 82 80 82 85 80 84 80 83 84 85 83 83 83 91 76 80 84 83 84 83 87 82 81 80 80 63 77 79 77 76 74 78 77 76 76 76 76 74 75 77 75 75 72 71 72
78 76 75 78 86 83 85 77 68 80 77 78 84 83 85 80 84 87 82 85 91 87 82 87 86 86 82 76 78 83 74 83 86 84 83 88 88 85 81 79 78 78 76 78 77 76 76 74 75 73 73 73 73 72

GFSWCAN_sfc_rhum_078.txt.gz
RH
64 70 76 79 83 84 84 85 86 86 85 90 90 86 83 85 88 87 79 71 82 96 62 48 42 53 56 57 77 81 92 95 100 97 82 64 72 54 51 44 64 58 77 80 72 71 73 28 32 56 65 59 47 45
72 76 80 83 83 84 84 86 86 87 87 88 92 88 87 88 87 84 88 72 75 89 59 51 46 42 40 49 85 92 90 87 64 72 60 65 78 76 51 58 49 85 49 58 48 50 35 37 54 46 44 51 50 50
76 82 82 82 84 85 85 85 88 90 91 89 91 88 87 88 82 82 90 88 89 98 96 71 59 46 38 40 58 99 80 61 78 96 96 95 88 61 73 52 44 49 53 69 65 40 43 78 55 46 42 46 44 45
82 82 83 85 86 85 86 88 90 91 91 90 89 92 87 88 87 84 96 93 94 98 96 63 41 53 39 38 49 71 71 58 72 91 99 89 87 68 72 50 51 44 63 64 81 75 61 73 74 51 49 50 49 47
83 88 90 90 90 90 91 91 91 91 90 90 90 90 88 87 87 92 96 96 91 79 90 66 45 32 37 44 43 47 61 74 86 97 100 92 59 68 59 57 53 47 69 84 88 65 74 78 59 54 56 56 56 53
90 92 91 92 91 91 90 90 90 91 92 91 91 89 87 88 84 98 100 97 91 84 99 98 69 41 35 41 47 56 72 82 94 98 96 85 58 67 81 69 75 60 48 52 62 51 54 60 58 57 59 59 56 54
92 90 88 87 89 92 92 92 93 91 91 92 92 89 92 89 94 98 93 82 88 90 99 89 74 49 38 51 63 63 66 91 96 99 99 86 70 80 91 74 93 81 62 54 51 51 56 65 70 62 59 58 57 56
91 86 84 91 94 96 88 90 94 92 90 93 92 89 93 92 92 94 85 85 81 97 79 98 96 76 54 86 89 83 98 98 98 98 95 82 66 73 100 74 58 58 54 57 56 50 62 59 56 60 57 56 58 65
88 87 93 91 94 94 86 92 95 94 93 90 94 93 95 96 98 95 89 84 87 89 92 99 95 97 75 95 89 98 97 100 96 100 83 70 74 98 96 87 74 69 69 66 57 58 57 65 70 70 70 72 76 78
85 88 94 94 92 88 89 90 92 92 94 89 89 97 100 97 90 94 98 100 99 96 89 86 77 93 67 90 97 94 97 97 98 92 83 88 90 72 58 57 61 66 64 64 73 76 73 73 78 76 81 79 80 84
88 93 95 95 96 95 95 91 93 89 82 93 98 100 94 94 96 98 100 100 100 100 73 76 87 87 73 84 89 87 96 92 92 99 97 97 90 85 64 60 59 60 60 62 70 72 75 79 86 83 81 80 81 83
89 87 90 93 94 93 91 89 87 92 92 85 93 94 96 97 99 98 100 98 89 78 83 81 88 85 91 94 92 96 98 95 92 92 100 94 91 73 68 65 70 74 69 72 72 80 80 81 81 80 81 86 88 88
92 92 82 84 90 92 93 92 88 84 79 73 73 95 97 90 100 98 93 89 92 97 100 98 98 96 90 94 100 96 98 97 84 96 92 91 81 70 69 66 68 66 70 73 78 77 76 82 83 82 91 94 92 94
89 88 78 77 76 74 73 69 66 63 58 74 84 89 90 85 88 92 94 95 98 100 100 95 98 93 100 99 100 99 93 84 89 91 92 89 87 84 79 78 75 87 88 87 90 91 93 92 94 94 94 94 91 93
78 78 73 67 70 69 67 63 58 51 53 69 66 88 84 87 88 94 96 94 95 100 100 100 95 84 98 98 94 86 88 88 84 92 93 89 89 87 88 87 88 89 93 94 92 91 94 94 93 94 94 94 92 94
78 71 66 66 62 61 66 54 46 50 62 65 77 87 93 89 94 93 98 97 98 100 99 88 92 87 86 80 74 88 82 89 92 91 89 84 90 93 93 92 93 92 91 92 92 91 90 92 91 91 90 91 94 93
78 53 63 66 63 60 60 48 51 80 66 72 88 87 93 88 95 95 96 95 94 99 95 82 81 83 66 77 82 81 91 93 90 90 89 91 91 93 93 93 94 91 89 89 89 88 90 90 91 87 89 92 88 82
71 56 65 60 64 52 43 46 56 60 81 87 88 94 89 94 94 94 90 84 83 73 71 81 61 80 89 86 88 89 90 90 85 86 85 84 86 90 88 89 91 90 90 90 88 88 87 88 84 84 83 69 58 58
71 63 72 73 72 48 56 56 51 74 85 85 88 88 87 89 82 79 80 72 60 56 64 66 76 83 88 87 91 88 86 82 86 88 86 88 86 87 87 86 87 88 90 89 83 80 77 77 71 63 55 52 60 60
77 74 69 64 60 49 58 61 49 64 79 77 69 69 72 81 82 85 80 65 56 62 76 83 90 94 92 90 81 84 80 74 72 80 83 84 77 81 90 83 78 82 79 82 80 76 63 58 55 58 62 65 75 75
57 53 65 50 48 47 53 59 61 62 64 70 67 64 81 72 78 80 75 56 75 77 84 86 88 89 89 88 82 77 86 88 89 85 73 80 79 74 76 77 78 81 81 80 74 67 69 64 57 63 80 83 84 77
56 64 54 53 59 56 61 52 58 57 66 66 67 65 82 87 82 76 56 72 77 90 82 77 75 68 70 74 71 68 70 68 71 70 74 73 76 75 74 70 69 72 67 70 66 75 68 62 70 69 78 79 83 84
66 56 64 65 86 74 85 66 76 67 80 69 61 69 76 75 63 49 75 65 80 70 63 59 60 58 62 58 53 52 51 54 61 64 64 62 59 61 60 58 61 68 66 58 53 68 76 74 70 76 73 76 78 79
64 92 97 87 72 86 78 74 54 59 65 66 66 74 72 71 56 66 80 80 74 61 61 65 59 62 58 54 54 52 49 47 52 55 53 52 57 56 51 53 57 60 54 52 59 70 71 80 85 70 74 72 80 80
68 86 87 87 78 76 75 75 68 66 76 68 71 74 77 65 73 73 78 80 78 79 70 59 58 62 63 64 58 55 51 46 51 54 53 52 57 54 52 48 54 53 59 76 76 77 80 78 74 76 70 77 74 75
84 82 80 75 76 69 66 80 76 74 72 77 76 69 71 72 74 81 76 83 86 79 86 82 72 61 56 52 56 59 58 52 47 57 55 52 55 68 70 68 66 84 65 76 76 73 73 70 74 70 73 82 90 75
81 81 64 51 54 61 76 70 63 72 75 78 76 76 71 77 82 80 84 73 78 77 66 64 58 60 60 60 58 60 59 62 66 58 52 53 58 60 74 89 84 80 63 70 73 76 82 76 71 71 75 74 73 76
68 69 83 80 77 66 77 74 76 77 74 57 62 76 76 75 83 83 78 79 74 65 65 62 58 57 60 63 66 70 72 73 75 69 68 66 64 70 73 77 75 82 77 81 84 77 78 78 77 75 74 77 82 80
76 64 67 87 75 76 80 78 77 67 60 62 76 76 78 75 83 83 75 72 70 71 75 78 81 77 74 70 73 69 72 76 74 70 67 73 88 87 73 74 74 74 76 79 79 77 73 80 81 87 81 82 81 80
78 64 74 77 82 84 88 77 84 78 63 70 69 77 80 89 87 74 79 81 84 88 85 81 83 84 84 82 81 79 80 81 84 85 85 89 90 80 76 76 77 78 76 78 78 74 81 79 81 85 92 90 85 82
64 70 73 73 83 84 85 84 86 85 83 81 80 83 82 86 84 83 84 82 81 83 84 84 84 78 77 77 81 79 94 89 84 82 78 76 76 81 84 80 80 80 78 77 78 78 79 80 80 79 77 78 80 80
74 74 77 80 87 88 93 86 83 88 83 83 86 83 84 81 84 86 84 90 88 88 86 80 85 87 82 82 84 85 83 81 80 78 75 79 83 78 75 73 76 76 78 78 77 78 77 77 80 80 81 78 80 81
79 78 77 78 86 79 84 76 69 76 74 77 84 84 89 83 87 89 80 83 94 83 90 88 87 85 80 79 79 82 83 86 87 90 91 94 93 92 92 79 79 78 76 80 79 78 77 75 78 79 80 82 81 81

GFSWCAN_sfc_rhum_081.txt.gz
RH
78 69 70 73 74 76 79 82 83 84 84 86 87 85 87 87 87 95 89 80 85 98 75 66 63 73 73 79 100 94 92 97 99 97 94 87 91 76 73 77 96 75 83 91 91 92 87 45 48 66 85 67 58 57
68 68 73 75 77 79 83 83 83 84 85 86 86 88 88 88 85 92 99 76 85 91 82 70 67 62 65 65 74 95 100 99 93 92 91 91 96 92 73 97 74 99 68 83 69 72 76 81 80 78 73 78 68 62
67 69 75 76 79 83 83 83 84 85 86 88 91 90 88 90 85 85 97 89 94 99 97 91 69 48 51 61 69 93 94 92 89 95 98 94 99 96 96 80 78 85 85 88 76 90 90 90 73 63 61 56 56 58
66 74 77 81 83 86 88 88 88 87 88 90 90 91 91 88 85 86 96 94 92 96 98 78 52 68 52 48 60 76 77 90 88 95 97 99 100 88 99 98 86 80 85 92 89 89 90 90 88 65 60 58 55 54
72 78 81 86 89 92 92 91 89 90 91 92 89 87 90 90 88 89 94 94 84 74 97 93 74 55 49 60 60 74 81 84 94 98 100 98 87 87 85 85 98 72 91 99 99 97 94 97 76 68 65 63 63 62
76 81 88 91 91 91 91 92 92 92 92 92 90 87 88 90 87 97 100 96 88 85 98 99 87 79 58 59 66 67 81 87 96 92 95 93 80 91 97 99 97 88 65 66 97 83 86 78 67 61 66 62 62 66
81 86 90 91 88 86 88 91 92 92 90 91 90 90 90 90 96 98 96 93 87 90 100 99 94 74 58 65 79 81 80 96 96 98 99 93 90 88 100 99 70 68 71 59 56 82 86 70 74 64 63 60 64 63
86 90 91 89 86 90 92 92 92 93 92 91 90 89 92 92 93 96 95 88 86 98 98 100 96 97 74 93 95 93 97 97 97 98 98 98 86 93 98 86 70 66 63 64 65 63 67 66 68 71 69 67 73 75
92 92 88 84 86 92 94 94 91 88 92 90 89 92 97 97 99 98 89 87 91 96 99 91 96 99 90 96 98 98 97 99 98 99 97 93 97 98 98 96 80 72 72 71 64 66 68 78 78 78 79 77 82 87
89 88 92 95 96 92 89 94 94 93 90 91 91 98 100 98 89 88 97 100 100 98 98 96 95 100 90 97 99 98 100 99 100 96 94 99 97 83 70 67 71 79 76 80 82 83 78 87 85 88 92 90 88 90
91 94 93 95 94 92 95 96 92 91 85 97 99 100 98 85 96 99 99 99 100 98 96 91 87 97 92 98 100 97 99 99 95 95 93 98 98 96 73 74 75 75 74 83 85 89 91 89 89 86 87 86 87 88
87 92 93 95 94 93 92 91 87 93 97 93 95 95 96 99 100 99 99 99 97 95 96 98 98 94 99 95 96 94 90 97 98 100 99 96 96 83 76 75 80 92 83 86 80 83 84 83 84 86 88 91 92 91
85 91 91 91 92 92 92 94 90 82 84 88 91 99 99 99 99 98 99 100 99 100 100 100 100 99 98 98 100 99 95 98 99 99 98 98 89 84 85 80 84 80 82 82 84 85 86 89 86 87 95 95 93 94
86 88 84 90 89 90 92 92 88 78 72 87 91 95 96 97 97 99 98 99 100 100 100 97 99 99 99 98 100 98 96 98 97 97 98 98 99 96 90 85 90 98 96 96 96 95 96 94 96 95 95 95 92 94
77 73 73 78 77 75 67 66 65 67 76 85 83 97 96 97 98 99 99 98 99 100 100 99 98 95 99 97 99 95 97 98 97 99 99 99 99 97 98 96 97 98 98 97 97 96 97 95 94 95 95 95 94 95
77 74 69 67 65 65 66 60 68 72 77 81 90 97 98 96 98 97 98 99 99 99 100 99 97 94 98 96 91 98 97 99 99 98 99 98 98 98 98 97 98 97 96 96 95 94 95 95 94 96 94 94 95 94
80 73 66 68 65 64 59 68 85 82 81 82 98 97 98 97 98 99 98 98 100 100 98 94 89 95 91 92 95 98 99 99 98 97 97 96 97 99 98 97 97 97 96 96 95 95 95 94 94 91 92 96 88 84
69 71 69 70 77 62 64 67 77 77 94 97 97 98 97 98 98 98 98 90 96 96 91 91 85 90 99 97 99 99 98 97 96 96 97 97 97 97 97 97 98 96 97 98 96 97 95 94 91 95 91 79 68 68
68 72 72 73 80 69 73 73 70 90 98 97 98 97 97 98 96 93 94 90 78 77 89 90 91 98 99 99 96 97 97 97 97 98 98 97 95 96 97 95 96 97 97 97 94 95 92 87 85 86 88 76 83 85
82 79 80 77 66 71 71 82 72 84 96 95 91 93 97 99 96 94 85 77 72 85 92 96 98 98 97 97 96 96 97 92 93 97 97 98 97 97 97 96 97 96 96 96 96 93 79 76 70 77 85 92 94 97
64 67 68 64 68 70 77 82 81 82 85 92 87 81 95 86 89 94 92 77 89 94 96 96 96 95 89 90 85 88 93 91 96 91 96 98 97 96 97 97 97 97 98 97 95 92 89 94 95 93 96 100 98 98
70 69 79 76 82 76 80 77 80 77 85 86 93 84 95 96 96 92 77 88 97 97 98 95 92 84 85 88 90 86 88 87 89 89 92 92 97 98 96 98 96 96 94 96 96 95 97 97 96 97 97 99 95 97
72 74 89 86 84 86 94 84 91 83 92 90 88 85 93 95 87 70 93 84 97 92 80 76 73 69 75 71 65 66 64 68 85 90 90 93 94 94 92 92 90 94 94 92 94 91 95 96 95 97 95 96 94 95
75 94 91 92 88 96 91 88 77 82 88 88 85 91 86 92 80 91 96 98 94 86 83 79 78 82 76 64 76 79 80 74 81 85 89 87 88 91 87 89 89 93 93 94 94 96 97 92 92 98 93 96 94 96
80 87 92 95 89 89 89 88 85 87 90 85 88 93 90 91 93 94 96 97 96 96 94 87 86 86 85 93 92 87 73 74 77 81 82 87 93 91 88 82 85 85 91 97 98 97 94 95 97 93 97 95 93 99
94 90 88 88 90 86 88 92 90 90 92 92 92 89 94 93 92 98 94 96 96 97 95 94 93 87 87 76 82 86 90 81 80 81 83 76 85 97 99 98 96 98 94 98 98 98 94 95 93 84 95 90 88 82
95 93 85 70 82 82 92 90 85 91 90 93 96 95 91 95 100 100 97 94 96 96 91 91 85 77 80 82 81 85 88 86 85 80 83 83 86 90 97 100 100 99 97 97 97 99 99 98 95 91 93 97 98 98
84 83 96 95 91 85 91 93 92 92 92 86 89 94 95 95 99 98 98 91 87 80 82 82 80 79 84 88 92 94 95 94 93 92 91 93 96 97 96 96 95 96 96 95 98 98 98 100 100 99 99 98 98 99
93 84 84 92 88 92 96 97 96 90 84 90 95 97 99 97 97 95 91 90 87 87 92 94 97 96 94 94 95 95 95 98 94 85 89 99 99 98 96 97 98 96 98 98 93 97 91 96 99 97 97 99 99 99
90 87 90 91 95 98 98 97 97 96 90 95 93 90 91 95 96 97 96 93 94 96 97 96 97 97 99 96 100 100 98 99 100 100 100 100 99 99 99 99 99 98 98 98 99 98 98 99 99 99 99 100 100 99
88 92 88 91 97 97 95 92 88 87 86 86 89 89 97 98 97 94 96 96 96 96 96 98 97 98 97 98 99 99 100 100 99 98 98 99 100 99 100 100 98 98 100 97 97 99 96 96 99 99 98 96 95 98
92 90 92 96 98 97 97 95 95 96 95 96 98 96 99 97 100 99 99 98 98 98 96 95 96 100 98 99 99 98 98 100 100 100 100 100 100 100 99 97 98 98 95 96 100 99 98 97 99 99 100 99 96 96
87 86 86 94 98 98 97 94 93 93 94 96 98 97 99 97 100 100 97 98 97 94 96 96 96 96 94 96 98 98 99 100 100 100 100 100 100 100 100 100 100 99 100 100 99 100 99 97 99 97 96 97 98 98

GFSWCAN_sfc_rhum_084.txt.gz
RH
66 66 71 74 71 67 68 68 71 74 78 82 84 84 86 86 84 94 95 78 86 97 75 72 72 83 82 93 97 93 92 95 96 99 97 89 93 77 79 71 77 85 93 93 92 94 84 77 70 76 84 72 69 68
65 71 76 71 70 68 68 71 77 81 83 83 84 85 87 87 87 88 100 82 83 94 85 74 70 66 64 64 82 92 100 100 99 99 96 97 98 96 87 92 81 98 94 90 76 74 88 83 87 75 79 85 80 79
70 77 72 66 68 71 74 79 84 85 84 85 85 86 87 88 87 88 98 92 97 100 95 83 69 55 56 62 73 94 95 93 100 98 99 96 89 96 99 93 99 100 95 91 82 90 93 90 76 69 70 66 65 70
73 72 67 64 68 78 81 84 88 89 88 88 88 88 92 90 87 89 99 95 96 98 97 78 58 76 61 55 75 76 78 91 91 98 96 94 94 91 97 93 98 98 92 99 99 96 95 92 91 88 66 67 72 68
72 70 67 70 77 81 85 90 93 92 91 88 88 91 90 88 90 91 96 94 88 80 95 92 87 69 60 68 65 76 82 86 97 97 94 92 97 95 95 97 98 93 98 99 99 100 98 99 94 93 88 77 67 69
69 66 72 77 82 85 90 91 92 94 92 91 91 91 86 91 90 96 100 98 89 90 93 97 84 83 75 72 78 80 80 90 94 95 97 95 87 96 99 100 98 98 93 90 99 98 100 100 85 72 76 70 67 72
66 70 75 82 84 89 91 89 89 91 93 93 90 86 87 93 96 98 94 89 86 93 99 98 97 81 83 81 86 86 88 95 97 98 99 94 96 92 100 97 94 93 76 73 76 94 88 92 92 66 65 65 69 69
73 78 82 85 89 92 90 88 88 92 93 93 91 87 87 94 91 95 94 89 80 98 99 99 97 96 81 96 97 93 96 93 98 96 97 96 95 93 98 90 76 73 70 79 74 72 72 70 70 75 69 69 75 77
82 84 88 91 91 90 87 85 87 92 91 92 91 89 97 98 99 98 90 83 94 96 95 98 91 97 92 98 98 98 97 99 95 99 96 97 97 98 97 94 88 86 86 81 74 75 78 79 80 83 82 77 79 84
84 92 89 87 90 93 94 94 94 94 94 93 93 98 100 99 92 90 99 100 99 99 98 97 95 99 97 98 100 99 99 97 95 90 93 97 97 92 80 78 83 87 90 84 79 83 90 86 81 82 90 91 90 92
89 88 94 94 94 93 92 91 90 89 93 98 100 100 98 87 96 99 99 99 99 96 93 96 93 99 95 98 95 97 99 98 98 94 97 97 94 94 80 85 88 82 82 84 85 89 89 87 86 85 88 85 86 89
90 94 96 95 96 96 96 93 91 94 98 94 95 95 97 99 100 99 98 99 93 91 95 98 99 97 99 99 99 99 98 99 95 99 97 98 96 89 81 83 87 84 80 82 77 77 79 81 82 83 86 89 92 92
93 93 92 93 90 93 88 87 85 86 81 91 93 99 99 99 99 98 97 99 96 99 100 100 99 98 98 99 100 97 89 96 99 97 98 98 92 87 88 83 86 83 82 82 85 84 81 87 86 87 95 96 95 95
92 92 92 93 92 88 88 93 87 83 87 92 94 96 97 98 99 98 99 98 100 100 99 98 99 99 99 97 100 98 96 96 96 96 94 98 99 99 93 87 90 100 97 98 98 97 98 96 96 96 96 96 94 95
90 90 86 85 80 80 81 75 68 72 79 87 85 99 98 96 99 99 99 97 99 100 100 97 97 95 98 96 98 94 95 98 98 97 99 99 99 98 100 97 98 98 99 99 98 98 98 97 96 96 97 96 95 95
81 77 75 73 70 70 72 70 76 75 81 83 90 96 98 96 98 98 98 99 99 99 100 96 97 95 97 97 91 99 96 97 97 100 98 99 100 100 100 98 99 98 98 98 98 97 96 96 95 96 95 95 96 95
80 71 67 70 67 64 67 78 84 85 87 88 98 98 98 98 98 99 99 98 99 99 99 94 92 98 92 94 98 98 99 98 98 99 100 97 98 100 99 98 99 98 98 98 98 97 97 96 93 91 94 96 93 89
71 74 70 72 68 65 71 75 83 86 96 97 96 99 100 99 98 98 98 93 94 95 93 93 85 92 100 98 100 99 98 98 98 98 100 100 100 99 97 99 98 97 98 98 97 98 98 97 94 96 92 90 81 72
68 74 73 75 74 73 77 78 78 95 99 99 99 99 99 99 93 92 94 92 90 86 89 92 94 100 99 99 98 99 98 96 97 99 99 99 97 98 99 98 97 97 97 97 96 97 95 92 90 93 92 83 90 89
74 74 74 71 69 76 74 83 79 87 98 98 96 97 98 98 97 95 87 80 75 86 92 97 99 99 99 100 99 96 96 94 92 98 100 99 99 97 97 97 98 97 97 96 96 89 86 89 87 91 93 93 96 97
72 72 74 72 76 76 80 84 86 88 90 95 92 89 96 91 94 95 93 84 92 99 98 98 97 96 92 95 96 95 98 95 97 96 98 100 99 97 98 98 96 98 98 98 98 97 96 100 100 95 98 100 100 99
75 71 81 76 83 79 81 82 83 84 91 93 96 91 97 98 97 95 85 92 97 97 97 95 96 88 87 92 93 91 93 90 91 95 96 96 98 98 98 98 91 97 98 99 92 96 98 98 98 98 99 100 99 99
80 81 90 81 85 85 89 91 93 86 94 95 92 92 94 95 86 71 96 92 98 96 96 90 83 74 81 78 73 71 70 74 86 89 89 93 92 95 93 94 96 94 98 100 95 93 96 99 98 99 99 98 97 96
76 93 91 92 90 99 92 88 84 85 91 92 92 94 88 93 84 93 98 99 98 96 89 81 77 78 72 69 79 88 88 74 76 86 96 83 91 96 92 92 94 97 97 97 97 99 97 94 99 98 100 100 100 99
72 84 90 96 94 89 91 92 93 87 94 90 92 96 89 92 96 98 100 100 98 98 98 92 90 84 86 97 96 90 86 77 78 85 92 96 97 95 93 87 95 97 96 99 99 99 97 100 99 100 97 99 94 97
90 90 88 94 94 86 91 95 93 95 94 95 93 94 96 94 96 100 98 100 99 98 98 96 95 89 94 86 93 94 96 94 78 88 94 90 96 98 99 99 100 99 98 100 100 100 99 100 96 93 99 96 93 88
97 96 89 78 84 82 94 93 86 90 95 98 98 98 93 100 100 98 98 99 99 99 97 89 82 85 90 91 87 93 93 90 89 87 92 90 93 96 97 97 100 98 98 98 100 100 100 100 100 99 100 100 100 99
93 91 95 95 92 90 97 97 97 98 96 94 88 98 98 97 99 98 98 96 93 89 89 89 84 85 89 92 95 95 95 96 93 94 94 96 98 98 96 98 100 100 97 98 100 100 100 100 100 100 100 100 100 100
96 91 85 94 92 96 99 100 100 99 92 97 97 100 100 98 98 96 98 95 93 86 90 94 100 97 96 96 96 98 99 100 99 100 100 100 100 99 100 100 99 100 100 100 100 100 99 98 100 99 99 100 100 100
93 90 92 97 97 99 99 99 100 99 98 99 96 88 91 96 96 98 94 94 93 96 97 93 98 94 99 99 100 99 100 100 100 97 100 100 99 99 100 100 100 100 100 100 100 100 99 99 99 100 99 100 100 100
93 93 94 97 99 98 96 92 86 85 95 92 97 97 98 97 97 96 96 100 97 97 96 98 99 100 98 100 100 100 100 100 100 100 100 100 100 100 100 100 100 100 100 100 100 100 100 100 100 100 100 100 100 100
96 96 95 98 98 97 98 98 99 97 100 98 99 100 98 98 100 98 97 98 98 98 100 97 98 100 100 100 100 100 100 100 100 100 100 100 100 100 100 100 100 100 100 100 100 100 100 100 100 100 100 100 100 100
92 95 96 97 100 100 98 96 99 95 98 99 98 98 99 99 99 97 98 98 98 96 97 100 98 99 99 99 100 100 100 100 100 100 100 100 100 100 100 100 100 100 100 100 100 100 100 100 100 100 100 100 100 100

GFSWCAN_sfc_rhum_087.txt.gz
RH
65 67 66 66 68 71 73 65 67 67 69 72 77 78 78 80 80 91 96 75 96 98 87 74 71 78 88 96 97 87 89 91 97 96 98 92 94 78 82 71 76 86 95 99 94 95 88 82 80 75 90 86 82 82
66 66 67 68 73 76 71 70 68 68 73 78 79 79 79 81 82 85 100 84 82 96 81 82 66 67 68 70 85 91 94 94 99 99 97 95 99 98 95 94 88 94 87 92 78 81 87 81 84 82 80 87 83 84
67 67 68 71 76 73 67 67 70 76 79 80 82 81 81 81 82 87 99 94 97 100 96 92 77 62 70 71 74 91 96 88 99 99 100 99 89 85 98 95 92 97 100 100 100 94 95 90 77 76 73 74 72 75
68 68 70 74 75 68 64 68 77 81 84 85 85 86 86 85 84 88 99 95 95 99 100 83 64 76 60 63 73 76 82 88 89 97 100 99 95 90 95 94 96 99 98 100 100 99 96 96 94 78 74 74 76 70
65 69 73 74 72 68 70 77 80 86 89 92 90 86 86 88 90 95 97 96 94 96 97 88 80 73 66 71 66 81 80 87 98 100 100 95 96 98 95 97 94 98 99 99 99 100 100 100 98 95 90 90 81 75
64 70 74 72 68 70 75 80 85 90 93 91 88 86 87 92 90 97 100 99 94 95 95 95 82 83 81 78 82 89 87 93 96 99 96 96 89 95 100 98 97 99 97 99 99 100 100 100 99 87 78 74 71 73
69 72 71 67 70 74 81 84 88 91 91 92 92 91 91 91 94 98 94 91 89 94 99 94 97 80 87 87 92 92 90 94 95 97 98 90 96 94 100 96 92 87 86 83 93 94 90 79 82 68 69 68 71 71
72 70 68 72 76 81 85 88 90 90 89 91 92 90 93 87 89 96 96 88 84 97 94 94 95 96 82 98 98 92 97 96 99 99 98 98 92 99 97 92 80 77 79 79 84 74 73 72 73 75 72 72 76 77
72 71 75 79 82 84 88 90 90 89 88 91 90 89 98 98 99 97 90 82 94 94 95 99 88 97 91 97 96 98 96 98 93 98 95 97 97 97 97 90 85 84 88 83 79 87 76 79 79 81 82 80 81 84
73 78 83 84 88 90 91 90 89 88 87 90 97 99 100 99 91 90 98 100 100 99 98 98 91 99 98 97 100 99 99 96 99 95 97 97 98 94 92 92 88 90 84 83 82 79 90 86 83 87 89 89 88 91
75 84 88 91 90 92 93 94 91 89 91 100 100 100 98 82 96 99 99 98 99 98 98 91 94 96 98 98 97 96 95 98 97 96 99 97 99 96 86 82 78 80 80 85 86 88 89 87 85 83 84 82 85 87
94 92 91 93 94 94 94 94 95 95 97 94 95 95 98 98 100 98 98 96 94 91 96 99 98 96 100 98 98 99 98 99 97 99 97 98 96 90 84 84 83 85 80 81 75 76 81 81 83 83 85 90 92 92
91 95 95 94 95 93 91 89 90 89 86 91 93 100 100 99 98 96 97 93 92 96 97 100 100 98 100 100 99 96 94 97 98 96 97 97 92 86 86 81 85 81 79 78 79 76 78 87 86 88 96 96 95 96
96 93 92 93 93 91 90 89 88 90 92 97 98 97 98 98 96 98 98 98 99 100 96 98 98 98 99 98 99 98 96 93 97 99 94 99 95 92 92 85 86 99 97 98 98 97 98 97 98 97 97 97 95 96
92 89 89 85 80 82 80 79 73 83 87 89 83 98 96 94 98 98 100 98 99 100 98 98 98 98 98 97 97 93 94 99 96 95 98 99 98 97 99 96 97 98 98 99 98 98 99 97 96 98 97 96 94 95
90 89 92 85 79 73 70 73 78 78 83 83 90 95 98 96 98 98 98 99 99 100 100 94 96 95 97 97 90 98 97 95 95 99 99 98 98 100 99 98 98 98 97 99 98 98 98 97 98 100 97 97 98 96
74 94 88 81 83 75 71 79 80 85 87 88 98 99 98 98 99 99 98 98 99 97 98 95 92 94 92 94 95 97 96 96 98 100 99 98 98 98 98 99 99 98 99 99 98 97 98 98 96 94 97 98 93 93
74 75 77 77 71 70 78 77 84 83 96 97 96 98 99 99 99 98 98 97 95 92 92 95 84 92 98 96 100 99 99 99 100 99 99 100 100 100 98 100 99 97 98 98 97 98 97 98 94 95 91 89 86 75
78 82 76 75 70 75 77 82 79 94 98 98 98 99 99 99 97 96 96 94 89 86 87 92 94 99 100 99 100 100 100 98 97 99 99 100 98 98 100 99 99 99 99 99 98 97 97 95 95 96 93 91 92 92
77 75 72 67 68 77 80 86 82 88 97 97 94 97 98 98 97 96 88 84 78 84 93 97 99 99 96 99 98 98 98 96 96 99 99 99 100 98 99 98 99 98 98 97 96 95 94 94 93 94 95 95 96 98
73 75 76 73 78 79 87 86 92 90 92 95 91 88 97 93 94 96 94 83 93 98 98 99 99 99 98 99 95 92 97 92 97 96 98 99 99 99 100 99 98 99 100 99 99 98 97 99 98 98 99 100 100 100
78 73 78 78 83 78 83 84 87 91 94 94 96 90 97 98 97 97 89 93 98 98 99 98 97 97 96 98 99 97 96 95 96 97 98 97 99 99 99 99 98 98 98 98 94 98 99 99 98 98 99 100 100 100
79 79 86 80 84 82 88 93 92 88 96 100 97 91 94 97 92 74 98 95 98 97 96 94 88 82 88 84 79 80 78 82 94 96 95 97 97 98 97 97 98 98 100 98 97 96 97 100 100 100 100 100 99 98
74 90 90 93 89 98 91 91 87 91 96 95 94 96 88 94 82 92 99 100 99 94 91 84 80 82 78 78 92 91 84 84 91 92 96 91 95 97 97 98 99 99 98 98 97 99 97 97 100 100 100 100 100 100
77 84 89 95 92 89 91 94 95 88 96 93 94 97 92 92 98 99 98 100 99 99 99 95 86 78 87 98 98 97 89 80 86 94 97 97 98 96 97 97 97 98 98 100 100 100 100 100 100 100 100 100 98 100
93 89 88 96 95 88 93 96 95 96 94 96 93 97 96 96 98 100 96 99 99 98 99 96 96 95 94 91 94 96 97 94 84 93 98 95 97 96 98 99 99 98 98 100 100 100 100 100 99 98 100 100 97 93
96 96 92 69 84 84 94 93 87 92 97 98 98 96 94 100 100 98 99 100 100 99 97 96 83 86 92 93 92 96 97 93 91 90 94 90 92 96 98 99 100 98 98 99 100 100 100 100 100 100 100 100 100 100
92 88 96 96 93 90 98 97 97 99 98 93 88 99 99 92 98 98 100 99 97 93 94 92 87 85 88 93 96 94 98 96 95 95 95 96 98 98 98 100 100 100 99 100 100 100 100 100 100 100 100 100 100 100
96 91 85 95 93 96 99 100 100 96 94 93 99 100 100 98 98 99 98 99 95 88 92 94 100 97 97 97 98 99 100 98 98 100 100 100 100 99 100 100 100 100 100 100 100 100 100 100 100 100 100 100 99 100
96 90 93 98 97 100 100 98 99 98 96 99 97 93 95 97 96 96 95 94 95 97 99 94 100 96 100 98 100 98 100 100 100 98 100 100 98 100 100 100 100 100 100 100 100 100 100 100 100 99 99 100 100 100
92 94 97 98 99 99 98 98 88 90 98 97 98 95 98 98 97 96 99 100 97 96 96 100 100 100 98 100 100 99 97 100 100 100 100 100 100 100 100 100 100 100 100 100 100 100 100 100 100 100 100 100 100 100
96 100 96 99 99 98 97 100 100 99 99 97 97 99 97 97 100 98 98 98 98 100 100 99 100 100 100 100 100 100 99 100 100 100 100 100 100 100 100 100 100 100 100 100 100 100 100 100 100 100 100 100 100 100
97 99 99 98 100 100 99 97 99 97 99 99 100 100 100 100 99 97 98 98 97 95 98 100 100 100 98 98 100 100 100 100 100 100 100 100 100 100 100 100 100 100 100 100 100 100 100 100 100 100 100 100 100 100

GFSWCAN_sfc_rhum_090.txt.gz
RH
80 63 62 69 63 65 66 67 74 74 66 66 68 72 77 78 80 92 98 84 96 98 84 76 73 77 82 92 96 84 87 89 95 96 97 95 96 83 87 74 77 84 95 97 83 91 90 90 82 83 89 87 85 84
69 64 66 70 67 66 68 72 74 69 69 68 70 73 79 78 79 84 99 89 88 100 86 87 73 64 69 76 85 90 94 93 98 96 92 96 96 97 93 92 83 90 92 96 91 86 90 83 84 80 81 89 86 86
66 67 65 66 67 68 70 76 72 69 69 70 74 76 79 79 78 84 98 97 99 99 96 94 86 67 72 71 72 90 96 89 89 99 98 99 98 82 94 94 81 92 97 99 100 100 98 96 91 83 91 87 84 83
66 67 68 65 66 69 74 77 66 65 70 74 77 80 82 82 80 81 99 97 97 99 99 86 68 79 63 73 80 76 83 91 93 99 99 99 98 88 90 83 96 97 95 97 100 99 98 98 99 98 97 89 80 74
66 68 69 68 69 73 76 71 70 72 74 75 82 85 84 84 83 90 98 95 93 94 96 91 78 72 68 76 78 82 84 87 97 98 99 98 93 98 95 96 94 97 98 96 99 100 100 99 100 99 94 94 93 91
70 69 63 66 70 74 74 70 70 75 75 86 92 90 88 87 87 97 100 99 93 97 100 98 81 80 87 79 82 88 87 92 93 100 100 95 90 97 97 99 97 100 100 99 99 100 100 99 98 94 90 85 73 74
70 67 61 65 72 75 70 71 76 74 84 91 90 89 88 90 97 98 96 90 90 95 100 96 93 83 86 88 94 94 90 94 95 98 99 93 94 92 99 92 90 94 85 84 81 90 92 79 84 71 70 71 74 74
64 62 65 72 74 70 72 75 74 81 89 92 91 92 92 89 90 95 97 89 86 98 94 97 94 94 84 97 98 96 98 98 96 98 98 98 93 98 98 91 80 75 74 79 85 76 80 78 76 76 73 73 78 78
65 68 73 74 71 72 75 78 78 87 91 90 91 91 97 97 99 98 90 85 94 93 90 99 97 96 93 99 97 99 92 99 96 97 98 95 98 98 97 93 85 85 87 90 79 81 80 82 85 84 83 82 82 82
68 73 76 78 78 78 79 79 84 89 91 90 99 99 100 98 93 88 98 100 100 100 98 100 94 99 94 89 99 97 97 97 98 94 96 97 99 94 90 87 89 90 86 86 84 80 83 85 84 87 89 87 86 91
71 74 75 74 76 82 82 84 88 90 90 99 100 100 98 85 96 99 99 98 99 98 94 91 95 97 94 99 97 98 98 98 97 96 96 98 95 93 86 80 85 80 80 86 85 85 87 83 82 83 83 80 85 88
73 72 72 76 82 85 86 88 91 96 97 93 96 96 97 99 100 98 98 96 93 88 93 92 89 96 99 99 98 99 94 99 95 99 97 97 96 90 85 84 80 83 79 79 79 83 80 78 84 86 88 91 92 92
75 82 93 94 92 91 89 92 94 90 88 96 97 100 98 100 99 94 97 95 92 90 98 99 99 99 100 100 99 96 97 98 98 97 98 97 93 87 84 82 86 81 79 78 84 83 82 88 88 88 98 97 96 97
93 96 97 95 94 95 94 93 92 90 95 100 98 97 94 100 97 94 95 95 98 98 96 98 99 98 99 99 99 92 95 95 97 99 94 98 95 93 92 84 86 99 96 97 98 97 98 98 100 99 100 98 96 98
95 92 90 94 91 92 92 93 88 93 99 98 85 95 98 95 98 97 96 96 99 100 99 99 99 98 98 98 96 95 96 96 96 95 98 98 98 97 97 95 96 97 99 100 99 99 100 98 98 98 98 97 96 97
87 88 87 83 86 88 89 84 89 85 86 86 91 96 98 96 98 98 99 99 99 100 98 97 97 96 98 96 91 95 95 95 94 99 98 98 99 100 100 97 97 97 96 98 98 98 97 97 98 100 97 97 99 97
88 97 88 80 77 77 74 84 90 85 86 88 98 98 98 98 98 99 98 98 98 98 98 95 90 90 90 95 95 97 96 96 98 99 100 98 97 99 100 99 99 99 99 98 98 97 99 98 97 95 96 98 94 94
97 94 80 75 77 78 84 81 82 82 96 97 96 98 99 99 99 98 98 98 96 90 93 94 84 92 96 90 97 98 100 99 100 100 100 100 100 100 98 99 99 97 97 98 96 98 98 98 97 98 95 92 84 79
90 90 79 75 77 89 91 82 77 94 99 98 98 99 98 99 96 96 97 95 94 85 85 91 92 98 98 99 99 100 99 99 98 99 99 99 99 98 99 98 98 98 98 98 98 99 98 97 97 97 94 91 96 97
78 76 73 70 68 82 78 87 82 83 96 97 92 96 95 96 97 97 91 83 80 87 91 97 99 99 98 98 98 97 98 96 95 98 99 98 97 99 100 99 98 97 97 98 99 98 98 98 96 96 98 99 98 98
82 80 75 74 82 82 86 90 91 89 87 93 91 90 98 91 94 96 95 81 92 98 99 99 100 97 99 99 93 94 96 89 97 96 97 98 99 98 100 100 98 99 99 100 100 100 99 98 98 98 100 100 100 100
83 71 80 79 85 84 86 89 88 90 92 94 96 87 97 98 97 96 84 92 98 99 99 98 95 98 96 97 99 94 94 93 96 97 97 97 99 99 100 100 98 100 99 98 98 99 99 99 99 98 99 100 100 100
79 77 86 81 84 82 93 96 92 84 96 98 92 89 95 98 89 75 98 94 98 98 98 96 92 88 94 92 89 88 84 86 97 98 97 98 98 98 97 98 98 99 100 98 98 98 98 100 100 100 100 100 100 100
73 90 91 94 90 98 93 94 89 94 97 95 94 98 90 98 85 93 99 99 98 95 93 89 85 89 85 84 96 96 92 88 92 95 97 93 95 98 98 99 99 99 99 98 98 100 98 99 100 100 100 100 100 100
78 86 90 95 90 90 94 97 97 90 98 97 96 99 99 92 98 100 97 98 98 100 100 93 88 87 94 100 99 98 90 87 88 96 98 96 98 98 98 97 98 99 98 100 100 100 100 100 100 100 100 100 100 100
93 92 90 97 96 91 94 98 97 98 97 97 96 98 96 96 96 100 96 98 100 99 99 94 95 95 96 94 96 97 97 95 86 94 97 96 97 96 100 99 99 97 98 100 100 100 100 100 100 100 100 100 100 95
94 98 92 69 84 86 95 95 90 94 98 98 99 96 93 100 100 98 99 99 97 98 95 90 81 87 91 96 96 97 97 95 92 90 90 91 94 96 98 99 100 98 98 99 100 100 100 100 100 100 100 100 100 100
95 89 96 97 96 91 99 99 99 100 100 93 89 98 98 93 98 98 98 99 98 95 94 94 89 86 90 96 97 96 98 96 94 94 94 96 98 100 100 100 100 100 100 100 100 100 100 100 100 100 100 100 100 100
97 93 86 98 95 97 99 100 100 96 94 92 98 100 100 97 98 99 95 99 97 91 94 96 100 97 97 98 99 99 100 98 96 100 100 100 100 99 100 100 100 100 100 100 100 100 100 100 100 100 100 100 100 100
98 94 96 99 99 100 99 98 99 98 95 99 98 96 94 98 97 97 96 96 96 98 100 96 99 95 99 98 100 100 100 100 100 98 100 100 99 100 100 100 100 100 100 100 100 99 100 100 100 100 100 100 100 100
91 95 97 98 100 99 98 100 97 97 100 98 98 98 99 98 97 96 97 99 97 95 95 100 100 100 96 100 99 98 97 100 100 100 100 100 100 100 100 100 100 100 100 100 100 100 100 100 100 100 100 100 100 100
98 100 96 100 100 98 99 100 100 99 99 98 99 100 96 95 100 97 99 99 98 99 100 97 98 98 100 100 100 100 99 100 100 100 100 100 100 100 100 100 100 100 100 100 100 100 100 100 100 100 100 100 100 100
99 100 100 99 99 100 99 97 100 98 100 100 100 100 100 98 98 97 98 98 97 96 98 100 100 100 100 100 100 100 100 100 100 100 100 100 100 100 100 100 100 100 100 100 100 100 100 100 100 100 99 100 98 99

GFSWCAN_sfc_rhum_093.txt.gz
RH
63 69 85 67 64 68 64 65 65 66 72 73 66 66 70 73 76 92 99 91 96 96 78 73 66 68 65 76 79 78 82 83 88 89 84 88 87 80 78 73 82 74 81 90 76 82 85 82 68 76 87 88 86 84
67 81 84 69 69 68 63 66 67 68 77 70 69 68 70 73 77 79 99 91 93 100 90 80 73 66 63 64 82 85 93 89 88 84 81 87 80 84 83 79 72 90 97 93 89 96 99 95 94 93 89 95 96 94
69 77 79 68 70 69 65 67 68 71 77 71 70 69 71 76 77 81 97 98 99 100 94 91 84 71 71 66 69 85 83 84 85 95 96 92 92 88 90 82 82 91 98 98 98 100 99 98 95 98 96 96 93 91
69 76 69 67 67 66 66 68 71 78 71 68 70 73 77 76 78 81 97 97 98 99 98 80 66 75 61 70 70 68 68 86 88 90 92 90 95 89 92 82 90 90 84 94 100 95 98 87 98 96 93 93 89 82
71 74 71 71 69 66 65 70 75 77 69 69 70 74 77 80 80 90 96 96 94 98 95 83 75 66 65 77 78 77 81 83 91 86 97 93 81 94 97 92 87 84 96 92 95 99 97 97 98 97 94 93 89 80
75 74 72 68 70 69 70 73 79 72 71 70 72 75 82 82 83 98 100 99 93 96 100 95 76 70 80 78 83 84 83 84 86 93 99 99 84 92 95 91 94 99 98 99 99 100 98 98 96 91 86 76 70 70
75 74 72 72 67 66 69 76 74 72 70 70 80 88 90 91 97 98 96 87 92 96 100 94 86 81 80 82 88 89 84 89 91 98 98 96 83 86 97 81 89 88 82 82 83 90 93 86 87 73 69 69 69 66
69 71 73 68 65 65 73 76 72 70 70 78 88 91 89 88 92 97 97 90 88 98 97 95 89 87 83 93 94 91 95 94 95 93 93 95 87 94 98 87 76 73 72 70 77 75 79 78 72 72 67 65 67 68
71 75 72 70 68 70 75 73 70 70 72 87 92 94 96 97 99 99 89 85 94 89 90 88 96 94 92 97 92 97 90 97 89 98 94 92 91 93 93 87 83 82 80 77 76 73 73 76 76 74 73 71 73 77
75 75 71 73 73 76 74 70 70 73 82 91 97 99 100 99 93 89 98 100 100 99 96 97 91 94 95 97 94 96 93 91 96 83 91 98 91 88 85 82 82 83 81 74 78 78 77 82 79 79 81 80 80 84
70 68 67 68 69 75 73 70 73 74 90 99 100 100 98 85 96 99 99 97 98 98 92 87 89 94 91 98 94 93 96 91 94 88 88 93 91 89 84 80 74 71 72 76 76 77 78 78 78 77 77 77 79 81
66 66 69 71 74 74 72 72 73 93 97 93 96 96 97 99 100 94 95 93 88 83 90 82 84 92 98 99 96 96 84 93 93 98 97 95 90 85 79 78 79 76 73 77 73 74 74 75 77 78 81 85 87 88
69 70 70 72 73 73 73 76 82 89 91 94 98 100 98 100 98 94 97 97 93 86 94 97 98 96 96 100 100 92 91 91 96 96 94 90 87 83 79 76 79 76 74 75 79 78 79 84 81 83 94 94 92 95
74 74 76 76 77 78 81 82 88 94 98 99 99 99 95 99 95 93 91 93 92 95 98 97 94 98 99 100 100 86 90 94 94 95 91 91 92 92 85 80 81 94 94 93 95 94 96 96 98 97 97 95 95 96
86 86 88 88 86 88 90 90 91 97 100 98 97 96 100 93 95 96 96 93 100 98 97 98 97 92 96 96 94 94 96 90 89 90 91 93 93 93 93 89 92 93 95 95 94 95 97 96 96 98 96 94 93 95
98 90 96 93 95 95 95 93 96 99 98 88 91 97 96 96 96 98 94 98 99 99 95 93 96 97 96 94 96 97 92 91 89 92 93 94 97 96 96 94 95 95 94 95 94 93 94 95 94 95 94 93 94 92
91 98 93 88 88 88 85 96 99 96 94 90 98 96 97 98 98 98 97 98 97 98 97 90 91 90 82 89 89 90 93 91 94 96 94 94 94 96 96 96 96 95 94 94 94 92 92 92 91 87 89 92 88 87
96 95 91 85 80 80 99 97 89 80 95 96 95 97 97 97 98 99 97 97 97 87 82 86 80 94 94 90 88 93 95 95 94 95 95 97 97 97 94 95 96 93 93 94 91 92 91 93 88 83 83 82 76 75
95 91 82 78 83 94 96 94 77 94 97 97 97 96 96 97 92 92 94 86 77 73 77 82 85 89 92 93 93 97 96 92 93 95 95 98 96 96 96 94 94 94 93 92 89 83 83 88 85 82 80 80 81 81
85 84 83 76 78 92 76 86 79 83 94 96 91 94 93 94 92 96 91 80 72 76 88 89 94 95 95 93 90 90 92 90 88 93 94 93 92 94 94 91 89 91 88 90 89 90 85 85 78 79 79 83 87 88
78 80 74 74 83 81 85 87 88 88 87 92 88 85 93 91 93 95 92 78 90 90 92 95 96 94 96 92 85 87 89 81 85 82 87 92 91 88 90 91 90 89 88 89 91 90 92 85 81 80 89 94 94 93
82 71 79 76 86 80 84 88 87 88 91 92 92 82 94 96 96 92 76 90 92 94 92 92 88 90 88 91 90 84 87 87 92 90 94 91 91 91 90 90 90 92 90 92 88 92 90 84 85 85 88 91 94 91
76 76 85 80 84 85 95 93 91 82 95 96 85 89 95 94 83 69 95 88 94 92 91 90 90 86 92 88 82 80 76 77 86 89 90 90 87 89 89 89 87 92 91 87 82 86 88 95 94 95 95 93 91 92
71 88 92 95 88 98 91 96 87 93 95 93 90 97 91 92 78 86 96 95 93 91 90 90 85 90 86 86 91 92 88 83 87 87 84 80 82 87 84 85 86 87 84 80 81 86 87 92 99 91 98 98 99 98
80 86 89 95 90 91 95 97 96 89 98 96 97 100 98 85 94 95 94 95 94 95 94 87 83 81 88 93 89 87 85 78 82 84 87 78 87 86 85 80 83 83 86 92 93 96 96 98 98 97 94 97 92 95
95 94 92 98 97 90 94 99 98 97 96 98 98 94 91 92 91 97 88 95 96 95 98 93 93 88 86 81 83 81 83 80 76 83 86 82 79 85 88 89 88 88 86 92 93 93 93 96 97 95 95 91 99 98
97 98 90 70 83 83 94 93 87 93 97 99 98 94 90 96 99 94 94 92 91 92 85 84 79 80 84 88 88 88 86 83 83 78 81 81 84 85 87 91 94 90 87 90 93 94 95 98 98 96 96 96 96 97
93 88 94 96 95 89 98 99 99 100 99 91 85 97 90 91 96 94 93 94 95 90 90 88 86 83 86 89 90 90 90 89 92 89 86 86 89 93 94 93 98 100 94 96 94 96 94 95 95 98 99 97 95 98
97 91 84 98 94 96 99 100 99 92 90 88 96 100 98 92 96 95 92 94 93 88 91 92 98 95 95 93 96 94 93 91 87 95 96 95 98 94 97 97 96 97 98 96 99 98 99 99 97 99 100 100 98 98
96 90 95 99 99 100 98 97 98 97 92 95 93 91 90 96 95 94 93 94 95 97 97 94 97 93 95 94 100 99 99 100 97 95 98 98 94 94 100 100 97 100 98 96 96 92 98 95 95 95 96 95 95 96
91 94 97 97 100 98 98 99 98 98 98 96 99 98 97 96 95 94 94 95 94 94 94 98 99 97 96 99 96 95 94 99 100 99 95 98 100 100 98 100 100 100 99 100 100 100 100 99 100 100 100 99 96 99
98 100 96 100 99 98 98 100 100 98 98 97 98 100 95 95 99 96 96 95 94 93 96 94 94 95 95 96 96 96 99 99 100 100 100 100 100 100 100 100 100 100 99 98 98 99 100 100 97 93 92 90 90 90
99 100 100 100 99 100 100 96 98 97 98 99 100 100 100 97 98 97 95 96 94 94 96 97 99 98 97 97 99 100 100 100 100 100 100 100 100 99 96 98 98 97 95 97 98 98 96 97 95 94 92 94 95 94

GFSWCAN_sfc_rhum_096.txt.gz
RH
78 77 77 80 79 74 67 66 66 65 65 69 76 66 66 71 72 82 98 88 91 81 54 57 51 53 46 50 63 57 63 63 72 75 65 69 69 62 59 62 65 58 65 71 66 67 66 92 51 71 97 91 86 88
73 74 76 80 77 72 68 67 66 66 67 76 77 68 67 69 72 81 98 96 92 98 84 69 61 55 51 48 60 61 79 69 71 72 64 72 85 76 69 69 55 85 86 89 89 95 98 95 97 95 94 95 98 98
77 77 82 86 77 71 71 67 66 69 69 73 74 70 68 68 72 80 87 98 96 100 88 78 60 51 53 56 48 69 54 61 73 83 88 80 88 66 77 68 67 87 75 96 100 98 90 96 90 94 91 96 94 94
76 76 78 79 75 75 74 71 68 68 70 79 75 71 70 70 74 78 89 92 95 98 95 55 48 55 46 52 55 54 53 55 65 82 78 84 85 65 74 68 71 74 68 88 100 97 82 82 88 87 86 83 80 73
76 77 79 84 74 74 74 72 72 70 74 77 68 67 71 74 76 83 89 82 82 96 96 66 54 50 52 54 57 57 59 60 69 65 77 78 57 71 76 77 73 73 92 90 91 99 96 99 97 94 91 87 73 66
74 77 79 76 74 75 73 71 70 72 74 73 70 69 72 76 80 89 100 89 77 84 100 85 54 56 64 59 60 61 60 63 64 64 81 98 77 79 81 79 96 100 84 100 98 100 100 100 98 87 81 61 55 56
78 75 76 76 75 74 74 73 72 74 77 72 72 70 73 80 95 98 84 78 84 93 100 87 65 68 64 62 62 63 65 65 63 66 79 76 65 69 85 72 81 79 78 78 85 86 82 73 72 59 56 54 55 51
76 74 75 74 72 73 74 76 72 76 72 71 70 76 85 90 93 98 85 89 87 98 99 95 72 73 69 74 74 66 72 76 77 79 79 78 63 70 87 78 64 61 63 62 68 64 63 61 58 58 54 52 54 54
76 75 77 78 76 72 72 74 71 72 70 69 75 89 97 96 99 96 91 90 94 90 83 86 80 88 78 84 77 85 70 92 68 83 74 74 75 91 93 75 66 63 62 58 64 61 61 63 61 60 58 58 60 65
74 75 78 79 76 73 72 74 74 70 70 73 95 99 100 98 93 91 98 100 99 81 79 83 70 88 93 99 94 93 82 74 84 72 77 87 77 79 70 68 68 69 62 56 70 72 70 68 66 67 70 70 70 76
70 74 77 74 69 70 70 76 71 70 80 98 100 100 98 84 95 98 100 94 90 90 72 72 70 75 81 87 90 82 88 78 75 70 78 81 81 85 69 63 56 54 54 59 63 66 66 64 66 66 68 68 69 72
70 72 72 70 68 68 72 74 71 93 98 95 95 95 98 99 100 95 90 84 79 70 68 78 77 67 82 94 84 90 85 84 89 82 90 84 86 73 68 66 62 59 58 59 57 61 63 65 64 65 68 74 78 81
72 70 67 67 68 67 71 73 74 84 92 98 98 100 99 100 97 92 91 83 85 83 85 88 92 82 93 100 100 95 90 87 92 99 85 86 79 69 66 60 63 59 61 62 66 66 67 72 71 74 86 87 86 88
71 68 67 68 72 75 75 74 75 85 98 100 100 100 98 96 87 84 76 82 92 92 92 87 91 86 97 100 100 97 94 86 87 90 82 83 83 83 75 71 74 89 88 86 88 87 88 89 91 90 88 87 87 89
69 70 70 72 76 76 77 78 82 97 100 100 96 95 98 94 93 96 96 93 94 94 92 96 93 76 98 100 98 94 98 85 77 86 88 85 86 82 82 80 84 88 90 89 87 88 89 88 87 90 88 86 86 88
77 82 82 75 76 77 77 82 98 99 98 83 85 98 93 93 96 98 100 100 92 95 89 78 93 100 97 90 94 92 85 81 92 85 85 85 88 87 87 86 88 86 86 86 86 85 86 88 86 87 85 85 87 85
93 99 84 81 81 78 84 99 99 96 90 79 96 97 97 97 99 97 100 100 96 97 99 83 100 92 79 88 91 82 98 90 88 87 82 84 85 89 89 89 90 87 86 84 84 82 84 83 81 75 78 82 76 76
98 94 91 91 89 92 100 98 93 87 89 87 90 94 94 98 96 99 99 95 95 81 71 81 67 91 92 84 85 87 86 89 84 84 84 88 89 88 85 86 87 83 83 84 82 82 81 81 72 64 72 68 63 63
96 91 89 89 87 95 96 95 66 81 87 86 87 86 87 92 86 85 89 81 65 61 67 69 85 84 90 84 87 89 88 82 85 84 86 89 86 89 87 85 85 83 82 81 77 65 63 72 67 63 60 60 64 64
92 88 83 79 69 66 82 80 60 68 81 84 76 78 78 81 82 92 92 73 63 72 83 85 85 88 86 83 78 80 79 76 72 77 81 80 78 84 82 75 69 77 71 75 72 73 64 63 59 58 58 60 67 67
75 76 73 67 71 60 76 72 70 67 73 77 74 68 82 78 85 91 91 79 91 81 81 82 87 84 82 75 70 70 74 65 68 65 70 77 74 66 70 72 73 68 66 68 71 72 79 68 62 61 78 80 78 75
64 68 63 67 81 67 72 62 62 61 69 82 83 69 86 92 92 91 71 85 82 82 75 73 72 71 71 75 70 64 75 72 75 72 76 74 73 72 71 71 69 75 73 77 70 76 73 64 68 72 77 80 80 73
72 67 80 79 80 78 86 73 78 64 82 85 74 81 87 87 77 61 87 70 79 74 70 66 67 59 67 64 59 58 56 55 62 68 72 71 72 75 73 71 71 78 74 66 64 67 71 82 78 81 78 78 75 77
67 85 91 93 78 94 89 86 67 71 79 80 78 88 83 81 64 72 83 80 79 73 70 75 65 70 66 64 64 67 67 60 67 72 68 66 67 66 60 60 61 65 62 59 65 72 74 82 91 75 82 81 79 82
74 90 83 91 80 85 90 91 86 76 89 83 86 87 85 68 80 77 81 84 84 83 77 68 63 60 67 73 73 75 72 62 65 69 67 59 66 64 61 56 59 61 68 81 81 82 83 88 87 85 80 82 77 76
92 94 86 85 88 80 81 89 87 86 81 87 86 81 82 82 82 78 68 84 87 86 90 87 82 75 69 64 71 70 67 60 57 62 66 59 60 72 73 74 74 74 70 82 83 80 76 78 81 82 81 78 89 90
90 94 79 61 70 70 85 80 71 78 85 90 88 92 83 82 81 80 78 78 76 79 71 67 62 61 65 67 68 69 66 66 68 64 65 62 65 66 75 79 73 77 72 76 78 78 78 78 78 79 80 78 79 83
82 79 87 88 84 75 89 86 86 88 88 77 75 85 79 74 81 82 80 81 80 72 73 73 66 62 66 72 75 78 78 77 81 75 72 71 71 77 81 81 82 89 83 88 84 84 83 83 83 81 81 82 82 80
85 74 70 89 83 84 88 88 86 78 75 73 86 84 85 77 85 82 84 82 76 75 79 84 92 88 85 82 83 77 80 79 75 75 68 79 86 86 80 82 84 85 85 81 84 85 81 85 83 84 81 84 83 86
86 73 81 86 87 89 91 85 89 89 76 79 69 71 73 84 89 87 85 85 83 87 88 87 90 87 90 88 91 89 89 91 92 86 81 78 83 88 88 87 85 86 85 82 81 72 78 82 81 83 82 81 80 80
76 79 83 81 87 88 90 92 90 86 86 84 86 84 85 89 91 90 88 90 90 91 91 91 91 87 87 86 84 86 90 92 90 87 85 89 89 88 88 88 89 88 86 83 82 81 81 81 79 80 78 76 75 77
85 86 85 88 90 91 89 87 87 88 88 85 90 88 90 87 91 90 91 90 92 92 90 84 84 88 87 86 88 91 87 91 90 89 86 87 87 88 88 85 86 84 83 82 83 83 82 81 81 78 78 75 77 79
92 89 88 88 90 91 91 84 79 85 86 85 91 92 92 87 91 92 88 91 91 87 87 90 90 91 90 88 89 92 88 91 92 94 95 97 91 88 86 87 86 84 82 82 80 80 78 75 76 76 76 81 82 83

GFSWCAN_sfc_rhum_099.txt.gz
RH
83 86 78 79 79 80 71 69 70 67 65 68 75 76 65 66 72 73 94 85 89 79 50 48 46 50 46 41 54 47 53 58 68 70 57 62 70 53 55 44 53 62 76 64 59 56 75 81 53 78 98 96 88 82
81 83 80 80 83 82 76 73 72 72 68 68 75 72 66 67 71 71 91 89 94 96 63 60 56 51 50 47 51 44 60 57 59 68 61 74 74 67 51 89 44 81 77 82 87 93 96 81 86 87 86 92 98 94
81 84 82 81 85 83 78 74 75 72 68 70 75 76 68 67 68 70 86 91 97 100 75 56 50 43 42 50 46 62 42 48 71 64 85 83 85 54 68 59 56 74 57 97 96 93 83 79 70 75 83 94 94 77
82 78 79 80 82 75 74 76 73 71 70 72 75 74 70 68 67 71 88 86 94 92 88 54 36 44 38 42 49 49 50 46 50 57 72 79 79 49 68 58 65 68 61 77 96 85 80 73 80 75 72 67 64 60
81 82 83 82 83 78 76 77 73 74 70 70 76 78 71 69 69 71 85 90 68 75 95 68 46 38 42 45 48 50 52 54 51 68 69 73 58 63 57 58 81 65 88 91 97 99 94 96 91 82 83 78 61 58
79 80 83 83 82 80 79 79 75 74 74 78 75 68 67 71 76 78 100 68 69 77 85 79 52 46 50 49 50 51 50 53 54 60 70 65 62 68 76 75 86 91 78 98 99 97 100 100 96 77 62 52 46 48
80 79 80 82 82 78 78 78 75 71 73 74 74 70 69 74 86 97 94 97 74 88 100 82 59 55 51 51 51 53 53 62 58 65 62 58 58 64 80 68 76 69 62 64 89 83 82 74 66 52 48 46 46 44
80 78 81 82 80 78 78 75 72 70 73 74 72 72 71 72 80 95 76 89 89 98 97 93 70 66 56 76 75 57 68 66 70 67 67 65 52 64 86 67 58 57 54 58 58 56 56 52 48 48 45 44 46 47
80 80 80 80 78 78 78 75 75 73 74 71 70 70 90 96 99 95 90 88 93 98 98 88 77 93 59 70 77 64 62 82 61 82 76 58 62 92 92 63 55 55 60 52 56 51 53 56 54 53 53 54 55 60
80 81 79 78 78 78 77 76 76 75 72 69 86 99 100 98 92 86 96 99 99 98 79 81 59 82 66 73 76 80 72 71 81 68 61 78 70 70 62 64 63 62 54 51 66 63 65 61 58 60 63 63 65 71
76 78 79 79 79 77 75 75 75 72 74 88 100 100 98 84 93 97 100 98 92 86 65 67 60 68 65 90 91 71 81 67 68 74 71 76 81 84 60 57 52 50 48 51 54 56 56 57 61 62 62 63 66 71
74 74 76 78 77 74 71 73 77 70 85 95 94 95 97 98 100 98 92 78 75 64 60 73 68 59 76 72 76 73 78 78 85 70 86 79 87 69 61 60 56 53 51 51 50 54 57 58 59 60 64 73 78 78
73 72 75 76 73 69 71 75 76 70 87 94 99 100 99 99 99 96 91 82 86 76 81 83 91 81 76 92 100 84 91 91 76 93 80 89 76 62 59 54 54 52 54 56 60 60 60 65 66 69 82 81 81 84
75 74 75 75 72 72 74 74 75 83 97 100 100 100 100 100 84 76 68 76 90 85 84 83 91 78 91 100 100 100 94 76 88 84 79 83 83 80 69 67 71 84 82 80 82 82 84 85 88 85 85 84 83 84
74 73 70 70 73 74 76 76 80 91 100 100 100 98 97 95 94 99 99 91 86 86 87 87 79 76 86 100 96 96 98 87 74 90 89 86 84 78 77 78 80 84 85 84 82 84 85 84 83 85 81 80 82 84
72 72 65 72 74 72 79 90 96 99 100 99 84 99 94 97 100 100 100 100 85 90 76 80 86 91 90 87 93 91 81 77 95 88 87 83 83 82 83 83 83 82 80 81 81 80 79 80 82 80 78 79 81 79
73 64 70 75 78 79 86 94 100 100 97 90 94 99 100 100 100 100 100 99 96 97 99 68 91 81 76 80 84 78 94 92 86 86 82 81 82 85 84 84 84 81 79 77 78 77 77 76 77 76 86 82 78 73
76 73 76 77 79 97 100 99 94 92 85 84 87 94 95 99 100 100 100 89 91 79 67 80 62 87 94 87 84 90 85 85 83 85 82 82 83 83 81 82 80 77 77 77 76 76 74 74 66 70 64 63 56 59
90 78 80 81 81 87 95 93 76 79 87 86 88 85 85 92 87 87 93 78 61 53 63 67 91 80 90 88 92 89 85 82 84 81 80 80 80 81 80 79 78 76 76 76 70 60 60 65 61 54 51 49 52 51
96 90 83 81 74 67 74 76 57 62 79 80 73 76 75 80 81 99 94 73 68 73 84 86 89 94 89 84 78 81 79 74 70 73 76 75 73 78 79 74 70 74 66 69 68 72 56 53 48 48 51 53 64 64
93 92 84 85 83 75 64 60 61 62 68 72 66 66 77 75 87 94 90 72 91 83 83 83 90 83 75 71 66 66 68 59 62 61 67 73 70 70 68 67 68 65 62 62 66 66 66 61 54 52 69 75 73 69
96 89 97 79 76 73 66 52 58 57 65 75 76 64 85 92 93 91 67 86 80 84 75 69 68 68 66 68 62 57 70 66 69 64 68 65 66 63 64 67 61 70 64 73 61 67 68 54 58 62 70 74 70 64
70 72 81 73 88 86 92 64 78 60 82 85 70 78 83 84 73 58 89 65 79 69 61 55 54 51 59 56 52 50 49 49 54 60 63 62 63 67 64 62 62 70 65 55 52 56 62 79 66 76 69 69 68 72
69 92 100 95 74 93 90 93 61 65 78 85 81 84 78 79 65 77 84 76 76 65 61 62 55 58 55 54 54 56 54 51 57 61 60 59 61 59 53 51 53 57 54 50 55 63 65 76 85 69 72 72 72 73
89 94 94 93 81 85 84 84 81 70 86 83 85 84 84 70 88 85 83 81 80 77 70 60 56 54 59 63 62 64 57 52 57 62 60 52 59 54 51 47 50 52 59 72 73 75 74 74 74 73 69 71 68 69
88 89 93 89 87 80 74 86 84 83 79 86 86 72 80 86 90 87 63 81 86 82 85 82 72 62 58 55 62 63 60 53 51 57 56 50 53 68 68 66 63 71 65 75 77 74 69 68 70 69 71 66 78 81
86 89 72 55 62 65 83 77 65 79 84 85 85 89 88 88 85 76 76 80 75 76 69 66 59 56 58 59 60 60 60 63 63 59 58 56 56 56 69 76 64 73 63 70 72 72 73 71 72 72 72 71 70 71
77 77 85 87 81 70 82 80 80 80 84 69 74 87 82 79 81 84 79 78 90 80 72 62 56 55 58 64 70 76 76 74 75 68 65 65 65 71 74 75 75 77 75 79 77 75 74 75 75 74 73 75 75 72
83 73 68 84 79 80 81 80 80 70 65 73 85 80 80 71 81 82 79 82 74 74 78 82 86 82 79 75 76 74 75 74 70 70 53 74 79 82 73 75 74 75 75 74 78 73 71 75 76 77 75 78 77 76
85 71 76 80 82 83 87 81 86 85 67 71 63 64 70 82 85 85 84 89 89 86 85 84 86 85 88 88 91 89 84 83 84 78 75 74 80 81 79 77 76 77 77 75 74 69 71 73 71 74 76 75 74 74
70 80 79 77 84 87 87 86 86 81 79 81 79 80 81 86 88 84 84 86 86 87 87 87 86 83 84 84 82 83 88 88 84 79 76 80 80 79 79 79 79 78 76 75 75 75 76 76 74 73 72 71 71 72
83 79 82 85 88 86 84 87 83 82 84 83 86 81 87 85 85 88 90 90 85 88 86 83 86 89 85 87 87 88 82 84 83 80 74 78 80 79 77 74 78 78 76 76 74 74 73 73 75 73 74 72 74 77
82 82 80 82 87 85 85 79 72 81 79 80 85 86 90 88 85 89 85 88 92 88 88 88 86 85 84 83 83 85 80 85 87 86 83 86 87 86 80 78 77 76 74 75 74 73 72 71 74 75 76 80 83 84

GFSWCAN_sfc_rhum_102.txt.gz
RH
86 84 82 78 79 76 72 71 71 70 66 67 74 73 65 62 70 70 88 70 70 76 52 47 43 54 44 43 62 50 55 64 69 78 59 59 65 52 59 52 52 68 82 77 76 75 89 73 57 80 98 98 96 94
85 84 85 80 80 77 74 74 75 73 69 73 76 76 75 64 71 71 87 86 89 98 68 65 55 49 49 48 55 53 58 60 61 69 70 66 78 70 54 90 46 86 72 74 83 92 90 77 86 95 92 93 98 94
86 87 85 79 82 83 78 78 76 75 71 73 77 73 68 65 69 70 78 90 97 100 76 59 49 42 41 45 48 69 70 47 62 59 78 79 78 56 76 64 56 68 53 89 91 88 83 79 75 77 81 91 72 64
85 86 84 82 83 85 84 80 77 77 72 72 74 76 71 67 65 68 65 89 84 91 89 60 33 39 34 39 44 50 54 50 49 49 71 79 80 53 71 58 67 64 59 75 91 81 78 76 79 76 69 61 59 55
82 85 86 81 82 82 79 78 78 77 72 72 75 75 71 69 67 63 61 85 75 87 89 62 44 35 35 41 45 47 53 56 54 58 75 74 57 67 59 58 80 68 84 85 91 99 89 94 83 75 73 63 52 52
83 83 82 83 85 85 76 79 77 75 72 73 72 75 75 69 71 64 99 61 63 82 89 78 76 50 45 45 47 49 51 55 53 55 68 57 47 70 78 83 87 81 78 93 98 87 98 98 82 62 54 51 45 47
82 83 83 85 86 83 79 80 78 76 72 77 77 72 67 69 74 86 90 98 92 86 92 78 63 50 46 48 57 55 51 65 55 63 60 57 57 66 81 78 77 64 60 78 82 70 80 75 62 49 46 44 43 43
82 82 83 84 85 84 82 81 77 71 72 73 75 71 69 71 74 76 72 90 88 97 90 89 70 74 51 68 72 56 70 68 69 66 59 63 56 67 91 71 61 55 54 55 56 52 53 49 45 45 42 42 44 50
82 81 81 82 84 82 81 79 76 70 72 76 77 72 83 80 94 78 83 88 95 96 98 88 80 88 60 68 68 66 64 90 61 86 65 60 65 92 91 67 52 55 57 56 51 49 50 55 53 54 56 59 65 70
81 81 82 82 81 81 81 78 75 72 77 75 79 96 100 97 81 89 98 99 100 89 96 87 60 82 65 82 82 79 78 78 92 72 55 77 87 70 61 60 61 60 53 52 65 67 64 63 60 63 67 69 71 75
77 80 81 80 80 80 80 79 77 79 76 82 100 100 97 87 96 99 100 99 86 88 66 62 60 71 59 81 86 71 89 72 67 72 69 78 87 84 58 55 51 50 47 51 55 58 58 61 64 66 66 69 72 76
75 76 79 80 79 79 78 78 78 67 71 78 95 94 98 99 100 100 88 76 75 63 58 73 66 53 93 71 93 72 74 77 78 69 81 75 90 68 61 60 58 56 52 52 51 56 59 60 61 66 72 77 80 81
78 79 78 80 79 78 77 78 78 65 79 93 99 100 99 100 100 93 88 77 81 77 83 84 90 78 72 90 98 90 81 82 74 88 81 93 77 65 61 57 60 56 56 58 62 63 67 76 74 73 85 85 85 87
80 81 80 80 78 76 76 76 77 85 95 100 100 99 100 95 81 75 70 81 89 93 90 84 89 77 88 94 100 96 90 71 79 82 87 88 87 82 71 69 74 86 88 84 85 85 88 89 91 91 91 92 92 92
79 81 80 78 77 76 77 78 78 84 100 100 100 98 92 92 98 100 100 94 87 87 86 85 82 74 89 98 95 92 91 80 70 92 94 94 87 81 80 80 83 85 90 88 84 89 91 92 89 88 90 88 88 92
77 78 64 78 77 74 78 87 94 95 100 99 100 100 97 99 99 100 100 100 94 92 84 78 82 92 87 83 88 85 77 80 96 93 93 88 88 89 87 86 87 84 83 84 84 83 84 89 86 82 83 85 89 89
76 55 73 78 77 76 84 95 99 100 100 98 100 100 100 100 100 100 100 100 97 94 99 81 88 80 80 77 76 81 94 95 92 90 88 86 84 87 89 88 90 85 82 82 80 79 78 78 82 75 83 81 79 80
58 64 76 77 80 89 99 96 99 99 97 95 96 97 96 100 100 100 100 98 87 90 78 81 73 82 82 82 90 91 91 93 90 90 89 88 84 86 85 83 81 80 80 82 80 81 82 83 78 88 64 64 55 58
65 70 78 92 87 69 87 95 96 93 90 87 89 91 92 95 92 87 93 94 80 72 68 69 91 78 93 86 90 93 92 88 90 88 86 84 82 84 83 80 80 82 82 79 76 85 82 63 60 56 52 49 57 59
77 79 80 86 85 62 76 83 69 83 83 83 76 83 84 83 88 99 96 78 67 67 80 81 94 94 89 82 89 88 88 84 76 81 85 81 76 79 79 75 75 75 71 73 66 76 57 53 49 49 53 56 71 77
80 80 82 76 91 91 65 73 64 62 66 77 68 70 80 82 92 96 90 70 89 77 86 85 91 82 78 81 77 75 76 67 69 67 72 78 73 73 72 73 67 64 64 67 68 74 68 62 57 57 77 83 84 77
95 82 88 85 99 81 70 56 60 59 66 73 77 70 85 90 91 93 71 88 86 86 80 78 74 72 69 68 63 62 72 67 70 70 72 71 74 69 70 70 64 71 66 71 63 71 70 63 69 69 80 84 75 75
79 74 81 92 98 89 91 63 76 63 80 84 75 81 85 84 79 62 82 74 86 71 63 59 58 54 60 58 58 56 53 54 58 64 67 69 69 71 68 63 64 72 68 58 54 57 70 75 70 79 76 78 77 82
80 94 100 94 93 95 87 88 62 64 70 78 82 82 82 82 68 76 86 78 79 65 59 58 58 61 57 53 55 54 53 54 60 64 63 61 63 60 57 55 56 60 57 53 57 68 70 80 87 74 81 81 81 83
92 91 98 93 82 90 85 83 84 73 83 80 80 82 83 72 84 81 78 88 80 79 74 62 58 57 62 64 63 62 56 53 59 63 58 58 66 55 52 48 52 53 59 74 78 83 81 82 81 80 78 80 76 79
90 93 93 85 85 76 76 82 80 83 73 80 83 74 79 81 84 83 76 87 86 85 88 84 78 67 63 60 64 62 58 57 57 59 54 51 55 67 68 67 67 87 72 78 79 77 74 75 77 75 78 74 78 85
93 93 87 75 77 72 86 77 67 76 79 81 85 86 85 88 84 86 80 87 85 83 74 71 63 62 64 65 64 66 68 67 66 61 59 56 60 63 77 83 83 81 66 72 73 76 76 76 77 78 80 79 78 81
77 85 91 84 82 73 92 80 81 80 78 68 75 84 84 86 90 88 80 90 88 81 84 72 66 64 67 71 76 80 80 78 79 74 71 68 68 75 79 78 75 78 77 79 78 78 77 78 79 80 81 84 84 81
82 72 72 88 79 78 78 78 77 69 64 75 93 83 84 76 87 77 86 88 79 78 80 85 88 85 82 79 81 78 79 76 75 80 73 84 90 86 75 76 76 77 76 74 84 79 73 81 82 81 80 82 84 85
84 69 77 78 81 84 87 87 88 82 67 72 65 68 74 81 87 86 88 79 86 90 89 88 89 88 91 90 92 90 85 85 90 82 76 82 90 84 80 78 78 79 77 77 77 73 72 77 78 79 80 81 81 83
67 76 78 76 84 88 86 85 84 79 81 86 82 81 80 86 86 83 90 95 90 91 91 93 91 86 87 87 86 88 92 88 85 82 82 85 83 84 82 81 81 79 78 78 78 78 80 80 80 80 78 79 80 83
80 76 82 84 88 83 86 92 87 85 86 85 85 83 88 87 86 89 89 94 93 94 88 87 91 95 92 90 90 89 85 87 85 82 76 83 83 80 78 76 79 78 78 78 78 79 79 77 81 81 84 82 86 87
83 80 80 82 87 85 83 87 76 82 83 83 88 90 92 90 89 90 88 92 94 89 93 92 88 87 86 85 85 88 86 90 88 88 86 90 92 90 81 82 80 80 78 78 77 78 78 80 83 83 83 88 88 88

GFSWCAN_sfc_rhum_105.txt.gz
RH
81 81 81 79 79 80 80 78 77 74 75 73 75 74 70 67 70 86 97 91 92 95 86 73 69 80 76 74 91 76 81 82 90 94 88 85 91 78 81 71 70 90 94 98 90 89 91 80 70 84 99 99 98 98
88 85 81 81 81 78 75 76 76 78 75 75 76 75 68 64 71 75 96 92 93 95 93 87 77 71 69 66 83 80 83 82 89 94 90 89 94 93 81 96 65 95 86 96 92 94 97 82 95 97 96 99 99 98
90 90 84 80 82 78 76 78 79 78 76 78 78 76 74 64 70 75 96 96 92 97 88 92 75 63 54 62 66 88 95 82 79 82 96 97 96 80 97 97 93 81 77 96 98 96 92 89 87 89 96 96 79 69
87 86 87 83 83 79 79 80 80 78 78 78 77 75 73 67 66 69 94 97 91 90 93 80 48 53 48 50 63 68 72 73 72 80 89 96 96 74 90 82 89 86 77 87 96 90 85 87 93 90 73 62 60 53
85 86 86 79 80 81 82 81 81 80 77 76 75 76 73 69 66 76 88 95 93 98 97 90 66 50 46 58 57 60 68 76 86 86 92 94 81 84 84 87 91 79 89 97 98 100 92 94 95 80 76 71 59 58
85 87 86 83 81 83 84 82 82 80 78 77 76 76 74 72 70 92 100 93 91 93 90 90 80 71 60 58 61 64 70 74 80 84 87 84 62 83 97 97 92 90 83 93 98 93 97 97 97 77 62 53 51 56
84 85 86 84 86 85 79 82 81 79 74 77 76 80 73 72 92 98 97 96 91 92 99 92 89 82 56 63 73 74 66 85 79 83 85 81 79 80 96 98 96 75 78 82 80 82 92 96 70 52 50 50 52 54
85 84 83 84 86 86 82 82 80 75 75 77 79 73 72 72 78 88 84 91 90 96 95 92 90 92 66 85 88 81 89 87 86 86 83 83 80 84 98 80 62 56 58 64 61 56 58 54 51 57 58 54 63 72
84 84 82 84 87 83 84 81 80 74 75 79 78 76 90 92 91 93 87 88 96 98 96 93 83 98 91 86 86 87 88 98 86 96 90 84 95 99 95 76 64 61 63 57 53 53 60 64 66 72 75 78 83 86
84 84 83 86 87 85 82 81 79 75 75 78 86 95 99 93 77 88 96 99 95 97 96 94 87 95 89 95 96 91 91 96 98 94 83 94 98 79 72 70 69 70 68 74 74 87 84 78 79 81 84 84 90 94
81 83 82 85 85 82 81 80 77 75 77 92 99 96 93 85 93 97 99 98 93 97 96 93 88 90 82 95 96 90 98 95 94 96 93 97 97 92 66 63 60 61 60 67 69 75 76 77 78 81 86 84 82 85
75 81 81 83 83 82 80 79 78 85 92 90 91 96 98 99 100 99 98 95 96 82 84 93 85 82 98 94 99 96 91 93 90 96 91 95 98 77 73 74 74 73 71 69 69 78 83 82 83 83 86 91 94 94
78 81 81 82 80 79 80 79 77 77 84 97 99 100 100 100 99 99 93 94 88 92 92 92 96 93 95 90 94 94 83 94 95 90 97 98 86 74 74 84 88 83 80 80 82 80 84 88 84 86 97 97 96 98
80 81 82 81 80 80 79 78 78 89 98 99 99 98 99 96 96 92 92 92 93 97 93 95 96 95 98 93 89 86 89 94 89 94 98 97 94 92 86 83 87 96 94 94 95 95 96 96 98 97 97 97 97 97
81 81 81 81 80 79 79 80 81 94 100 99 99 98 98 95 99 100 100 99 98 98 94 95 96 91 92 96 90 85 94 96 94 99 99 97 92 90 92 92 95 95 96 96 97 97 98 97 97 98 98 97 96 97
80 81 75 80 79 78 79 84 96 96 99 100 99 99 99 97 99 100 100 99 98 97 96 93 93 93 84 83 96 93 93 97 99 98 97 94 96 96 96 94 94 94 94 95 95 96 96 94 96 95 96 95 96 95
70 76 80 79 80 83 84 98 99 98 99 99 99 100 99 100 100 100 98 100 100 98 98 96 82 85 91 86 80 96 100 99 97 98 96 93 95 96 95 90 92 89 92 95 95 94 92 94 92 93 96 93 92 92
78 82 79 80 86 91 100 97 95 97 98 98 99 99 100 100 100 100 100 100 97 98 96 90 90 90 93 91 98 99 98 98 96 96 97 96 96 95 94 95 90 92 94 95 94 94 94 94 91 92 93 89 84 79
80 79 78 78 79 92 97 96 98 99 99 99 99 99 99 99 98 98 100 97 89 85 95 94 97 93 99 99 98 98 96 97 97 97 94 91 91 92 91 91 91 95 94 94 94 93 92 88 86 87 87 78 92 94
77 79 80 76 79 80 86 94 92 95 94 99 98 97 99 98 99 100 100 95 89 94 91 94 98 95 98 98 96 92 94 92 93 96 97 96 89 90 92 93 96 94 94 94 93 88 90 87 84 77 86 91 97 98
85 90 85 84 98 99 96 93 93 87 86 96 89 84 96 96 99 97 98 92 98 96 99 99 98 96 93 93 87 86 84 82 87 88 93 97 95 94 94 98 91 94 94 96 97 97 90 97 96 90 96 99 97 94
92 82 98 97 99 97 94 78 82 81 87 91 91 89 97 98 98 99 93 99 99 99 98 95 87 83 88 88 87 87 88 84 85 84 90 90 96 96 96 95 95 95 94 94 95 96 97 96 96 95 95 97 93 95
80 85 98 98 98 99 96 84 88 81 94 94 92 92 97 98 96 83 97 96 98 95 92 81 81 77 84 79 74 74 73 74 82 87 92 95 94 92 92 92 94 95 95 93 92 95 97 93 94 95 94 94 97 96
77 89 94 97 98 97 97 97 86 89 90 92 94 96 94 96 85 95 97 95 97 93 84 79 76 80 77 72 84 87 86 77 87 85 88 88 91 94 86 85 88 91 93 94 94 95 96 98 98 96 97 97 97 97
88 89 98 95 96 97 98 98 91 88 95 90 92 96 98 94 98 97 92 99 97 95 84 81 80 76 83 95 94 88 77 74 82 89 90 82 84 86 82 79 83 88 93 95 97 96 98 97 95 94 93 96 94 96
94 96 98 90 95 95 93 96 92 94 93 91 90 95 92 95 98 94 96 98 97 93 89 87 92 88 87 79 85 88 94 75 71 80 86 81 91 95 93 91 97 99 96 98 96 96 96 96 94 91 95 92 96 100
97 97 94 83 94 91 97 93 87 93 93 94 98 91 88 93 89 99 98 99 99 95 93 93 88 86 80 87 85 85 84 82 80 79 81 84 88 90 96 97 98 98 95 95 97 96 99 100 99 98 98 99 99 99
94 93 95 98 98 97 96 95 96 94 95 94 91 90 87 96 99 98 99 99 98 97 96 95 82 77 85 90 90 88 88 85 85 85 85 92 95 95 94 94 96 94 96 95 96 97 97 99 100 100 100 100 100 98
96 96 93 96 96 96 97 98 98 91 88 90 98 98 98 98 98 98 98 97 87 88 92 94 96 89 89 90 90 89 92 94 92 99 100 100 100 99 98 97 96 96 98 98 96 98 93 96 97 99 96 97 96 98
96 94 95 89 93 96 98 98 98 95 93 94 88 88 94 98 98 96 98 98 95 95 94 93 92 91 93 93 96 97 96 97 99 96 96 98 99 98 97 97 97 95 97 96 96 94 94 96 99 97 93 95 96 98
88 92 91 92 96 97 97 96 94 94 97 96 93 95 97 99 98 97 96 98 94 92 94 96 95 92 92 93 95 97 100 97 97 94 92 94 95 96 96 96 96 97 97 96 98 99 97 98 98 99 97 99 100 99
96 90 94 96 98 96 96 98 98 96 96 96 98 96 99 97 99 98 97 96 96 95 96 95 94 97 96 95 95 95 91 96 99 97 93 93 95 96 96 96 97 96 96 98 99 98 97 100 100 100 100 99 99 99
96 92 93 95 98 98 97 97 94 97 96 96 97 98 97 96 100 99 98 96 97 94 95 95 95 94 94 94 96 98 96 96 96 96 95 97 90 92 93 94 94 95 95 98 99 100 98 98 100 98 98 99 100 100

GFSWCAN_sfc_rhum_111.txt.gz
RH
80 82 81 81 81 79 79 80 79 79 80 80 76 76 77 80 81 90 99 97 86 93 86 87 81 83 82 84 86 77 80 87 93 93 89 93 97 84 97 84 95 87 94 92 87 83 92 94 82 82 98 99 90 86
84 82 82 82 82 81 82 80 79 79 80 80 79 77 78 78 77 84 98 98 94 92 81 94 85 73 72 65 86 91 88 92 93 96 95 96 94 94 89 97 83 94 92 90 94 94 98 99 99 98 95 96 99 85
85 81 82 82 83 82 81 81 80 80 82 80 76 72 76 77 82 86 99 97 95 96 85 84 74 77 74 71 72 88 93 88 85 88 97 98 94 89 98 99 91 93 81 95 94 96 94 92 90 91 90 82 77 83
81 82 83 85 86 82 81 82 81 81 81 80 77 73 76 76 79 82 97 98 94 96 94 84 60 67 66 72 74 76 75 84 86 93 93 98 97 78 95 96 91 89 85 88 96 93 87 92 92 83 71 67 72 70
84 83 83 84 83 82 82 81 82 84 83 81 76 72 72 74 77 85 95 98 96 93 97 88 76 64 62 72 73 78 79 85 93 88 96 92 92 88 97 95 90 88 97 98 99 92 94 96 93 77 80 78 75 78
84 82 82 83 83 83 83 84 83 84 84 82 76 73 72 77 76 78 93 94 97 96 95 94 84 72 70 70 71 78 81 90 91 90 91 90 79 85 98 91 98 93 86 92 96 93 96 97 98 73 76 73 73 79
82 80 82 84 85 84 84 84 83 84 83 82 81 76 77 80 95 95 92 94 92 95 96 94 89 82 70 74 84 84 80 92 86 92 93 90 87 89 98 96 95 84 80 85 88 84 85 74 80 70 75 78 80 81
89 85 81 85 85 85 85 83 83 82 83 83 79 76 76 71 75 94 93 89 95 97 94 95 90 89 77 84 88 94 93 93 89 90 91 87 88 97 97 96 82 78 80 84 70 66 70 69 69 73 71 73 76 79
90 90 86 85 85 85 84 81 80 81 80 80 77 78 88 92 90 89 88 87 96 92 96 98 95 96 88 93 94 94 94 96 92 97 92 89 98 98 97 88 75 72 71 66 60 62 66 73 80 80 78 78 84 86
90 90 90 86 83 84 81 82 82 82 82 78 87 86 95 91 77 87 91 91 92 98 88 96 95 95 90 98 98 93 96 98 98 94 90 95 97 95 82 80 79 84 80 72 81 85 84 84 82 87 92 88 85 89
85 86 88 86 85 83 82 83 82 80 77 94 98 99 94 80 92 92 94 90 98 96 89 86 92 94 92 95 97 92 96 97 98 97 92 99 99 99 84 78 76 73 76 81 85 82 78 80 86 87 85 82 84 87
85 86 87 86 84 82 82 82 81 89 93 91 97 94 95 88 92 86 88 89 90 94 96 98 96 92 96 95 95 97 96 95 98 96 96 99 98 90 81 77 76 83 80 82 81 86 86 82 82 84 88 93 96 95
85 87 86 84 83 82 82 82 76 84 90 96 97 91 98 99 98 95 97 97 99 97 97 97 98 96 95 96 98 92 91 96 93 98 95 95 96 82 78 79 88 85 84 84 86 84 84 88 86 88 96 98 97 98
85 87 86 84 82 82 83 79 84 87 92 97 96 98 98 96 89 97 95 94 92 96 96 98 98 84 99 93 97 88 88 94 95 96 96 98 95 91 88 87 88 97 95 96 97 96 96 96 100 99 98 99 97 96
84 86 85 83 82 83 80 85 84 96 96 98 95 99 95 94 96 95 96 100 98 99 95 96 96 92 98 96 89 92 97 98 94 93 96 99 95 93 95 94 96 96 97 97 98 97 100 98 97 100 100 99 97 98
82 83 86 84 82 79 80 83 92 95 95 92 86 98 97 98 99 100 100 99 97 98 95 93 95 91 93 92 97 82 82 96 92 99 99 97 96 97 97 96 95 96 96 97 97 97 98 99 99 98 98 97 100 99
87 94 83 83 83 79 78 93 94 97 98 87 95 99 99 97 99 100 100 100 99 94 98 97 91 85 90 83 91 94 94 96 100 99 99 96 93 96 96 95 96 96 96 96 97 98 97 96 97 97 98 96 96 94
95 88 84 84 82 89 96 94 94 92 95 92 98 98 99 99 100 100 100 100 97 99 97 91 91 93 94 92 92 98 98 99 99 99 98 98 96 95 92 95 97 95 94 95 95 96 96 99 97 97 91 89 91 94
88 87 80 74 85 95 97 97 85 88 93 98 99 99 100 99 99 100 99 97 93 92 96 96 89 93 99 99 99 99 100 99 98 99 100 98 94 94 95 95 95 96 94 95 94 97 96 92 94 97 97 99 98 97
84 82 78 81 83 91 91 97 96 96 99 96 99 99 99 99 99 99 97 94 92 96 92 94 97 98 98 98 98 98 98 95 95 98 100 100 98 94 95 97 97 95 97 97 97 98 98 98 98 97 94 95 98 98
87 87 84 92 91 88 93 98 95 93 99 99 100 98 99 98 96 97 96 95 95 99 100 96 98 99 99 99 98 96 93 88 92 92 95 99 99 95 96 98 96 98 98 99 99 98 97 97 98 94 98 98 98 98
98 89 97 93 96 95 99 94 92 94 98 98 99 95 99 99 98 98 95 97 98 97 98 98 98 99 99 98 97 91 91 87 91 94 96 95 99 99 98 98 99 100 99 99 98 99 98 97 95 97 99 99 99 98
88 90 93 97 98 97 97 93 95 96 97 98 98 96 98 98 98 87 96 95 97 98 98 97 90 86 93 91 88 84 78 79 93 95 95 97 97 98 98 99 98 98 97 97 98 97 97 98 98 99 100 99 98 100
84 93 98 95 98 97 98 98 94 92 98 98 96 97 97 99 91 98 99 97 97 98 97 93 91 96 95 88 98 98 97 92 96 97 96 95 98 99 96 97 96 96 95 95 96 98 99 100 99 96 99 100 100 100
82 83 91 98 98 97 97 98 98 92 99 96 97 100 96 96 94 98 98 94 99 99 100 96 96 95 97 99 99 99 92 88 92 97 98 96 96 91 94 95 97 98 96 95 99 100 100 100 100 100 100 100 98 100
96 88 96 96 98 96 96 100 100 97 98 98 96 97 96 97 100 100 94 99 100 99 99 95 96 97 96 97 97 98 97 91 85 94 98 87 85 89 94 97 98 97 96 97 97 100 100 100 100 100 100 100 100 100
100 98 98 91 96 92 99 98 91 95 95 98 100 98 95 100 98 92 99 96 99 100 96 86 84 86 91 98 97 97 93 91 91 91 91 90 92 94 94 93 97 97 96 95 97 99 100 100 100 100 100 100 100 100
95 96 93 94 100 98 98 99 98 96 95 96 93 96 95 90 90 98 99 99 97 97 95 94 88 86 91 94 94 94 93 87 86 83 81 86 93 96 95 96 94 99 98 99 99 100 100 99 100 100 100 100 100 100
99 98 97 97 97 97 97 98 98 98 96 98 93 99 98 99 98 100 98 98 96 95 96 96 97 94 95 95 95 92 90 86 82 82 96 100 100 98 100 99 99 100 100 100 100 99 96 99 100 99 100 100 100 100
99 97 96 97 96 96 97 98 98 98 97 98 95 96 97 98 99 98 98 98 97 99 100 96 95 93 95 94 96 96 97 97 96 88 90 98 97 99 100 99 100 100 100 98 99 98 100 98 99 97 98 98 99 100
95 96 97 97 97 97 97 97 98 98 98 97 98 96 98 99 98 98 98 98 98 97 95 96 96 96 95 95 95 96 98 98 98 95 94 94 96 99 100 100 100 100 99 98 98 99 100 100 100 100 100 100 100 100
98 97 96 96 97 97 97 97 97 97 97 98 100 100 98 97 99 97 98 98 98 97 99 95 95 97 96 96 97 96 94 99 95 94 93 95 100 100 99 99 99 97 96 97 98 99 100 100 100 100 100 100 100 100
97 97 96 96 97 96 97 97 96 97 97 99 100 99 98 95 95 97 98 97 98 98 98 97 97 96 96 95 96 97 95 96 97 99 98 100 93 98 98 99 97 95 94 97 98 97 99 99 100 100 100 100 100 100

GFSWCAN_sfc_rhum_114.txt.gz
RH
83 85 81 82 82 82 81 81 82 78 79 82 84 86 84 81 80 87 99 96 81 93 85 86 77 83 82 75 70 70 80 86 93 91 87 94 97 90 99 96 93 87 94 93 94 90 89 95 89 82 98 94 91 80
85 82 78 79 81 82 82 82 83 82 81 83 86 86 84 79 76 78 97 95 92 92 85 92 83 76 64 59 86 93 86 93 92 96 97 96 98 96 92 98 90 95 89 93 95 94 98 96 96 94 92 97 94 81
88 86 84 82 81 81 81 82 83 84 84 83 84 82 83 80 78 81 98 97 92 94 84 82 78 80 73 73 72 90 94 88 88 90 97 99 89 93 98 98 95 98 83 94 92 96 95 94 90 90 82 89 87 78
85 82 81 86 82 82 81 83 83 83 80 81 84 85 82 78 78 82 97 98 92 92 95 86 62 69 75 71 73 75 84 87 90 94 94 98 97 86 98 93 88 91 90 92 96 95 94 94 88 86 76 73 77 76
80 81 82 82 79 83 82 82 82 82 79 78 81 80 79 78 80 88 97 99 97 89 94 79 74 70 70 72 77 80 82 88 94 88 96 92 92 91 92 92 92 94 96 97 98 91 94 97 86 79 82 83 80 82
83 85 90 88 80 83 82 83 82 83 80 78 76 77 76 74 65 73 92 86 98 93 91 94 83 77 79 79 79 82 86 92 93 90 93 90 82 87 98 87 98 93 90 92 97 92 93 96 82 77 80 80 81 85
89 87 84 83 84 84 83 82 82 83 82 80 76 77 79 80 92 94 90 92 92 94 94 91 91 86 72 75 86 89 85 95 90 94 93 92 89 93 99 93 95 85 84 88 84 78 83 77 86 78 81 82 81 82
82 82 83 83 83 83 84 84 84 85 84 79 77 76 76 79 82 92 96 91 88 95 89 95 93 87 76 84 86 96 92 93 92 92 92 89 91 94 94 98 85 79 78 82 70 71 72 74 75 79 76 76 78 81
78 83 84 84 84 84 84 84 84 84 80 75 74 71 82 92 97 98 84 86 96 89 96 96 95 97 83 94 95 96 94 96 92 97 91 91 99 97 95 98 84 84 81 74 66 67 70 74 80 79 79 80 84 85
84 85 85 86 85 84 84 84 84 83 79 71 82 83 93 93 78 81 88 92 94 96 93 97 97 96 92 94 99 96 97 98 98 95 92 96 98 92 84 87 86 86 78 75 83 87 83 83 83 86 88 86 86 90
85 85 84 85 83 83 84 84 84 74 75 93 99 98 95 82 91 92 96 94 96 95 94 91 91 94 94 96 97 94 97 98 97 97 93 99 91 91 85 79 78 78 81 84 84 78 73 76 83 85 85 83 85 88
89 89 83 82 84 84 84 84 75 88 93 88 93 92 94 87 96 87 90 82 88 90 98 98 95 93 99 94 96 98 96 95 99 98 98 100 96 95 87 79 78 78 82 85 82 85 84 80 81 84 89 93 95 94
88 88 83 82 84 83 83 75 80 85 88 93 90 94 92 98 94 87 98 94 97 98 98 100 99 97 95 96 98 93 94 97 96 98 97 93 96 87 86 80 83 84 84 85 87 85 85 89 87 88 96 98 97 98
85 85 84 83 83 84 81 84 82 83 90 96 94 100 93 91 83 96 96 95 94 97 97 99 99 79 99 91 98 91 90 94 95 97 96 98 95 94 89 87 90 98 96 96 96 96 95 94 99 98 98 99 98 98
86 84 84 85 84 83 84 81 80 94 96 98 92 92 93 96 96 96 95 97 96 99 97 96 96 93 99 97 86 93 98 98 96 92 95 98 94 94 95 94 95 96 97 97 98 97 99 99 96 100 100 99 97 98
85 82 90 85 82 81 77 80 90 93 96 91 86 97 97 99 99 99 100 97 97 98 97 93 95 93 94 93 96 87 78 96 90 99 99 98 97 96 96 95 95 95 95 96 97 96 97 98 97 97 99 98 100 98
80 97 84 83 79 78 75 88 93 97 97 89 98 99 99 94 99 100 100 99 98 94 99 96 91 87 91 92 95 94 86 94 98 99 98 97 94 96 96 96 96 95 96 96 97 97 97 96 97 97 97 95 96 95
97 89 84 75 80 82 97 95 95 92 96 96 96 98 99 99 99 100 100 100 97 98 97 93 90 93 97 95 94 95 99 99 98 98 99 98 96 96 94 95 96 94 94 96 96 97 96 97 97 98 95 90 94 94
90 87 80 72 78 89 91 93 92 96 95 97 99 99 99 99 100 99 99 99 95 94 96 96 90 94 95 97 98 100 100 98 99 100 99 98 96 94 95 96 96 96 94 95 96 97 96 93 95 97 97 98 100 98
84 81 79 80 79 89 89 96 90 92 99 97 97 95 100 99 99 99 98 97 95 97 93 95 96 96 98 98 98 98 98 97 96 99 100 100 98 95 97 96 96 95 96 97 98 98 98 98 99 99 98 97 97 97
85 86 84 88 91 85 89 92 91 84 97 95 99 98 99 98 98 98 97 95 95 99 98 96 98 99 97 99 99 98 95 91 96 95 96 99 100 96 98 98 96 98 98 99 99 98 98 97 97 98 99 99 99 98
98 85 97 92 94 89 91 95 95 95 98 99 99 98 99 99 98 97 96 98 98 95 98 98 98 99 99 98 98 93 93 88 92 96 96 92 98 99 99 99 98 100 99 98 98 99 98 98 98 98 99 100 99 99
85 87 96 95 92 95 97 95 98 98 97 98 98 98 99 98 98 88 95 92 97 98 98 97 93 91 96 93 87 84 79 81 95 97 97 97 97 97 98 99 98 99 99 98 98 98 99 99 98 99 99 98 98 100
81 90 92 96 96 97 98 98 98 96 98 98 97 100 100 99 93 95 97 97 98 98 98 93 94 97 97 91 98 98 98 92 96 98 96 94 98 100 98 98 98 98 97 97 95 97 98 100 99 96 100 100 100 100
79 82 87 98 97 97 98 97 97 95 97 97 98 100 98 96 96 100 100 96 99 99 100 98 97 97 97 100 100 100 94 87 91 97 100 95 96 95 96 94 95 97 95 96 100 100 100 99 100 100 100 100 99 100
94 88 95 93 99 97 95 100 100 96 98 97 97 98 96 96 100 99 94 99 100 99 100 98 97 98 98 98 99 99 98 94 86 97 99 94 89 90 94 96 96 96 94 98 97 98 99 100 100 100 100 100 100 100
99 99 98 91 96 92 98 98 92 96 98 99 98 100 97 100 100 92 96 97 98 97 97 91 86 94 95 98 96 96 95 95 93 92 92 91 92 94 93 92 95 95 94 93 95 95 99 100 100 100 100 100 100 100
96 97 95 99 99 97 100 100 99 98 95 96 95 97 97 92 90 97 99 99 97 95 97 95 92 93 95 96 95 95 95 92 91 88 86 88 93 96 96 95 92 98 96 96 97 98 98 100 100 100 100 100 100 100
99 99 96 100 99 99 98 98 99 98 98 98 95 97 97 98 98 100 98 97 97 95 98 97 99 96 96 96 96 94 92 88 85 86 91 98 98 98 97 96 96 97 97 97 100 100 97 100 100 100 99 100 100 100
98 96 96 97 96 96 96 95 98 98 99 98 96 97 97 98 99 98 98 98 97 98 97 98 97 97 97 94 96 97 97 97 95 91 90 92 91 97 98 98 99 100 100 99 99 98 100 99 99 98 99 99 100 100
95 95 96 96 96 96 98 98 98 99 98 98 99 97 97 98 98 98 99 98 99 99 97 98 98 97 95 95 94 96 98 98 95 93 93 92 95 97 98 98 100 99 98 97 98 99 100 100 100 100 100 100 100 100
97 97 96 98 97 97 97 98 98 98 98 100 99 100 98 98 97 97 98 98 98 99 99 97 96 98 97 96 96 97 96 98 97 94 91 94 97 98 98 98 98 96 96 97 97 98 96 98 100 100 100 100 100 100
98 98 97 97 98 98 97 97 97 98 99 100 100 99 100 96 94 97 98 98 98 97 97 98 97 96 96 96 96 97 96 97 98 99 98 100 96 100 98 98 96 95 95 96 97 96 97 99 100 100 100 100 100 100

GFSWCAN_sfc_rhum_117.txt.gz
RH
84 84 86 88 88 89 89 88 86 86 86 84 87 88 84 78 76 81 97 92 78 91 86 78 70 74 68 58 63 69 72 79 79 79 67 78 82 78 89 86 86 76 87 86 88 91 92 90 96 82 91 92 81 78
85 85 86 90 87 85 81 81 86 88 88 87 86 84 81 78 74 72 92 90 90 91 86 83 77 72 53 50 79 82 76 86 75 81 80 81 85 85 86 94 77 86 79 84 90 90 95 98 95 97 90 86 85 79
84 87 88 87 84 83 82 83 86 89 86 86 85 84 81 77 73 74 96 92 88 86 80 77 80 74 65 69 68 85 88 81 82 79 85 91 79 76 88 89 90 89 83 91 95 96 93 92 94 82 84 91 79 71
83 87 88 85 82 82 82 84 86 88 88 87 85 84 82 77 76 80 95 97 86 89 93 82 62 74 70 66 74 75 83 82 81 77 82 87 78 77 90 86 80 87 87 85 94 94 89 88 89 79 74 73 72 68
87 86 89 83 83 84 84 84 85 87 86 85 84 83 82 78 78 81 93 98 90 86 92 77 71 70 68 74 77 76 78 79 75 75 84 79 78 81 88 80 80 84 90 92 92 89 86 92 91 77 76 76 72 71
87 89 85 80 83 82 82 82 83 85 85 83 81 74 70 66 58 70 95 77 92 90 88 88 79 81 77 78 79 79 78 81 77 74 82 75 71 78 87 86 93 92 94 96 93 89 93 91 80 70 73 73 70 70
91 86 80 79 83 82 83 83 82 83 83 81 80 84 83 83 89 95 87 87 90 90 92 89 94 81 70 74 80 81 80 86 74 80 78 75 77 83 85 82 92 94 94 86 79 79 86 69 74 67 69 70 70 65
90 83 81 83 83 83 84 84 84 83 83 85 86 81 79 78 81 89 96 88 83 91 84 94 97 89 73 79 83 86 82 79 81 81 80 74 80 78 91 90 78 74 76 78 81 74 67 72 71 72 67 66 70 69
83 84 84 85 84 84 85 85 82 82 77 72 68 66 84 93 98 96 85 82 93 86 91 90 91 94 80 91 90 88 81 87 84 86 76 80 90 87 92 88 80 78 72 69 66 68 68 69 70 69 69 71 72 76
85 86 86 85 84 84 86 83 81 75 70 70 82 80 99 99 81 75 85 90 92 92 89 93 86 96 84 93 95 92 91 88 89 87 81 91 90 88 82 79 79 78 68 66 74 79 74 76 75 76 77 75 74 80
86 86 85 85 84 84 85 84 73 69 71 93 97 98 95 82 88 90 93 91 91 89 83 84 82 92 89 90 94 88 90 91 91 92 85 92 82 89 76 75 73 69 67 71 69 67 66 68 74 76 76 74 75 78
85 85 84 85 84 84 82 73 74 89 92 84 91 92 90 91 92 87 91 84 83 82 91 90 86 90 98 88 91 93 92 88 94 91 95 93 84 86 77 80 76 74 74 75 70 73 72 70 70 73 76 81 84 86
80 83 85 85 85 77 73 81 82 83 78 88 89 93 88 93 92 89 97 92 96 94 96 96 97 95 90 94 93 85 91 93 91 97 91 84 88 84 79 75 77 74 76 76 78 76 76 79 77 80 93 94 93 95
79 83 85 85 82 83 83 79 76 81 90 95 91 98 92 86 90 91 88 90 90 93 98 96 97 90 95 89 95 92 88 90 89 96 87 85 94 93 84 82 84 96 95 95 95 93 94 93 96 95 95 95 95 95
84 83 85 82 83 83 78 77 77 92 94 96 88 97 96 96 95 94 92 93 96 93 93 92 90 85 96 93 88 88 93 90 86 87 86 90 93 92 94 90 94 95 96 96 94 93 95 95 93 96 96 94 88 91
82 82 87 84 78 74 72 76 87 90 92 87 90 95 95 97 99 98 98 98 96 94 93 88 89 92 93 90 90 88 81 88 85 88 92 93 96 95 95 93 94 94 94 95 93 92 93 95 94 92 94 93 95 92
83 98 83 78 76 77 74 85 89 94 91 87 98 98 98 96 97 99 99 98 97 92 94 87 91 86 86 90 91 85 89 87 93 96 94 94 94 95 95 94 94 94 94 93 93 91 91 91 93 88 88 88 89 87
95 88 76 72 76 77 93 90 88 83 95 96 97 98 98 99 99 100 100 100 95 92 90 89 81 90 93 91 89 88 95 97 95 95 94 94 94 95 92 92 93 91 91 93 90 92 91 93 87 80 80 79 82 82
88 81 75 71 74 82 85 90 88 95 94 95 97 97 98 98 98 99 100 99 93 89 90 88 90 87 88 89 89 98 96 95 97 95 93 95 93 93 93 92 91 90 90 90 87 81 80 82 76 75 75 79 80 81
81 82 81 78 76 84 85 94 85 88 96 92 92 92 98 96 96 98 98 99 99 92 91 92 91 90 93 93 93 92 92 91 89 92 94 92 88 90 90 86 82 84 82 85 83 88 80 80 81 82 84 83 80 85
89 88 83 87 91 88 89 84 86 83 87 92 90 94 98 94 95 96 94 92 93 98 98 96 94 94 94 96 93 88 89 84 86 83 87 92 90 84 87 86 84 82 84 87 88 90 93 86 79 80 89 96 93 89
96 79 92 90 92 85 85 90 91 90 88 94 94 93 98 99 98 96 93 95 96 95 93 92 92 96 93 92 90 84 88 83 87 88 90 87 91 92 91 89 88 92 89 91 84 87 88 86 86 89 92 94 91 88
82 83 95 91 84 90 99 92 96 95 97 95 96 96 98 99 94 88 94 86 93 96 93 90 90 86 90 87 82 79 74 75 82 86 88 87 86 88 90 90 88 93 93 89 84 88 93 92 92 93 91 88 86 91
75 87 86 97 90 97 97 96 94 94 96 97 96 98 92 96 91 92 94 90 91 91 92 92 90 94 90 86 89 88 87 82 87 90 86 86 88 89 85 86 87 86 83 86 87 92 91 94 93 88 90 91 96 95
76 77 86 98 93 96 98 96 97 93 98 96 96 97 97 92 97 99 96 91 96 97 97 93 91 89 91 96 94 93 87 80 85 91 91 82 91 90 90 85 85 84 83 91 94 95 97 95 93 92 93 95 91 94
89 89 93 94 98 96 96 99 99 98 97 96 96 93 93 96 100 97 87 96 98 96 99 97 93 91 91 88 93 92 90 83 82 89 91 82 82 89 92 92 91 88 84 89 94 94 94 93 93 93 95 96 100 96
98 98 96 89 95 89 97 97 91 97 98 99 96 99 96 100 98 88 93 93 93 94 91 92 88 85 89 92 91 91 90 87 88 87 88 85 86 83 85 89 88 85 83 86 88 88 91 94 94 94 99 100 100 99
94 96 99 97 95 94 100 100 98 98 95 90 93 94 97 92 88 91 93 94 94 90 91 90 89 89 90 91 91 93 94 92 93 91 89 90 89 91 92 91 89 92 89 90 90 91 90 91 94 96 94 97 97 96
99 98 97 99 100 99 100 99 99 95 93 93 95 96 94 90 94 95 93 93 92 92 94 95 96 96 95 94 95 92 92 92 93 94 94 95 95 93 91 90 89 89 90 93 97 97 91 93 94 94 94 95 96 94
99 96 97 99 98 97 96 94 96 96 92 93 91 92 91 95 97 96 96 96 96 97 96 95 96 95 97 95 96 96 95 95 91 90 93 92 90 92 92 92 93 94 93 93 96 97 98 97 96 92 91 92 91 91
96 95 96 97 96 96 96 96 97 98 97 96 97 95 93 96 96 97 97 97 97 97 97 98 97 95 95 96 94 96 97 95 90 88 89 91 92 95 95 95 96 96 94 94 94 94 96 96 94 91 89 92 96 93
96 96 95 98 96 98 97 96 96 97 98 97 97 97 96 96 96 97 97 97 97 96 96 95 96 96 95 96 96 96 94 95 93 92 89 93 95 94 94 94 94 93 93 94 94 94 92 92 91 90 92 94 95 95
96 96 96 96 97 97 96 96 97 98 97 97 97 97 96 96 94 96 94 96 97 96 96 96 96 96 95 95 95 96 95 96 96 98 97 99 93 95 94 93 92 92 92 94 92 90 88 88 92 94 95 96 95 95

GFSWCAN_sfc_rhum_120.txt.gz
RH
87 87 89 88 89 90 88 86 90 91 91 92 93 90 86 82 74 72 92 78 64 69 78 56 51 54 47 38 47 58 57 65 59 64 45 53 57 54 69 58 61 52 66 72 72 80 89 77 98 95 87 70 64 61
87 89 90 91 90 90 90 89 89 90 90 91 90 86 80 77 72 67 77 73 67 59 67 61 64 56 37 34 48 59 58 53 45 49 46 51 65 69 58 82 58 74 62 66 75 81 90 99 98 92 64 72 68 62
87 89 90 89 86 91 87 87 89 89 91 90 88 83 80 76 71 61 79 62 53 78 55 48 63 58 56 58 52 56 66 61 67 63 61 66 64 49 70 69 71 72 60 80 87 97 93 94 94 88 71 71 62 56
89 88 86 85 82 90 88 87 88 89 89 86 84 82 81 79 74 63 65 69 50 56 83 71 51 62 57 54 57 54 66 66 62 50 60 68 64 61 76 67 62 68 67 73 96 95 92 94 94 85 76 67 63 55
88 88 82 82 84 87 88 89 88 88 87 86 84 83 80 78 74 66 69 80 66 60 72 70 61 62 58 55 57 55 56 53 47 53 66 64 55 63 65 63 69 63 71 86 95 94 96 94 96 90 73 65 60 59
88 88 88 80 81 80 87 88 87 86 81 78 76 72 69 62 62 46 97 56 56 46 75 77 71 67 63 59 60 61 56 56 46 46 57 50 60 61 72 76 77 78 76 72 90 90 100 100 90 66 62 56 53 52
84 82 81 84 78 80 87 87 84 84 86 85 85 85 84 81 73 77 76 72 73 71 89 71 85 69 60 58 60 58 60 59 47 50 52 46 57 62 73 76 72 81 72 67 65 74 88 73 66 55 54 55 54 49
83 82 83 84 84 85 86 85 83 85 84 82 81 81 81 78 69 64 70 77 67 71 59 81 91 82 62 58 68 60 57 53 55 54 56 49 60 66 82 71 63 65 65 66 66 68 58 55 54 55 52 52 54 52
82 81 83 85 85 84 85 85 85 83 74 67 68 75 67 74 78 65 83 72 73 67 76 84 74 88 61 72 70 65 54 74 60 66 51 55 68 85 79 70 59 61 60 64 58 57 57 58 57 56 55 56 55 59
85 84 84 86 86 84 84 80 73 70 71 67 59 68 100 88 84 71 65 80 74 68 66 78 62 89 58 72 80 76 70 68 74 64 58 71 67 72 64 55 54 60 54 53 62 65 61 61 60 63 63 61 63 69
84 81 85 86 85 84 82 73 70 66 65 72 98 99 84 84 65 70 97 82 73 76 62 67 58 74 67 76 79 68 78 72 72 78 72 74 72 76 69 63 59 54 50 50 52 54 54 57 63 65 63 62 64 68
81 82 82 85 85 76 73 73 74 73 78 76 86 79 73 77 82 79 86 74 66 70 71 79 73 74 86 70 77 77 79 80 83 79 87 79 79 69 69 69 61 56 54 57 55 58 60 59 58 57 60 65 72 78
85 84 85 83 78 79 81 80 78 76 72 68 75 96 68 81 83 71 88 83 87 85 86 86 95 79 74 83 95 69 88 89 80 95 78 76 76 65 66 66 65 63 62 62 64 62 61 62 61 67 84 87 85 85
86 85 82 84 83 78 77 77 73 72 73 91 90 89 83 85 83 82 77 82 88 88 89 87 93 78 83 94 100 91 91 73 82 85 73 79 92 83 72 69 73 88 87 85 86 85 88 89 91 89 88 88 87 87
86 83 85 83 77 76 74 74 74 74 87 89 78 91 89 92 92 94 95 90 88 84 83 84 80 67 88 96 85 82 92 78 69 79 88 91 92 86 86 81 87 90 93 92 89 89 90 90 88 91 89 85 82 86
83 80 79 80 74 71 70 68 72 73 78 76 83 94 94 94 98 100 100 100 90 87 80 69 77 90 94 84 84 86 69 72 88 90 93 90 92 90 90 88 89 89 88 90 88 85 86 87 84 84 85 82 82 78
86 88 78 76 73 72 70 69 70 82 78 82 94 97 100 98 98 100 100 96 89 89 97 69 83 83 73 79 79 69 90 97 99 94 89 92 94 92 90 91 92 90 88 86 86 81 81 80 82 74 76 80 76 77
78 76 72 69 65 68 78 72 66 68 92 92 94 98 98 100 100 100 100 92 86 77 73 73 62 79 85 77 78 88 93 94 92 92 90 94 95 90 88 88 88 85 85 84 81 82 82 81 69 66 65 64 64 64
76 69 76 74 65 62 69 75 73 81 93 92 95 94 95 99 98 100 100 95 75 66 70 73 86 74 86 83 97 100 96 92 91 90 88 92 89 90 88 86 86 84 83 81 73 65 62 64 58 55 54 56 57 61
80 79 77 76 69 61 63 75 68 68 81 91 84 86 85 88 89 100 100 100 92 72 81 83 86 95 93 92 87 90 91 85 78 82 86 83 80 86 86 78 69 75 70 72 68 66 59 59 55 55 59 64 70 70
76 78 75 73 74 70 70 68 71 76 75 83 83 74 80 77 85 95 90 79 96 81 80 85 98 91 90 89 82 76 80 71 74 69 75 82 78 71 72 69 71 64 66 68 71 70 72 66 62 65 84 87 86 81
80 73 73 72 78 79 77 75 75 77 77 83 75 73 86 98 97 92 74 84 76 87 84 78 76 85 74 76 73 69 77 71 76 75 78 77 78 73 71 72 68 76 73 78 69 78 73 67 74 78 86 90 79 80
71 68 71 65 78 83 94 79 86 74 84 83 80 82 88 89 79 68 87 66 85 85 77 71 74 69 71 70 66 65 62 60 64 70 75 71 70 73 72 71 71 80 77 69 63 71 81 82 86 89 86 83 82 84
70 82 86 89 77 96 91 92 77 75 81 81 82 85 81 85 75 79 82 79 80 73 76 80 71 74 71 70 69 70 69 63 69 73 72 71 74 72 67 66 66 66 60 66 74 84 86 91 87 83 87 86 85 82
68 83 82 87 85 87 89 86 91 78 87 86 85 87 89 81 88 85 84 82 86 92 86 80 74 70 73 79 74 73 70 62 64 72 72 64 70 71 71 68 69 69 75 89 91 91 92 90 90 87 82 82 78 82
79 85 80 78 93 85 84 91 97 89 87 87 89 85 90 90 92 83 72 90 94 89 96 96 91 82 77 72 74 71 67 62 61 67 68 63 65 78 82 84 86 83 71 81 87 88 89 87 86 84 87 87 90 79
79 90 87 73 78 78 91 89 77 88 89 85 89 92 90 87 76 76 82 82 82 87 82 81 80 73 71 76 76 76 72 70 71 68 71 70 71 68 76 83 82 78 74 80 83 83 84 84 84 83 88 88 88 85
80 85 91 92 88 81 97 93 89 88 85 75 82 90 81 75 75 85 81 84 87 80 80 82 81 74 73 78 82 86 87 87 89 84 80 80 82 84 85 84 81 80 81 81 82 81 80 80 83 83 84 87 90 86
96 87 87 95 92 92 93 93 90 78 74 79 93 84 82 77 88 84 82 84 85 86 87 88 92 92 89 86 88 86 88 88 89 92 89 92 92 92 84 83 81 80 82 85 84 82 81 83 85 85 84 86 86 83
94 86 90 97 98 91 90 87 95 92 74 79 74 74 74 86 89 84 86 88 90 92 93 93 93 92 94 94 95 93 91 92 92 90 90 91 90 90 86 85 85 85 84 84 87 90 93 91 91 84 83 83 82 82
84 90 93 89 90 96 96 94 94 90 90 88 92 93 87 90 90 88 86 90 91 92 93 95 94 92 92 93 92 92 94 91 83 82 85 88 88 86 86 85 85 85 85 84 86 87 88 86 83 80 79 83 86 82
93 91 92 92 92 92 91 92 92 92 93 94 92 93 93 94 92 92 92 93 92 93 93 91 92 92 90 92 94 94 92 89 86 85 82 85 87 88 87 86 88 86 87 87 87 87 81 79 80 80 82 83 84 84
91 91 92 93 92 91 91 92 85 88 91 90 90 90 89 90 89 93 85 89 93 92 91 92 92 93 93 92 92 93 89 88 87 87 87 87 84 86 87 87 87 86 85 86 84 78 76 77 81 82 84 85 85 83

GFSWCAN_sfc_rhum_123.txt.gz
RH
73 89 86 84 89 90 93 89 89 90 90 90 88 88 88 86 75 61 92 72 54 78 74 56 53 56 50 43 56 51 53 53 49 55 43 40 47 45 53 39 48 55 59 66 60 63 72 67 96 96 79 64 59 56
89 87 85 87 90 88 88 92 90 88 86 86 84 81 76 74 70 57 77 78 61 80 91 63 55 42 35 32 38 49 40 42 38 43 35 34 54 56 42 69 42 60 45 61 66 82 76 94 98 78 71 74 64 59
88 86 86 87 90 89 89 91 89 88 88 86 82 82 81 74 70 65 77 69 71 89 82 63 63 52 43 35 33 43 39 45 52 57 44 48 50 36 55 54 63 58 48 77 78 77 74 91 99 94 86 78 59 52
86 85 86 88 90 90 90 92 91 88 86 86 83 81 77 70 71 60 59 54 52 52 78 61 44 58 42 40 40 37 48 50 51 47 54 62 54 53 61 55 63 63 56 66 91 83 82 94 99 96 91 67 52 48
86 87 92 92 89 91 92 93 91 90 89 86 82 76 74 73 71 61 54 54 48 46 67 66 54 46 40 42 44 45 49 50 45 48 62 52 47 55 60 58 68 53 70 80 94 83 89 91 100 96 91 71 53 51
85 86 91 91 91 92 91 91 90 87 84 80 77 74 73 70 58 46 95 42 35 39 66 71 59 53 46 44 45 46 44 42 37 39 46 44 50 58 65 80 68 66 65 59 82 88 98 100 96 91 85 57 48 47
82 85 88 91 90 87 86 87 86 86 86 85 83 82 79 75 57 53 61 54 60 38 77 62 69 59 46 46 46 48 47 48 37 41 42 40 47 51 69 62 66 70 60 67 74 77 92 84 83 61 47 47 47 43
82 79 84 88 85 85 85 84 82 82 82 81 79 76 72 71 63 54 64 68 65 42 42 72 81 67 49 51 59 47 49 43 46 44 46 41 47 53 74 59 63 60 57 66 66 64 63 62 48 48 46 45 47 46
84 81 85 86 84 86 86 81 76 73 73 77 74 67 55 58 48 51 78 71 50 48 66 74 71 87 50 57 55 50 42 67 46 59 43 41 60 76 66 56 60 62 64 70 60 60 54 54 50 50 49 48 46 49
85 84 87 87 86 81 80 77 74 71 70 68 51 65 100 65 82 70 52 76 64 50 49 68 53 81 48 60 68 63 55 59 66 54 43 62 63 54 44 45 50 55 50 50 62 62 57 57 56 56 56 52 55 59
85 85 86 84 78 76 78 79 74 66 59 59 94 89 57 71 48 57 98 77 66 68 55 58 52 66 49 68 72 56 69 62 71 68 69 66 65 67 49 51 51 46 43 44 44 48 50 53 57 59 58 56 59 64
83 84 81 78 76 82 82 80 72 56 59 69 62 58 53 65 76 79 83 66 54 65 58 68 58 56 71 54 69 69 69 70 82 62 80 72 76 58 56 60 58 47 46 49 48 51 54 55 56 55 54 58 65 71
84 81 83 85 83 77 76 74 74 74 76 51 63 95 59 76 92 91 91 74 88 83 84 84 89 67 64 74 86 68 89 90 73 86 71 74 64 57 59 57 56 50 54 55 57 57 55 56 53 56 75 84 85 84
86 85 81 80 79 76 75 74 73 63 54 87 94 92 87 94 76 78 71 82 87 82 82 76 79 72 76 90 100 88 82 68 82 82 64 76 80 77 67 64 66 94 91 91 91 86 84 85 90 88 88 85 85 83
85 80 74 74 74 72 71 71 72 54 80 90 74 89 86 87 88 93 88 88 86 79 75 75 68 63 80 96 77 71 87 77 61 71 92 92 86 82 87 81 88 90 91 90 90 90 90 89 87 89 86 80 79 84
76 69 67 77 74 72 71 61 59 60 70 70 81 96 92 97 100 100 100 100 83 78 68 59 69 93 92 81 80 84 61 66 84 97 90 89 95 96 92 91 89 88 88 88 86 85 85 85 84 83 80 79 80 78
69 66 74 73 71 70 70 56 60 72 74 76 98 100 100 100 100 100 100 94 81 75 94 57 89 85 64 70 70 60 92 98 92 92 86 95 89 90 90 89 90 87 86 85 83 79 81 77 78 72 75 76 69 71
62 61 74 69 59 61 64 57 58 66 94 96 94 100 100 100 100 100 98 86 74 65 61 66 56 69 86 73 74 82 92 93 90 91 92 88 98 92 93 92 86 83 83 82 78 78 78 76 60 59 57 55 55 53
67 64 76 74 58 52 59 61 59 80 96 93 98 91 95 99 98 96 95 83 66 57 64 61 80 65 79 78 91 98 95 89 90 89 88 89 90 89 88 85 83 82 81 79 70 62 60 55 51 49 47 48 50 53
75 77 76 74 63 44 51 61 53 64 88 91 82 83 76 87 91 100 100 91 81 62 74 73 83 90 86 86 81 86 88 82 77 83 86 85 82 87 88 78 71 74 69 66 60 60 54 52 48 46 48 52 62 65
64 64 68 60 60 55 58 56 67 66 62 78 70 62 73 71 85 95 88 72 87 66 70 78 95 88 79 76 69 68 74 64 68 66 75 83 78 72 73 68 69 62 62 64 67 64 64 61 54 53 80 85 83 77
63 71 61 60 68 65 68 67 66 63 67 72 66 59 79 97 93 88 67 80 76 94 86 71 70 70 65 67 64 62 68 66 69 68 75 74 76 74 73 72 66 72 69 76 66 74 68 60 64 77 86 88 75 74
64 56 57 55 86 80 90 68 75 58 77 76 66 71 79 80 71 60 80 63 88 76 69 63 65 60 63 61 60 60 58 55 58 67 71 69 68 72 72 69 68 76 73 67 63 72 83 72 81 89 84 80 78 82
67 87 93 87 75 93 87 83 60 60 67 68 68 74 73 80 66 71 73 77 78 67 69 71 63 66 63 61 61 62 61 56 62 66 65 67 72 71 65 63 65 67 63 60 67 86 80 88 84 80 82 78 77 74
64 86 90 85 81 82 81 84 84 66 80 76 76 78 81 71 81 77 78 84 79 85 82 74 68 65 72 73 67 66 59 53 58 66 66 60 68 66 65 65 68 67 70 87 90 88 89 87 86 81 74 73 70 72
74 92 83 81 87 78 72 76 82 80 78 82 82 76 82 83 86 82 64 83 88 86 93 96 90 78 72 64 67 62 60 54 55 62 61 58 63 75 78 82 82 81 74 87 85 84 83 80 81 77 85 80 76 74
67 87 74 63 65 64 84 81 67 79 80 79 83 87 86 80 77 77 78 77 77 86 78 82 83 70 68 70 68 66 65 67 69 62 64 68 75 74 78 80 83 78 73 77 78 77 80 78 77 77 80 81 80 78
75 79 83 89 84 74 90 85 83 81 82 66 75 86 79 80 80 84 79 80 84 74 76 78 75 68 70 74 78 82 84 82 82 79 78 77 76 82 85 83 80 76 78 80 79 75 74 76 77 78 80 83 84 78
90 82 81 87 84 86 85 84 79 68 64 71 90 80 85 74 88 82 80 81 83 83 82 86 90 88 85 82 85 83 86 86 86 88 85 91 91 91 81 81 81 81 82 83 77 76 74 78 80 80 78 80 80 78
85 78 81 85 88 81 95 86 89 96 68 79 72 68 68 89 90 83 85 86 87 91 90 89 89 92 92 91 92 91 91 91 95 97 90 90 90 90 88 86 84 81 80 82 85 86 86 84 82 80 79 80 79 79
75 83 83 80 81 88 92 93 97 94 94 88 93 95 84 90 88 85 83 87 87 88 91 90 89 90 90 91 90 91 94 92 86 88 87 89 89 88 85 81 80 81 80 80 81 81 81 79 77 76 76 78 79 75
88 84 82 83 85 93 95 93 89 88 88 89 87 92 91 91 88 91 88 89 88 88 90 94 90 92 95 92 92 94 86 88 85 84 82 85 85 82 78 77 79 79 80 81 81 79 74 74 77 77 78 77 78 78
90 92 93 93 90 89 92 94 82 83 86 84 85 86 86 90 92 92 82 86 91 93 92 92 92 92 92 91 90 92 88 88 84 81 79 77 75 77 80 80 80 80 79 81 78 74 72 73 77 77 78 79 79 77

GFSWCAN_sfc_rhum_126.txt.gz
RH
70 70 71 71 73 78 84 87 90 93 91 91 90 87 80 79 81 83 88 74 75 76 56 46 38 46 51 55 76 69 63 60 63 62 43 43 53 45 44 44 56 68 70 78 72 70 80 66 76 96 80 60 55 59
71 71 72 75 75 88 86 91 92 88 91 93 92 90 86 84 83 83 95 76 67 73 89 55 48 40 41 41 53 61 60 52 49 51 45 43 62 63 43 75 42 74 55 87 81 86 77 93 93 72 59 79 72 72
74 72 78 87 90 88 94 92 87 89 89 91 93 95 93 89 86 87 94 87 88 91 82 66 62 48 42 48 48 60 48 44 46 53 61 64 56 41 67 57 52 55 47 84 78 82 84 99 98 92 84 92 83 70
76 87 88 88 88 92 93 89 84 84 86 87 89 92 92 90 89 77 80 77 62 61 92 97 57 52 42 44 44 45 50 48 54 58 59 67 69 51 71 62 65 56 51 70 92 83 78 95 99 97 97 93 80 63
89 88 87 89 88 93 92 91 86 84 82 78 76 78 80 76 68 58 58 56 49 58 85 94 63 48 41 42 45 50 54 60 58 55 68 60 55 53 58 60 66 52 65 79 94 82 76 94 100 96 96 95 76 60
92 90 89 89 92 91 90 90 89 86 84 76 72 71 69 65 60 63 98 73 54 53 81 96 64 52 46 46 49 53 51 52 47 48 59 58 51 58 71 74 65 60 58 61 80 82 96 100 99 92 93 89 68 54
90 89 89 90 93 89 90 88 85 82 82 80 79 71 72 74 62 65 72 61 48 47 79 81 94 52 44 46 51 51 47 46 45 46 48 46 52 53 75 68 71 63 61 70 70 75 90 82 89 85 70 51 47 43
92 91 91 91 88 86 85 82 79 78 77 76 75 73 71 68 66 62 69 69 73 41 40 79 83 68 42 58 60 44 53 48 49 47 45 48 49 57 75 64 59 60 65 70 64 53 62 68 69 52 46 44 47 48
90 91 88 85 79 77 75 74 74 75 77 78 76 73 57 46 48 56 73 71 56 52 70 84 75 82 54 58 55 48 44 76 47 62 49 44 64 78 67 64 62 60 62 62 63 58 60 56 51 50 48 47 48 51
88 83 79 75 75 75 72 73 72 69 66 68 52 66 100 61 71 69 61 74 59 46 46 73 57 84 58 65 69 64 59 66 69 60 46 70 80 49 43 52 58 59 55 58 69 64 58 58 57 56 56 53 55 57
82 77 77 80 82 78 73 71 72 67 60 65 96 92 55 66 56 56 98 78 67 68 62 56 55 62 49 74 75 56 77 66 66 68 64 67 73 65 46 52 54 54 53 54 53 53 51 52 60 62 61 60 61 65
78 81 83 81 79 79 77 76 66 58 59 64 59 58 51 65 84 78 80 65 56 65 59 68 61 59 69 54 73 66 70 72 88 62 78 69 80 53 56 59 57 51 49 48 46 49 56 57 60 62 61 66 71 78
84 83 80 79 79 78 79 77 74 69 68 48 66 97 59 79 87 97 84 74 86 84 84 82 89 70 65 80 96 77 80 88 70 86 71 84 70 58 63 61 63 59 61 64 66 68 64 64 61 62 84 93 92 92
81 79 79 78 78 77 77 76 73 59 55 90 96 84 88 86 78 94 82 88 85 84 81 80 82 77 83 94 100 88 82 73 78 80 69 82 75 74 76 79 84 95 93 93 92 89 91 92 95 93 92 90 90 90
74 72 70 77 78 76 74 69 68 54 84 87 73 83 87 86 88 94 87 87 83 79 80 80 76 68 83 93 82 72 79 71 62 73 97 92 87 85 86 89 92 93 93 93 92 94 95 94 93 95 91 87 87 90
71 65 66 76 75 73 73 59 57 61 71 70 83 96 88 93 99 100 100 100 82 82 78 67 70 89 85 81 75 77 62 63 93 94 98 94 98 98 97 94 92 91 90 92 90 92 91 91 90 90 87 89 89 88
64 64 75 74 72 66 66 55 63 64 71 72 98 100 100 100 99 100 100 93 84 84 94 64 85 78 65 68 66 67 95 93 96 93 95 97 97 97 94 92 88 86 86 89 89 87 88 84 85 83 85 84 76 78
51 58 77 75 64 57 61 57 62 66 90 98 96 100 100 100 100 100 100 91 79 70 68 64 59 67 85 69 82 93 94 95 95 95 96 97 96 93 90 87 85 85 87 88 86 85 85 85 71 68 62 58 58 61
69 65 78 77 63 48 58 61 57 81 97 100 95 97 99 100 99 98 97 89 64 56 75 68 82 73 88 94 97 97 94 91 94 92 95 95 92 89 85 84 85 85 86 85 75 72 70 62 59 57 58 55 60 62
70 74 77 73 59 44 53 61 52 68 82 91 86 87 93 96 92 100 96 82 76 71 78 81 94 99 96 94 94 95 93 90 86 95 96 91 88 88 84 82 77 77 76 72 66 68 60 56 52 52 56 58 71 74
56 57 63 54 51 53 57 60 67 64 67 78 70 74 96 87 90 97 86 75 90 79 86 89 96 92 81 78 73 79 74 74 80 78 83 86 85 80 77 76 76 72 72 72 73 71 71 69 61 64 82 90 93 90
55 67 53 56 63 59 67 64 61 58 66 71 69 66 89 96 97 92 71 80 91 99 95 90 78 71 70 70 68 68 71 68 70 76 79 79 85 82 80 81 76 80 78 81 74 80 75 68 80 81 92 91 86 87
59 54 61 58 88 80 86 59 71 57 75 72 64 68 77 80 70 61 81 78 89 78 78 73 68 67 65 64 63 62 59 59 65 72 76 78 80 82 82 79 79 84 84 77 76 76 89 80 82 92 88 88 87 86
63 89 92 85 73 87 83 77 55 59 64 64 65 70 74 74 65 68 77 91 85 70 74 69 65 68 65 62 65 65 62 62 66 69 76 78 84 82 75 74 76 78 73 73 86 91 88 90 87 84 87 84 83 88
66 87 88 82 80 74 73 78 78 63 71 69 70 74 78 68 76 72 78 93 92 94 90 86 81 80 84 83 76 67 57 56 65 70 69 70 78 77 80 76 85 86 83 93 92 93 94 90 90 87 79 82 76 77
82 87 75 74 78 69 64 72 76 78 72 75 80 78 78 77 77 80 80 92 94 93 97 97 95 86 78 74 71 66 61 57 60 69 71 68 73 84 86 88 86 88 77 86 89 90 88 88 87 88 86 81 80 79
72 81 67 58 59 59 76 71 63 70 75 77 80 79 77 76 83 89 82 87 89 88 84 89 82 80 78 73 72 74 72 72 74 78 78 81 88 86 82 85 82 82 85 86 87 84 85 87 84 82 84 82 82 82
67 73 82 84 77 68 80 75 74 75 77 63 69 76 82 86 93 90 87 85 83 77 79 79 78 78 78 80 83 83 85 85 87 84 83 84 86 89 91 92 90 88 91 89 86 84 82 83 84 82 84 85 86 81
82 75 75 92 81 80 80 76 71 67 65 66 82 85 77 77 83 80 79 80 80 84 87 90 94 90 89 89 90 87 87 84 86 88 86 92 92 94 89 90 90 89 88 87 82 82 81 85 86 86 82 82 81 80
79 72 73 78 86 76 95 91 95 92 72 83 72 66 71 86 89 80 80 82 84 89 93 92 92 92 94 90 92 94 94 94 95 94 90 90 91 93 92 91 90 88 87 88 90 88 88 86 86 85 85 85 83 84
70 78 75 71 73 94 95 92 92 88 89 84 88 90 92 93 92 84 88 91 91 92 92 93 94 92 92 91 88 89 94 93 92 90 90 91 91 93 93 91 88 87 86 85 85 84 84 83 81 81 80 83 84 80
82 78 81 74 86 89 88 86 84 86 90 85 86 88 89 88 91 92 89 91 92 92 93 93 93 96 95 93 95 93 88 93 93 91 86 91 92 88 86 84 84 84 84 84 84 82 78 80 82 80 80 79 81 81
88 87 80 81 81 81 90 88 81 83 88 84 90 91 90 92 93 91 83 88 93 95 94 93 94 94 94 94 93 95 93 94 92 88 84 82 81 83 85 86 85 84 82 83 82 80 78 77 81 81 82 84 83 82